[[{"header":{"parameterUnit":"m.s-1","parameterCategory":1,"la1":30.6,"la2":28.766,"lo1":-90.7593,"lo2":-88.6598,"dx":0.0162,"dy":0.0183,"nx":116,"ny":114,"refTime":"2023-01-20T18:00:00:Z","depth":0,"parameterNumber":2,"parameterNumberName":"U-component_of_WINDS"},"data":[0.0,0.0,0.0,0.0,0.0,0.0,0.0,0.0,0.0,0.0,0.0,0.0,0.0,0.0,0.0,0.0,0.0,0.0,0.0,0.0,0.0,0.0,0.0,0.0,0.0,0.0,0.0,0.0,0.0,0.0,0.0,0.0,0.0,0.0,0.0,0.0,0.0,0.0,0.0,0.0,0.0,0.0,0.0,0.0,0.0,0.0,0.0,0.0,0.0,0.0,0.0,0.0,0.0,0.0,0.0,0.0,0.0,0.0,0.0,0.0,0.0,0.0,0.0,0.0,0.0,0.0,0.0,0.0,0.0,0.0,0.0,0.0,0.0,0.0,0.0,0.0,0.0,0.0,0.0,0.0,0.0,0.0,0.0,0.0,0.0,0.0,0.0,0.0,0.0,0.0,0.0,0.0,0.0,0.0,0.0,0.0,0.0,0.0,0.0,0.0,0.0,0.0,0.0,0.0,0.0,0.0,0.0,0.0,0.0,0.0,0.0,0.0,0.0,0.0,0.0,0.0,0.0,0.0,0.0,0.0,0.0,0.0,0.0,0.0,0.0,0.0,0.0,0.0,0.0,0.0,0.0,0.0,0.0,0.0,0.0,0.0,0.0,0.0,0.0,0.0,0.0,0.0,0.0,0.0,0.0,0.0,0.0,0.0,0.0,0.0,0.0,0.0,0.0,0.0,0.0,0.0,0.0,0.0,0.0,0.0,0.0,0.0,0.0,0.0,0.0,0.0,0.0,0.0,0.0,0.0,0.0,0.0,0.0,0.0,0.0,0.0,0.0,0.0,0.0,0.0,0.0,0.0,0.0,0.0,0.0,0.0,0.0,0.0,0.0,0.0,0.0,0.0,0.0,0.0,0.0,0.0,0.0,0.0,0.0,0.0,0.0,0.0,0.0,0.0,0.0,0.0,0.0,0.0,0.0,0.0,0.0,0.0,0.0,0.0,0.0,0.0,0.0,0.0,0.0,0.0,0.0,0.0,0.0,0.0,0.0,0.0,0.0,0.0,0.0,0.0,0.0,0.0,0.0,0.0,0.0,0.0,0.0,0.0,0.0,0.0,0.0,0.0,0.0,0.0,0.0,0.0,0.0,0.0,0.0,0.0,0.0,0.0,0.0,0.0,0.0,0.0,0.0,0.0,0.0,0.0,0.0,0.0,0.0,0.0,0.0,0.0,0.0,0.0,0.0,0.0,0.0,0.0,0.0,0.0,0.0,0.0,0.0,0.0,0.0,0.0,0.0,0.0,0.0,0.0,0.0,0.0,0.0,0.0,0.0,0.0,0.0,0.0,0.0,0.0,0.0,0.0,0.0,0.0,0.0,0.0,0.0,0.0,0.0,0.0,0.0,0.0,0.0,0.0,0.0,0.0,0.0,0.0,0.0,0.0,0.0,0.0,0.0,0.0,0.0,0.0,0.0,0.0,0.0,0.0,0.0,0.0,0.0,0.0,0.0,0.0,0.0,0.0,0.0,0.0,0.0,0.0,0.0,0.0,0.0,0.0,0.0,0.0,0.0,0.0,0.0,0.0,0.0,0.0,0.0,0.0,0.0,0.0,0.0,0.0,0.0,0.0,0.0,0.0,0.0,0.0,0.0,0.0,0.0,0.0,0.0,0.0,0.0,0.0,0.0,0.0,0.0,0.0,0.0,0.0,0.0,0.0,0.0,0.0,0.0,0.0,0.0,0.0,0.0,0.0,0.0,0.0,0.0,0.0,0.0,0.0,0.0,0.0,0.0,0.0,0.0,0.0,0.0,0.0,0.0,0.0,0.0,0.0,0.0,0.0,0.0,0.0,0.0,0.0,0.0,0.0,0.0,0.0,0.0,0.0,0.0,0.0,0.0,0.0,0.0,0.0,0.0,0.0,0.0,0.0,0.0,0.0,0.0,0.0,0.0,0.0,0.0,0.0,0.0,0.0,0.0,0.0,0.0,0.0,0.0,0.0,0.0,0.0,0.0,0.0,0.0,0.0,0.0,0.0,0.0,0.0,0.0,0.0,0.0,0.0,0.0,0.0,0.0,0.0,0.0,0.0,0.0,0.0,0.0,0.0,0.0,0.0,0.0,0.0,0.0,0.0,0.0,0.0,0.0,0.0,0.0,0.0,0.0,0.0,0.0,0.0,0.0,0.0,0.0,0.0,0.0,0.0,0.0,0.0,0.0,0.0,0.0,0.0,0.0,0.0,0.0,0.0,0.0,0.0,0.0,0.0,0.0,0.0,0.0,0.0,0.0,0.0,0.0,0.0,0.0,0.0,0.0,0.0,0.0,0.0,0.0,0.0,0.0,0.0,0.0,0.0,0.0,0.0,0.0,0.0,0.0,0.0,0.0,0.0,0.0,0.0,0.0,0.0,0.0,0.0,0.0,0.0,0.0,0.0,0.0,0.0,0.0,0.0,0.0,0.0,0.0,0.0,0.0,0.0,0.0,0.0,0.0,0.0,0.0,0.0,0.0,0.0,0.0,0.0,0.0,0.0,0.0,0.0,0.0,0.0,0.0,0.0,0.0,0.0,0.0,0.0,0.0,0.0,0.0,0.0,0.0,0.0,0.0,0.0,0.0,0.0,0.0,0.0,0.0,0.0,0.0,0.0,0.0,0.0,0.0,0.0,0.0,0.0,0.0,0.0,0.0,0.0,0.0,0.0,0.0,0.0,0.0,0.0,0.0,0.0,0.0,0.0,0.0,0.0,0.0,0.0,0.0,0.0,0.0,0.0,0.0,0.0,0.0,0.0,0.0,0.0,0.0,0.0,0.0,0.0,0.0,0.0,0.0,0.0,0.0,0.0,0.0,0.0,0.0,0.0,0.0,0.0,0.0,0.0,0.0,0.0,0.0,0.0,0.0,0.0,0.0,0.0,0.0,0.0,0.0,0.0,0.0,0.0,0.0,0.0,0.0,0.0,0.0,0.0,0.0,0.0,0.0,0.0,0.0,0.0,0.0,0.0,0.0,0.0,0.0,0.0,0.0,0.0,0.0,0.0,0.0,0.0,0.0,0.0,0.0,0.0,0.0,0.0,0.0,0.0,0.0,0.0,0.0,0.0,0.0,0.0,0.0,0.0,0.0,0.0,0.0,0.0,0.0,0.0,0.0,0.0,0.0,0.0,0.0,0.0,0.0,0.0,0.0,0.0,0.0,0.0,0.0,0.0,0.0,0.0,0.0,0.0,0.0,0.0,0.0,0.0,0.0,0.0,0.0,0.0,0.0,0.0,0.0,0.0,0.0,0.0,0.0,0.0,0.0,0.0,0.0,0.0,0.0,0.0,0.0,0.0,0.0,0.0,0.0,0.0,0.0,0.0,0.0,0.0,0.0,0.0,0.0,0.0,0.0,0.0,0.0,0.0,0.0,0.0,0.0,0.0,0.0,0.0,0.0,0.0,0.0,0.0,0.0,0.0,0.0,0.0,0.0,0.0,0.0,0.0,0.0,0.0,0.0,0.0,0.0,0.0,0.0,0.0,0.0,0.0,0.0,0.0,0.0,0.0,0.0,0.0,0.0,0.0,0.0,0.0,0.0,0.0,0.0,0.0,0.0,0.0,0.0,0.0,0.0,0.0,0.0,0.0,0.0,0.0,0.0,0.0,0.0,0.0,0.0,0.0,0.0,0.0,0.0,0.0,0.0,0.0,0.0,0.0,0.0,0.0,0.0,0.0,0.0,0.0,0.0,0.0,0.0,0.0,0.0,0.0,0.0,0.0,0.0,0.0,0.0,0.0,0.0,0.0,0.0,0.0,0.0,0.0,0.0,0.0,0.0,0.0,0.0,0.0,0.0,0.0,0.0,0.0,0.0,0.0,0.0,0.0,0.0,0.0,0.0,0.0,0.0,0.0,0.0,0.0,0.0,0.0,0.0,0.0,0.0,0.0,0.0,0.0,0.0,0.0,0.0,0.0,0.0,0.0,0.0,0.0,0.0,0.0,0.0,0.0,0.0,0.0,0.0,0.0,0.0,0.0,0.0,0.0,0.0,0.0,0.0,0.0,0.0,0.0,0.0,0.0,0.0,0.0,0.0,0.0,0.0,0.0,0.0,0.0,0.0,0.0,0.0,0.0,0.0,0.0,0.0,0.0,0.0,0.0,0.0,0.0,0.0,0.0,0.0,0.0,0.0,0.0,0.0,0.0,0.0,0.0,0.0,0.0,0.0,0.0,0.0,0.0,0.0,0.0,0.0,0.0,0.0,0.0,0.0,0.0,0.0,0.0,0.0,0.0,0.0,0.0,0.0,0.0,0.0,0.0,0.0,0.0,0.0,0.0,0.0,0.0,0.0,0.0,0.0,0.0,0.0,0.0,0.0,0.0,0.0,0.0,0.0,0.0,0.0,0.0,0.0,0.0,0.0,0.0,0.0,0.0,0.0,0.0,0.0,0.0,0.0,0.0,0.0,0.0,0.0,0.0,0.0,0.0,0.0,0.0,0.0,0.0,0.0,0.0,0.0,0.0,0.0,0.0,0.0,0.0,0.0,0.0,0.0,0.0,0.0,0.0,0.0,0.0,0.0,0.0,0.0,0.0,0.0,0.0,0.0,0.0,0.0,0.0,0.0,0.0,0.0,0.0,0.0,0.0,0.0,0.0,0.0,0.0,0.0,0.0,0.0,0.0,0.0,0.0,0.0,0.0,0.0,0.0,0.0,0.0,0.0,0.0,0.0,0.0,0.0,0.0,0.0,0.0,0.0,0.0,0.0,0.0,0.0,0.0,0.0,0.0,0.0,0.0,0.0,0.0,0.0,0.0,0.0,0.0,0.0,0.0,0.0,0.0,0.0,0.0,0.0,0.0,0.0,0.0,0.0,0.0,0.0,0.0,0.0,0.0,0.0,0.0,0.0,0.0,0.0,0.0,0.0,0.0,0.0,0.0,0.0,0.0,0.0,0.0,0.0,0.0,0.0,0.0,0.0,0.0,0.0,0.0,0.0,0.0,0.0,0.0,0.0,0.0,0.0,0.0,0.0,0.0,0.0,0.0,0.0,0.0,0.0,0.0,0.0,0.0,0.0,0.0,0.0,0.0,0.0,0.0,0.0,0.0,0.0,0.0,0.0,0.0,0.0,0.0,0.0,0.0,0.0,0.0,0.0,0.0,0.0,0.0,0.0,0.0,0.0,0.0,0.0,0.0,0.0,0.0,0.0,0.0,0.0,0.0,0.0,0.0,0.0,0.0,0.0,0.0,0.0,0.0,0.0,0.0,0.0,0.0,0.0,0.0,0.0,0.0,0.0,0.0,0.0,0.0,0.0,0.0,0.0,0.0,0.0,0.0,0.0,0.0,0.0,0.0,0.0,0.0,0.0,0.0,0.0,0.0,0.0,0.0,0.0,0.0,0.0,0.0,0.0,0.0,0.0,0.0,0.0,0.0,0.0,0.0,0.0,0.0,0.0,0.0,0.0,0.0,0.0,0.0,0.0,0.0,0.0,0.0,0.0,0.0,0.0,0.0,0.0,0.0,0.0,0.0,0.0,0.0,0.0,0.0,0.0,0.0,0.0,0.0,0.0,0.0,0.0,0.0,0.0,0.0,0.0,0.0,0.0,0.0,0.0,0.0,0.0,0.0,0.0,0.0,0.0,0.0,0.0,0.0,0.0,0.0,0.0,0.0,0.0,0.0,0.0,0.0,0.0,0.0,0.0,0.0,0.0,0.0,0.0,0.0,0.0,0.0,0.0,0.0,0.0,0.0,0.0,0.0,0.0,0.0,0.0,0.0,0.0,0.0,0.0,0.0,0.0,0.0,0.0,0.0,0.0,0.0,0.0,0.0,0.0,0.0,0.0,0.0,0.0,0.0,0.0,0.0,0.0,0.0,0.0,0.0,0.0,0.0,0.0,0.0,0.0,0.0,0.0,0.0,0.0,0.0,0.0,0.0,0.0,0.0,0.0,0.0,0.0,0.0,0.0,0.0,0.0,0.0,0.0,0.0,0.0,0.0,0.0,0.0,0.0,0.0,0.0,0.0,0.0,0.0,0.0,0.0,0.0,0.0,0.0,0.0,0.0,0.0,0.0,0.0,0.0,0.0,0.0,0.0,0.0,0.0,0.0,0.0,0.0,0.0,0.0,0.0,0.0,0.0,0.0,0.0,0.0,0.0,0.0,0.0,0.0,0.0,0.0,0.0,2.4298,0.0,0.0,0.0,0.0,0.0,0.0,0.0,0.0,0.0,0.0,0.0,0.0,0.0,0.0,0.0,0.0,0.0,0.0,0.0,0.0,0.0,0.0,0.0,0.0,0.0,0.0,0.0,0.0,0.0,0.0,0.0,0.0,0.0,0.0,0.0,0.0,0.0,0.0,0.0,0.0,0.0,0.0,0.0,0.0,0.0,0.0,0.0,0.0,0.0,0.0,0.0,0.0,0.0,0.0,0.0,0.0,0.0,0.0,0.0,0.0,0.0,0.0,0.0,0.0,0.0,0.0,0.0,0.0,0.0,0.0,0.0,0.0,0.0,0.0,0.0,0.0,0.0,0.0,0.0,0.0,0.0,0.0,0.0,0.0,0.0,0.0,0.0,0.0,0.0,0.0,0.0,0.0,0.0,0.0,0.0,0.0,0.0,0.0,0.0,0.0,0.0,0.0,0.0,0.0,0.0,0.0,0.0,0.0,0.0,0.0,0.0,0.0,0.0,0.0,0.0,0.0,2.4499,0.0,0.0,0.0,0.0,0.0,0.0,0.0,0.0,0.0,0.0,0.0,0.0,0.0,0.0,0.0,0.0,0.0,0.0,0.0,0.0,0.0,0.0,0.0,0.0,0.0,0.0,0.0,0.0,0.0,0.0,0.0,0.0,0.0,0.0,0.0,0.0,0.0,0.0,0.0,0.0,0.0,0.0,0.0,0.0,0.0,0.0,0.0,0.0,0.0,0.0,0.0,0.0,0.0,0.0,0.0,0.0,0.0,0.0,0.0,0.0,0.0,0.0,0.0,0.0,0.0,0.0,0.0,0.0,0.0,0.0,0.0,0.0,0.0,0.0,0.0,0.0,0.0,0.0,0.0,0.0,0.0,0.0,0.0,0.0,0.0,0.0,0.0,0.0,0.0,0.0,0.0,0.0,0.0,0.0,0.0,0.0,0.0,0.0,0.0,0.0,0.0,0.0,0.0,0.0,0.0,0.0,0.0,0.0,2.4808,2.5123,2.5432,2.5302,2.5766,2.639,2.4338,2.4049,2.5093,0.0,0.0,0.0,0.0,0.0,0.0,0.0,0.0,0.0,0.0,0.0,0.0,0.0,0.0,0.0,0.0,0.0,0.0,0.0,0.0,0.0,0.0,0.0,0.0,0.0,0.0,0.0,0.0,0.0,0.0,0.0,0.0,0.0,0.0,1.7784,1.8192,1.8588,0.0,1.8752,1.8226,1.952,1.9763,1.9152,2.0399,0.0,0.0,0.0,0.0,0.0,0.0,0.0,0.0,0.0,0.0,0.0,0.0,0.0,0.0,0.0,0.0,0.0,0.0,0.0,0.0,0.0,0.0,0.0,0.0,0.0,0.0,0.0,0.0,0.0,0.0,0.0,0.0,0.0,0.0,0.0,0.0,0.0,0.0,0.0,0.0,0.0,0.0,0.0,2.2587,2.2912,0.0,0.0,0.0,0.0,0.0,0.0,0.0,0.0,0.0,0.0,0.0,0.0,0.0,2.5417,2.5586,2.647,2.6676,2.619,2.6534,2.6254,2.5418,2.5384,2.5455,2.5447,2.4556,0.0,2.4828,2.3823,0.0,0.0,0.0,0.0,0.0,0.0,0.0,0.0,0.0,0.0,0.0,0.0,0.0,0.0,0.0,0.0,0.0,0.0,0.0,0.0,0.0,0.0,0.0,0.0,0.0,0.0,0.0,0.0,0.0,0.0,0.0,0.0,1.8001,1.8727,1.8928,1.8665,1.8862,1.8533,1.7796,1.9059,1.9519,1.9256,2.0434,2.0838,2.0615,2.049,0.0,0.0,0.0,0.0,0.0,0.0,0.0,0.0,0.0,0.0,0.0,0.0,0.0,0.0,0.0,0.0,0.0,0.0,0.0,0.0,0.0,0.0,0.0,0.0,0.0,0.0,0.0,0.0,0.0,0.0,0.0,0.0,0.0,0.0,0.0,0.0,0.0,0.0,0.0,2.3366,2.3749,2.4423,2.4587,2.4439,0.0,0.0,0.0,0.0,0.0,0.0,0.0,0.0,0.0,2.513,2.611,2.6768,2.684,2.7563,2.7762,2.7492,2.7813,2.7683,2.7101,2.669,2.6607,2.6743,2.5478,2.5177,2.548,2.4349,2.3667,2.3238,0.0,0.0,0.0,0.0,2.3263,2.284,0.0,0.0,0.0,0.0,0.0,0.0,0.0,0.0,0.0,0.0,0.0,0.0,0.0,0.0,0.0,1.7916,0.0,0.0,0.0,0.0,0.0,0.0,0.0,1.8772,1.8392,1.9174,1.9303,1.8822,1.862,1.8215,1.7459,1.8541,1.8979,1.8787,1.9857,2.0429,2.0644,2.0451,2.0424,0.0,0.0,0.0,0.0,0.0,0.0,0.0,0.0,0.0,0.0,0.0,0.0,0.0,0.0,0.0,0.0,0.0,0.0,0.0,0.0,0.0,0.0,0.0,0.0,0.0,0.0,0.0,0.0,0.0,0.0,0.0,0.0,0.0,0.0,0.0,0.0,0.0,0.0,2.4356,2.4669,2.561,2.5691,2.5392,0.0,0.0,0.0,0.0,0.0,0.0,2.5731,2.6294,2.6702,2.6852,2.7733,2.8115,2.806,2.8535,2.8691,2.8523,2.8835,2.8832,2.8482,2.8085,2.7934,2.7822,2.6516,2.6074,2.6153,2.4834,2.4178,2.3937,2.336,2.3042,2.3026,2.353,2.3594,2.34,0.0,0.0,0.0,0.0,0.0,0.0,0.0,0.0,0.0,0.0,0.0,0.0,0.0,0.0,1.8314,1.7594,1.7464,1.7304,0.0,0.0,0.0,1.6601,1.7496,1.8072,1.8217,1.8586,1.8845,1.9073,1.8309,1.7623,1.6945,1.7977,1.7995,1.7229,1.825,1.9511,2.0908,2.1175,2.0669,1.9832,0.0,0.0,0.0,0.0,0.0,0.0,0.0,0.0,0.0,0.0,0.0,0.0,0.0,0.0,0.0,0.0,0.0,0.0,0.0,0.0,0.0,0.0,0.0,0.0,0.0,0.0,0.0,0.0,0.0,0.0,0.0,0.0,0.0,0.0,0.0,0.0,0.0,0.0,0.0,2.5993,2.6583,0.0,0.0,0.0,0.0,2.6877,2.6851,2.714,2.773,2.8095,2.8549,2.9193,2.9917,3.0025,2.9467,2.9878,2.9815,2.9328,2.9649,2.948,2.8783,2.9056,2.8696,2.7725,2.7403,2.7014,2.6613,2.4911,2.4174,2.4134,2.3839,2.3931,2.42,2.427,2.4482,2.4651,0.0,0.0,0.0,0.0,0.0,0.0,0.0,0.0,0.0,1.4235,0.0,0.0,0.0,1.6882,1.6922,1.6865,1.6665,1.6696,1.6969,0.0,0.0,1.6765,1.7728,1.8291,1.853,1.8458,1.8433,1.8538,1.8114,1.7611,1.7015,1.7744,1.7929,1.7633,1.8475,1.9182,1.9642,1.963,1.9452,1.9317,1.9737,1.9569,0.0,0.0,0.0,0.0,0.0,0.0,0.0,0.0,0.0,0.0,0.0,0.0,0.0,0.0,0.0,0.0,0.0,0.0,0.0,0.0,0.0,0.0,0.0,0.0,0.0,0.0,0.0,0.0,0.0,0.0,0.0,0.0,0.0,0.0,0.0,0.0,0.0,2.7585,2.784,0.0,2.7951,2.7922,2.7999,2.8234,2.8662,2.9159,2.9764,3.0305,3.0803,3.1227,3.1338,3.1296,3.1123,3.0977,3.0696,3.0437,3.0547,3.0281,2.9832,2.9751,2.9407,2.8818,2.8337,2.807,2.7909,2.7081,2.6186,2.5317,2.5211,2.5139,2.5114,2.5337,2.5289,2.5038,0.0,0.0,0.0,0.0,0.0,0.0,0.0,0.0,0.0,1.3823,1.4069,1.4697,1.6069,1.6303,1.635,1.636,1.6225,1.6322,1.6664,0.0,0.0,1.6658,1.764,1.8396,1.8942,1.8361,1.8071,1.822,1.7631,1.7255,1.7085,1.7481,1.7673,1.7753,1.8262,1.8474,1.8443,1.8265,1.8406,1.8738,1.8945,1.8738,1.8429,0.0,0.0,0.0,0.0,0.0,0.0,0.0,0.0,0.0,0.0,0.0,0.0,0.0,0.0,0.0,0.0,0.0,0.0,0.0,0.0,0.0,0.0,0.0,0.0,0.0,0.0,0.0,0.0,0.0,0.0,0.0,0.0,0.0,0.0,0.0,2.8354,2.9245,2.9441,2.9544,2.9587,2.9567,2.9754,3.0144,3.0598,3.1168,3.1929,3.2383,3.2675,3.2817,3.2674,3.2503,3.2141,3.168,3.1358,3.1093,3.0998,3.0775,3.0501,3.0194,2.9913,2.9606,2.9112,2.8845,2.8738,2.8524,2.7869,2.6961,2.6667,2.6426,2.6239,2.6459,2.6219,2.5798,0.0,0.0,0.0,0.0,0.0,0.0,0.0,0.0,0.0,1.3719,1.4669,1.5477,1.5904,1.6594,1.6797,1.605,1.6332,1.6353,1.5876,1.5706,0.0,1.6188,1.7112,1.8155,1.9287,1.818,1.7805,1.8154,1.6979,1.6667,1.7153,1.7144,1.7198,1.7387,1.7464,1.7464,1.7464,1.7464,1.7604,1.7996,1.8507,1.8103,1.7308,0.0,0.0,0.0,0.0,0.0,0.0,0.0,0.0,0.0,0.0,0.0,0.0,0.0,0.0,0.0,0.0,0.0,0.0,0.0,0.0,0.0,0.0,0.0,0.0,0.0,0.0,0.0,0.0,0.0,0.0,0.0,0.0,0.0,2.8594,2.8943,2.955,3.0847,3.1227,3.1603,3.1812,3.1871,3.2134,3.2778,3.2851,3.3276,3.4212,3.4285,3.4152,3.4001,3.3907,3.3422,3.2463,3.2054,3.1731,3.1263,3.0969,3.0835,3.0808,3.0515,3.0221,2.9913,2.9633,2.9339,2.9072,2.9072,2.9072,2.8978,2.8083,2.7736,2.7709,2.7428,2.7321,2.7186,0.0,0.0,0.0,0.0,0.0,0.0,0.0,0.0,1.2306,1.2781,1.3528,1.4223,1.507,1.5713,1.6011,1.5795,1.6083,1.6039,1.5305,0.0,1.6575,1.684,1.6832,1.7124,1.7834,1.7542,1.7505,1.7728,1.726,1.7188,1.7483,1.7665,1.7817,1.7842,1.8173,1.8333,1.8333,1.8333,1.8427,1.8404,1.78,1.7355,1.7189,0.0,0.0,0.0,0.0,0.0,0.0,0.0,0.0,0.0,0.0,0.0,0.0,0.0,0.0,0.0,0.0,0.0,0.0,0.0,0.0,0.0,0.0,0.0,0.0,0.0,0.0,0.0,0.0,0.0,0.0,0.0,0.0,2.9891,2.9562,3.0661,3.1687,3.2175,3.2778,3.3189,3.351,3.3554,3.3729,3.4139,3.4592,3.5067,3.5236,3.569,3.5691,3.529,3.4686,3.4088,3.3309,3.2719,3.2377,3.2185,3.1877,3.1637,3.1423,3.1129,3.0715,3.0234,3.0154,2.9953,2.9673,2.9673,2.9673,2.9606,2.8938,2.8671,2.8572,2.8149,2.7636,2.7063,0.0,0.0,0.0,0.0,0.0,0.0,0.0,0.0,1.1797,1.2321,1.3182,1.3978,1.4736,1.55,1.591,1.591,1.6138,1.5999,1.5328,0.0,1.6421,1.7167,1.6812,1.6895,1.7485,1.7339,1.7421,1.7664,1.7392,1.7476,1.8005,1.8144,1.8427,1.8848,1.9109,1.9193,1.9193,1.9193,1.9193,1.9127,1.8343,1.7813,1.7464,1.7621,1.7877,1.8249,1.9213,1.9786,2.0275,2.0924,0.0,0.0,0.0,0.0,0.0,0.0,0.0,0.0,0.0,0.0,0.0,0.0,0.0,0.0,0.0,0.0,0.0,0.0,0.0,0.0,0.0,0.0,0.0,0.0,3.017,3.1218,3.2033,3.2808,3.353,3.3996,3.4417,3.4856,3.5178,3.5222,3.5258,3.5386,3.5749,3.5912,3.5761,3.612,3.6006,3.5503,3.5034,3.4551,3.3949,3.3318,3.2906,3.2906,3.2492,3.2131,3.1837,3.1543,3.1156,0.0,3.0595,3.0381,3.01,3.01,3.0034,0.0,0.0,0.0,0.0,0.0,2.7621,2.6996,0.0,0.0,0.0,0.0,0.0,0.0,0.0,0.0,1.1678,1.2108,1.3416,1.4407,1.4851,1.5774,1.6277,1.6194,1.6367,1.6253,1.5637,1.5378,1.5812,1.7234,1.6977,1.7176,1.7843,1.7443,1.7449,1.7794,1.7345,1.7609,1.84,1.8488,1.9024,1.9812,1.9928,2.0015,1.9996,2.0015,2.0006,1.9959,1.9562,1.8919,1.8065,1.7728,1.7952,1.8555,1.8632,1.9163,2.0012,2.0883,0.0,0.0,0.0,0.0,0.0,0.0,0.0,0.0,0.0,0.0,0.0,0.0,0.0,0.0,0.0,0.0,0.0,0.0,0.0,0.0,0.0,0.0,0.0,0.0,3.1146,3.2644,3.5038,3.5214,3.5243,3.5763,3.6085,3.6392,3.6586,3.6615,3.6533,3.6321,3.6263,3.6218,3.5991,0.0,0.0,0.0,0.0,3.4877,3.4362,3.3801,3.3507,3.3507,3.2919,3.2505,3.2238,3.1917,3.1583,3.1263,3.1009,3.0702,3.0408,3.0408,3.0247,2.989,2.9571,2.9158,2.8587,2.7914,2.7297,2.6932,0.0,0.0,0.0,0.0,0.0,0.0,0.0,1.0875,1.1397,1.2108,1.3525,1.4752,1.548,1.6478,1.6924,1.6223,1.6259,1.6101,1.5761,1.5374,1.5812,1.7451,1.7535,1.7741,1.8004,1.7924,1.7767,1.7633,1.7543,1.7633,1.7804,1.8621,1.907,1.9258,2.0231,2.0573,2.0431,2.0592,2.0573,2.0403,2.0148,1.9647,1.9014,1.8588,1.8518,1.876,1.9384,1.9643,1.9813,2.1399,2.1825,2.1834,2.2818,0.0,0.0,0.0,0.0,0.0,0.0,0.0,0.0,0.0,0.0,0.0,0.0,0.0,0.0,0.0,0.0,0.0,0.0,0.0,0.0,3.1391,3.3024,3.4626,3.6235,3.701,3.733,3.6919,3.7095,3.7113,3.6767,3.6665,3.6491,3.5967,3.6191,3.6346,3.6313,3.6551,0.0,3.5869,3.5636,3.5292,3.4683,3.4322,3.4148,3.4135,0.0,0.0,3.3133,3.2612,3.2091,3.1583,3.153,3.1196,3.0715,3.0715,3.0399,2.9926,2.9493,2.8924,2.8475,2.7873,2.7411,2.7026,0.0,0.0,0.0,0.0,0.0,0.0,0.0,1.0577,1.1017,1.1736,1.2993,1.4093,1.4554,1.5564,1.5965,1.5267,1.5195,1.5322,1.5922,1.5396,1.5818,1.7631,1.7664,1.7756,1.8126,1.8135,1.8092,1.8184,1.8184,1.8363,1.8922,1.9387,1.9953,2.0519,2.1086,2.1263,2.1178,2.1272,2.1196,2.0989,2.0781,2.044,2.0015,1.9495,1.9297,1.9381,1.9793,1.9673,1.9627,2.0881,2.1246,2.1323,2.2214,2.2524,2.2505,0.0,0.0,0.0,0.0,0.0,0.0,0.0,0.0,0.0,0.0,0.0,0.0,0.0,0.0,2.8203,0.0,0.0,3.1705,3.3091,3.4272,3.5472,3.6801,3.7272,3.7476,3.7633,3.7924,3.7904,3.7277,3.7173,3.6977,3.6453,3.6592,3.6569,3.6252,3.6252,3.6146,3.5842,3.5545,3.5291,3.4977,3.4683,3.4536,3.4536,3.4082,3.3708,3.34,3.3106,3.2666,3.2104,3.2104,3.1688,3.0835,3.0253,2.9857,2.9554,2.9088,2.8623,2.8198,2.7608,2.7377,2.7365,0.0,0.0,0.0,0.0,0.0,0.0,0.0,0.0,0.0,1.1311,1.2405,1.323,1.3476,1.432,1.4653,1.4114,1.3908,1.4366,1.5705,1.5333,1.5872,1.768,1.7591,1.7754,1.8217,1.8265,1.8428,1.8728,1.8728,1.92,2.0054,2.015,2.0724,2.1696,2.183,2.183,2.1792,2.183,2.1707,2.1452,2.1291,2.1102,2.0847,2.0355,2.011,2.0044,2.0044,1.9798,1.9552,2.0353,2.068,2.0775,2.1508,2.1687,2.1615,2.1334,2.1613,0.0,0.0,0.0,0.0,0.0,0.0,0.0,0.0,0.0,2.8136,2.9085,2.9753,3.0421,3.1236,3.2305,3.352,3.4707,3.5224,3.5857,3.7169,3.7138,3.7342,3.7935,3.8234,3.8212,3.7582,3.7582,3.7367,3.6828,3.672,3.6612,3.6072,3.5845,3.5685,3.5631,3.5404,3.5257,3.5191,3.4963,3.4843,3.4843,3.4549,3.4148,3.3668,3.3561,3.3213,3.2608,3.2403,3.1794,3.0855,2.9917,2.9406,2.9355,2.8743,2.8464,2.818,2.7555,2.7512,2.7917,0.0,0.0,0.0,0.0,0.0,0.0,0.0,0.0,0.0,1.1177,1.2187,1.2931,1.3468,0.0,1.4037,1.3274,1.3161,1.3573,1.4578,1.5155,1.6087,1.7428,1.7827,1.8192,1.842,1.8582,1.868,1.8728,1.8728,1.9008,1.9584,1.9958,2.0532,2.1115,2.1779,2.1962,2.1801,2.1981,2.183,2.1471,2.1442,2.131,2.1121,2.1055,2.08,2.0469,2.0469,2.0318,2.0179,2.0858,2.1104,2.1241,2.1683,2.2085,2.219,2.1658,0.0,2.1716,0.0,0.0,0.0,2.7187,2.7522,2.7667,0.0,0.0,3.0341,3.1476,3.2185,3.2786,3.3427,3.4282,3.5017,3.5484,3.5952,3.6584,3.7278,3.7538,3.7729,3.7784,3.7779,3.7582,3.7044,3.6936,3.672,3.618,3.618,3.618,3.6072,3.6046,3.5899,3.5631,3.5591,3.5458,3.5204,3.5164,3.5151,3.5151,3.4857,3.4683,3.4603,3.4068,3.3338,3.2594,3.1492,3.104,3.0878,3.0338,2.9969,2.972,2.8908,2.8747,2.8855,2.8582,2.8242,2.8203,0.0,0.0,0.0,0.0,0.0,0.0,0.0,0.0,0.0,0.0,0.0,1.1465,0.0,1.2156,1.2483,1.2726,1.2777,1.3363,1.4594,1.532,1.6191,1.7428,1.8046,1.8325,1.8121,1.8584,1.8729,1.854,1.8931,1.933,1.9809,2.0288,2.0871,2.1357,2.1643,2.1925,2.2141,2.1523,2.1252,2.1158,2.0755,2.0497,2.0315,2.0188,2.0043,1.9898,2.0443,2.0243,0.0,0.0,2.0279,1.9981,2.0525,2.0667,2.0584,2.0319,2.0693,0.0,2.2437,0.0,0.0,0.0,2.918,3.0185,3.1744,3.2104,3.2425,3.344,3.3975,3.4402,3.4817,3.5485,3.6006,0.0,3.65,3.6767,3.7097,3.7205,3.7286,3.7286,3.7277,3.7209,3.7138,3.7178,3.7122,3.7088,3.6941,3.6834,3.6834,3.6513,3.6273,3.6139,3.5805,3.5578,3.5444,3.5284,3.5191,3.5191,3.507,3.4923,3.475,3.4199,3.3302,3.2327,3.134,3.0889,3.0627,2.9972,2.964,2.9518,2.9213,2.9298,2.9586,2.8842,2.8867,2.9307,0.0,0.0,0.0,0.0,0.0,0.0,0.0,0.0,0.0,0.0,0.0,0.0,0.0,1.0916,1.1351,1.2256,1.2525,1.3172,1.4452,1.5227,1.6087,1.71,1.7808,1.7986,1.7681,1.8238,1.8485,1.8317,1.871,1.9331,1.9961,2.0354,2.0871,2.1415,2.1415,2.1575,2.1814,2.0995,2.0684,2.072,2.0197,1.9806,1.9569,1.9428,1.9235,1.9059,1.9753,1.9631,0.0,0.0,1.9241,1.8944,1.9531,1.9618,1.9458,1.9401,2.0262,2.1742,2.382,0.0,0.0,2.9576,3.1011,3.2492,3.3293,3.3761,3.4202,3.4857,3.5297,3.5618,3.5832,3.6286,0.0,3.662,3.6794,3.6941,3.6941,3.6941,3.6941,3.6941,3.6941,3.7048,3.7342,3.7382,3.7462,3.7676,3.7569,3.7462,3.7382,3.6981,3.6687,3.6513,3.6099,3.5832,3.5752,3.5458,3.5311,3.5311,3.5231,3.4979,3.4661,3.385,3.2915,3.202,3.1321,3.0883,3.0524,3.0015,2.9547,2.9315,2.9613,2.9959,3.0192,2.9695,2.9858,3.0357,0.0,0.0,0.0,0.0,0.0,0.0,0.0,0.0,0.0,0.0,0.0,0.0,0.0,0.0,1.1275,1.1869,1.2276,1.2934,1.3884,1.4776,1.5523,1.6017,1.698,1.7335,1.7029,1.7202,1.7477,1.8063,1.8055,1.8624,1.9767,1.9864,2.0153,2.0826,2.0826,2.0729,2.065,2.065,2.0421,2.005,2.005,1.9718,1.9384,1.9376,1.8722,1.775,1.8034,0.0,0.0,0.0,1.8367,1.879,1.9231,1.959,0.0,1.9647,2.1152,0.0,0.0,0.0,2.9817,3.2208,3.336,3.3975,3.4576,3.5151,3.5565,3.5591,3.6059,3.6473,3.6473,3.6727,3.6941,3.6941,3.6941,3.6941,3.6941,3.6941,3.6941,3.6941,3.6941,3.7048,0.0,3.7382,3.7382,3.7382,3.7635,3.7676,3.7382,3.7382,3.7088,3.6513,3.65,3.634,3.6059,3.5765,3.5618,3.5605,3.5324,3.4874,3.4319,3.2877,3.2065,3.1805,3.1286,3.0829,3.0588,3.0576,2.9957,2.909,3.0203,3.0429,3.0279,3.1333,3.136,3.0933,0.0,0.0,0.0,0.0,0.0,0.0,0.0,0.0,0.0,0.0,0.0,0.0,0.0,0.0,0.0,0.0,1.2195,1.263,1.349,1.4124,1.4854,1.56,1.6273,1.6527,1.6133,1.6669,1.6852,1.6663,1.7154,1.7516,1.7961,1.836,1.8737,1.8891,1.8891,1.9245,1.9844,1.8835,1.8662,1.8811,1.8559,1.7944,1.719,1.7461,1.7001,1.6035,0.0,0.0,0.0,0.0,0.0,0.0,1.8614,0.0,0.0,2.1299,0.0,0.0,0.0,0.0,3.2353,3.4046,3.4897,3.5538,3.6326,3.65,3.654,3.6754,3.6473,3.6219,3.6219,3.6139,3.6139,3.6326,3.654,3.6727,3.6901,3.6941,3.6941,3.6941,3.6941,0.0,0.0,0.0,0.0,3.7929,3.7849,3.7849,3.7969,3.7782,3.7489,3.7088,3.6901,3.6647,3.6366,3.6072,3.5925,3.5925,3.5618,3.4847,3.371,3.329,3.2666,3.209,3.1881,3.1616,3.1359,3.1289,3.1015,3.0627,3.0849,3.1027,3.1314,3.1918,3.2117,3.227,0.0,0.0,0.0,0.0,0.0,0.0,0.0,0.0,0.0,0.0,0.0,0.0,0.0,0.0,0.0,0.0,0.0,1.2374,1.3169,1.3589,1.4189,1.492,1.544,1.5563,1.5181,1.5553,1.5792,1.561,1.5986,1.6402,1.6767,1.7154,1.7458,1.7573,1.7573,1.7915,1.8403,1.7367,1.7211,1.7393,1.6981,1.6391,1.5755,1.5992,1.5529,0.0,0.0,0.0,0.0,0.0,0.0,0.0,0.0,0.0,0.0,0.0,0.0,0.0,0.0,3.2181,3.4309,3.5391,3.6112,3.6687,3.7235,3.7235,3.7088,3.7088,3.6473,3.5885,3.5778,3.5605,3.5565,3.5872,3.6246,3.6607,3.6901,3.6941,3.6941,3.6941,3.6941,0.0,0.0,0.0,0.0,3.8076,3.8036,3.8076,3.8263,3.8076,3.7849,3.7555,3.7235,3.6897,3.6489,3.6105,3.5732,3.541,3.4906,3.4351,3.365,3.2898,3.2324,3.2046,3.1635,3.1267,3.1014,3.0853,3.0581,3.0256,3.0603,3.0696,3.0772,3.1703,3.2138,3.2259,0.0,0.0,0.0,0.0,0.0,0.0,0.0,0.0,0.0,0.0,0.0,0.0,0.0,0.0,0.0,0.0,0.0,0.0,1.2856,1.3162,1.3532,1.3913,1.4315,1.4386,1.4021,1.4034,1.4295,1.4721,1.4728,1.5227,1.6129,1.6144,1.6308,1.6606,1.6606,1.6524,1.6375,1.6295,1.613,1.5846,1.5455,1.526,1.5138,1.4931,0.0,0.0,0.0,0.0,0.0,0.0,0.0,0.0,0.0,0.0,0.0,0.0,0.0,3.0034,3.1164,3.3317,3.5471,3.6353,3.6981,3.7422,3.7422,3.7382,3.7195,3.662,3.5992,3.5471,0.0,0.0,3.5244,3.5551,3.6126,3.6647,3.6941,3.6981,3.6981,0.0,0.0,0.0,0.0,0.0,0.0,3.7809,0.0,3.8263,3.829,3.829,3.8143,3.7849,3.7555,3.7072,3.651,3.5936,3.5178,3.4241,3.3434,3.3297,3.3797,3.1808,3.1261,3.1676,3.0618,2.9945,2.9717,2.9443,2.8879,2.8309,2.9699,2.9593,2.8869,3.0999,3.1416,3.1038,0.0,0.0,0.0,0.0,0.0,0.0,0.0,0.0,0.0,0.0,0.0,0.0,0.0,0.0,0.0,0.0,0.0,0.0,1.2971,1.2878,1.2991,1.3347,1.3346,1.3418,1.3397,1.3512,1.3657,1.3734,1.3851,1.4053,1.4256,1.4368,1.4458,1.4534,1.4534,1.4776,1.5082,1.4916,1.4822,1.4849,0.0,1.4434,1.3769,0.0,0.0,0.0,0.0,0.0,0.0,0.0,0.0,0.0,0.0,0.0,2.6807,0.0,0.0,3.2439,3.3834,3.5126,3.638,3.7261,3.7595,3.7702,3.7702,3.7382,3.6874,3.6299,3.5364,3.4563,0.0,0.0,0.0,3.5231,3.6166,0.0,3.7529,3.7595,0.0,0.0,0.0,3.7595,3.7595,3.7662,0.0,0.0,3.8223,3.837,3.8584,3.8611,3.8477,3.8143,3.7633,3.7133,3.6823,3.6008,3.504,3.3971,3.4237,3.3646,3.2601,3.2097,3.1642,3.1142,3.0821,3.0679,3.0597,3.0341,2.9979,2.9712,2.9765,2.9542,2.9276,3.0291,3.0493,3.038,0.0,0.0,0.0,0.0,0.0,0.0,0.0,0.0,0.0,0.0,0.0,0.0,0.0,0.0,0.0,0.0,0.0,0.0,0.0,1.2758,1.2738,1.3134,1.2845,1.2705,1.2786,1.2868,1.2942,1.3003,1.3091,1.3234,1.3431,1.3512,1.3587,1.3648,1.3648,1.3816,1.4063,1.3902,0.0,0.0,0.0,0.0,0.0,0.0,0.0,0.0,0.0,0.0,0.0,0.0,0.0,2.274,2.4598,2.7145,2.9624,3.0947,0.0,3.4376,3.5471,3.6393,3.7195,3.7702,3.7809,3.7676,3.7168,3.6687,3.6126,3.5284,3.4376,0.0,0.0,0.0,0.0,0.0,0.0,0.0,3.7742,3.7929,3.7996,0.0,3.8143,0.0,3.821,3.8317,3.8464,0.0,3.8544,3.8584,3.8905,3.9052,3.8921,3.8502,3.7903,3.7012,3.6143,3.5396,3.4656,3.3887,3.4085,3.3702,3.2846,3.1844,3.1341,3.0985,0.0,2.9749,2.9845,2.9808,2.9614,2.9244,2.9411,2.9124,2.8677,2.9384,2.944,2.9224,0.0,0.0,0.0,0.0,0.0,0.0,0.0,0.0,0.0,0.0,0.0,0.0,0.0,0.0,0.0,0.0,0.0,0.0,0.0,0.0,1.267,1.3037,1.2524,1.223,1.223,1.225,1.2318,1.244,1.244,1.2644,1.3024,1.3024,1.3098,1.3227,1.3247,0.0,0.0,0.0,0.0,0.0,0.0,0.0,0.0,0.0,0.0,0.0,0.0,0.0,0.0,0.0,2.285,2.4979,2.7514,3.0013,3.2307,3.3327,3.4629,3.5872,3.6473,3.7195,3.7809,3.7849,3.7769,3.7296,3.6273,3.5645,3.5072,3.4002,0.0,0.0,3.2545,3.3213,3.4042,3.471,0.0,3.7155,3.7849,3.8183,3.837,3.837,3.8651,3.8838,3.8838,3.9052,3.9225,3.9225,3.8895,3.8881,3.8977,3.9216,3.9005,3.8397,3.7879,3.6768,3.5098,3.4475,3.4088,3.3787,3.3533,3.3479,3.3408,3.1465,3.0699,3.0967,0.0,0.0,2.8673,2.8883,2.8677,2.8303,2.8928,2.8617,2.7933,2.8524,2.8423,2.7976,0.0,0.0,0.0,0.0,0.0,0.0,0.0,0.0,0.0,0.0,0.0,0.0,0.0,0.0,0.0,0.0,0.0,0.0,0.0,0.0,0.0,1.2345,1.2056,1.1911,1.1911,1.2033,0.0,0.0,0.0,1.2176,1.2257,1.2257,1.2271,1.2298,0.0,0.0,0.0,0.0,0.0,0.0,0.0,0.0,0.0,0.0,0.0,0.0,0.0,0.0,0.0,0.0,2.3863,2.6062,2.8747,3.1236,3.3327,3.4282,3.5391,3.6473,3.7061,3.7529,3.7889,3.8116,3.7284,3.6308,3.5804,3.4874,0.0,0.0,0.0,3.2532,3.2238,3.2893,3.3855,3.495,0.0,0.0,0.0,0.0,3.9012,0.0,0.0,0.0,0.0,0.0,0.0,0.0,0.0,3.8885,3.8702,3.8227,3.7669,3.7097,3.6759,3.6069,3.5058,3.4724,3.4281,3.3787,3.3726,3.2999,3.1635,3.1113,3.0544,2.9904,2.9322,0.0,2.976,2.9382,2.9236,2.9376,2.9119,2.8668,2.8363,2.8317,2.7917,2.7366,0.0,0.0,0.0,0.0,0.0,0.0,0.0,0.0,0.0,0.0,0.0,0.0,0.0,0.0,0.0,0.0,0.0,0.0,0.0,0.0,0.0,0.0,0.0,0.0,0.0,0.0,0.0,0.0,0.0,0.0,0.0,0.0,0.0,0.0,0.0,0.0,0.0,0.0,0.0,0.0,0.0,0.0,0.0,0.0,0.0,0.0,0.0,0.0,0.0,0.0,2.4749,2.7759,3.0518,3.2585,3.4322,3.5364,3.6179,3.6861,3.7448,3.7702,3.7722,3.7641,3.6801,3.5785,3.4755,0.0,0.0,0.0,0.0,3.2051,3.1904,3.2719,0.0,0.0,0.0,0.0,0.0,0.0,0.0,0.0,0.0,0.0,0.0,0.0,0.0,0.0,0.0,3.842,3.8883,3.8013,3.7314,3.6936,3.644,3.5943,3.5187,3.4701,3.425,3.3737,3.3263,3.2536,3.1578,3.0856,3.0429,3.0182,2.962,0.0,3.0082,2.976,2.9574,2.9461,2.9141,2.8754,2.842,2.818,2.79,2.7341,0.0,0.0,0.0,0.0,0.0,0.0,0.0,0.0,0.0,0.0,0.0,0.0,0.0,0.0,0.0,0.0,0.0,0.0,0.0,0.0,0.0,0.0,0.0,0.0,0.0,0.0,0.0,0.0,0.0,0.0,0.0,0.0,0.0,0.0,0.0,0.0,0.0,0.0,0.0,0.0,0.0,0.0,0.0,0.0,0.0,0.0,0.0,0.0,0.0,0.0,2.5259,2.8749,3.1243,3.3241,3.4857,3.5658,3.6351,3.6937,3.7389,3.745,3.7363,3.6719,3.6118,3.5244,3.3654,3.307,0.0,0.0,3.1664,3.1664,3.1664,3.2425,3.312,0.0,3.4442,0.0,0.0,0.0,0.0,0.0,0.0,0.0,0.0,0.0,0.0,0.0,0.0,0.0,3.8057,3.7395,3.6821,3.6626,3.6055,3.5573,3.5226,3.4559,3.404,3.3641,3.2689,3.2103,3.1693,3.0756,3.0432,3.0673,3.0039,0.0,0.0,3.0105,2.9868,2.9426,2.9211,2.8888,2.8544,2.7984,2.7674,2.7155,0.0,0.0,0.0,0.0,0.0,0.0,0.0,0.0,0.0,0.0,0.0,0.0,0.0,0.0,0.0,0.0,0.0,0.0,0.0,0.0,0.0,0.0,0.0,0.0,0.0,0.0,0.0,0.0,0.0,0.0,0.0,0.0,0.0,0.0,0.0,0.0,0.0,0.0,0.0,0.0,0.0,0.0,0.0,0.0,0.0,0.0,0.0,0.0,0.0,0.0,0.0,2.7585,2.9466,3.2084,3.4273,3.3965,0.0,0.0,3.6341,3.6426,3.6471,3.5515,3.4701,3.3876,3.3162,0.0,0.0,3.1755,3.1664,3.1664,3.1664,3.1757,3.2171,0.0,0.0,3.4629,0.0,0.0,0.0,0.0,0.0,0.0,0.0,0.0,0.0,0.0,0.0,0.0,3.5029,3.4952,3.4817,3.4794,3.4564,3.4554,3.4901,3.3936,3.3555,3.3641,3.2689,3.185,3.102,3.0543,3.0276,3.0366,3.0336,0.0,0.0,3.0174,3.0082,2.9975,2.9426,2.9211,2.8963,2.7642,2.6907,2.6226,0.0,0.0,0.0,0.0,0.0,0.0,0.0,0.0,0.0,0.0,0.0,0.0,0.0,0.0,0.0,0.0,0.0,0.0,0.0,0.0,0.0,0.0,0.0,0.0,0.0,0.0,0.0,0.0,0.0,0.0,0.0,0.0,0.0,0.0,0.0,0.0,0.0,0.0,0.0,0.0,0.0,0.0,0.0,0.0,0.0,0.0,0.0,0.0,0.0,0.0,0.0,0.0,2.7409,2.9728,0.0,0.0,3.3758,3.4471,3.5133,3.5442,3.531,3.4817,3.4183,3.3409,3.2249,0.0,0.0,3.1238,3.1202,3.1244,3.1342,3.1543,3.1757,3.2051,3.2492,0.0,3.4963,0.0,0.0,0.0,0.0,0.0,0.0,0.0,0.0,0.0,0.0,0.0,3.3459,3.42,3.4817,3.5187,3.4943,3.5051,3.5406,3.4426,3.3755,3.3278,3.2305,3.1341,3.0655,3.0187,3.0117,3.0299,3.0153,0.0,0.0,2.997,2.9319,2.8878,2.8015,2.7259,2.6491,2.5969,2.5527,2.5088,0.0,0.0,0.0,0.0,0.0,0.0,0.0,0.0,0.0,0.0,0.0,0.0,0.0,0.0,0.0,0.0,0.0,0.0,0.0,0.0,0.0,0.0,0.0,0.0,0.0,0.0,0.0,0.0,0.0,0.0,0.0,0.0,0.0,0.0,0.0,0.0,0.0,0.0,0.0,0.0,0.0,0.0,0.0,0.0,0.0,0.0,0.0,0.0,0.0,0.0,0.0,0.0,0.0,0.0,0.0,0.0,3.2442,3.2968,3.3948,3.414,3.4061,3.3542,3.3185,3.2612,0.0,0.0,3.1017,3.0912,3.1011,3.1231,3.1302,3.1383,3.1396,3.1356,3.1704,3.2492,3.3988,0.0,0.0,0.0,0.0,0.0,0.0,0.0,0.0,0.0,0.0,0.0,0.0,3.3717,3.4571,3.4952,3.4943,3.5063,3.5538,3.4558,3.3813,3.331,3.199,3.1177,3.0703,3.009,3.0013,3.0421,0.0,0.0,0.0,2.9344,2.8447,2.7907,2.661,2.5634,2.4882,2.4446,2.4245,2.389,0.0,0.0,0.0,0.0,0.0,0.0,0.0,0.0,0.0,0.0,0.0,0.0,0.0,0.0,0.0,0.0,0.0,0.0,0.0,0.0,0.0,0.0,0.0,0.0,0.0,0.0,0.0,0.0,0.0,0.0,0.0,0.0,0.0,0.0,0.0,0.0,0.0,0.0,0.0,0.0,0.0,0.0,0.0,0.0,0.0,0.0,0.0,0.0,0.0,0.0,0.0,0.0,0.0,0.0,2.8634,0.0,3.1725,3.3018,3.2711,3.2659,3.2467,3.168,3.1426,3.1284,0.0,0.0,3.1255,3.0968,3.1284,3.1664,3.1664,3.1196,3.0996,3.157,3.1664,3.2198,3.3681,3.4643,0.0,0.0,0.0,0.0,0.0,0.0,0.0,0.0,0.0,0.0,0.0,3.3222,3.3594,3.3594,3.3963,3.4456,3.4804,3.384,3.3586,3.4017,3.2212,3.1397,3.1397,3.0328,3.0111,0.0,0.0,0.0,0.0,2.8435,2.7486,2.7378,2.5643,2.4882,2.4773,2.3574,2.3137,2.2909,0.0,0.0,0.0,0.0,0.0,0.0,0.0,0.0,0.0,0.0,0.0,0.0,0.0,0.0,0.0,0.0,0.0,0.0,0.0,0.0,0.0,0.0,0.0,0.0,0.0,0.0,0.0,0.0,0.0,0.0,0.0,0.0,0.0,0.0,0.0,0.0,0.0,0.0,0.0,0.0,0.0,0.0,0.0,0.0,0.0,0.0,0.0,0.0,0.0,0.0,0.0,0.0,0.0,0.0,0.0,2.8676,0.0,0.0,3.1177,3.1225,3.1019,3.0424,3.0279,3.0213,2.9578,0.0,3.0278,3.0383,3.0808,3.1231,3.1316,3.1049,3.0915,3.1303,3.137,3.181,0.0,0.0,0.0,0.0,0.0,0.0,0.0,0.0,0.0,0.0,0.0,0.0,0.0,3.3595,3.3963,3.3963,3.4456,3.4804,3.5155,3.4276,3.3627,3.331,3.199,3.1177,3.0703,3.009,0.0,0.0,0.0,0.0,0.0,2.7721,2.6315,2.4972,2.4001,2.3137,2.2489,2.2034,2.1932,2.1823,0.0,0.0,0.0,0.0,0.0,0.0,0.0,0.0,0.0,0.0,0.0,0.0,0.0,0.0,0.0,0.0,0.0,0.0,0.0,0.0,0.0,0.0,0.0,0.0,0.0,0.0,0.0,0.0,0.0,0.0,0.0,0.0,0.0,0.0,0.0,0.0,0.0,0.0,0.0,0.0,0.0,0.0,0.0,0.0,0.0,0.0,0.0,0.0,0.0,0.0,0.0,0.0,0.0,0.0,0.0,0.0,0.0,0.0,0.0,3.0317,2.9922,2.9722,2.9276,0.0,0.0,0.0,2.9477,2.9783,3.0236,3.0661,3.1046,3.0876,3.0836,3.1102,3.141,0.0,0.0,0.0,0.0,0.0,0.0,0.0,0.0,0.0,0.0,0.0,0.0,0.0,0.0,3.3839,3.4247,3.4306,3.4746,3.5179,3.538,3.4501,3.3735,3.329,3.2051,3.0901,2.9995,2.9373,0.0,0.0,0.0,0.0,0.0,2.6263,2.4942,2.3874,2.2581,2.1705,2.1063,2.0827,2.0733,2.0623,0.0,0.0,0.0,0.0,0.0,0.0,0.0,0.0,0.0,0.0,0.0,0.0,0.0,0.0,0.0,0.0,0.0,0.0,0.0,0.0,0.0,0.0,0.0,0.0,0.0,0.0,0.0,0.0,1.3786,1.416,1.4676,0.0,0.0,0.0,0.0,0.0,0.0,0.0,0.0,0.0,0.0,0.0,0.0,0.0,0.0,0.0,0.0,0.0,0.0,0.0,0.0,0.0,0.0,0.0,0.0,0.0,0.0,0.0,0.0,0.0,0.0,0.0,0.0,0.0,0.0,0.0,0.0,2.9255,2.9829,3.0319,3.0808,3.0681,3.0674,3.1129,0.0,0.0,0.0,0.0,0.0,0.0,0.0,0.0,0.0,0.0,0.0,0.0,0.0,0.0,0.0,3.3816,3.4173,3.4298,3.4762,3.513,3.5344,3.4276,3.3665,3.342,3.1867,3.0342,2.8958,2.8149,0.0,0.0,0.0,0.0,0.0,2.4411,2.355,2.3574,2.1274,2.0395,2.0395,1.986,1.9632,1.9632,0.0,0.0,0.0,0.0,0.0,0.0,0.0,0.0,0.0,0.0,0.0,0.0,0.0,0.0,0.0,0.0,0.0,0.0,0.0,0.0,0.0,0.0,0.0,0.0,0.0,0.0,0.0,1.4219,1.4571,1.4547,1.431,1.4745,0.0,0.0,0.0,0.0,0.0,0.0,0.0,0.0,0.0,0.0,0.0,0.0,0.0,0.0,0.0,0.0,0.0,0.0,0.0,0.0,0.0,0.0,0.0,0.0,0.0,0.0,0.0,0.0,0.0,0.0,0.0,0.0,0.0,0.0,0.0,0.0,0.0,3.0713,3.0916,3.0965,3.1049,0.0,0.0,0.0,0.0,0.0,0.0,0.0,0.0,0.0,0.0,0.0,0.0,0.0,0.0,0.0,0.0,3.3616,3.3508,3.3425,3.2562,3.2906,3.4335,3.214,3.1052,3.0826,2.8819,2.7571,2.7115,2.6673,0.0,0.0,0.0,0.0,2.47,2.3501,2.2427,2.146,2.0229,1.986,1.975,1.9632,1.9632,1.9515,0.0,0.0,0.0,0.0,0.0,0.0,0.0,0.0,0.0,0.0,0.0,0.0,0.0,0.0,0.0,0.0,0.0,0.0,0.0,0.0,0.0,0.0,0.0,0.0,0.0,0.0,0.0,0.0,0.0,1.499,0.0,0.0,0.0,0.0,0.0,0.0,0.0,0.0,0.0,0.0,0.0,0.0,0.0,0.0,0.0,0.0,0.0,0.0,0.0,2.2797,2.3419,2.3913,0.0,0.0,0.0,0.0,0.0,0.0,0.0,0.0,0.0,0.0,0.0,0.0,0.0,0.0,0.0,0.0,0.0,3.0236,3.0522,3.089,0.0,0.0,0.0,0.0,0.0,0.0,0.0,0.0,0.0,0.0,0.0,0.0,0.0,0.0,0.0,0.0,0.0,3.3052,3.2742,3.227,3.13,3.1419,3.272,3.0343,2.9114,2.8901,2.7397,2.6257,2.5475,2.5012,2.4526,0.0,0.0,0.0,2.2163,2.1727,2.1103,2.021,1.9441,1.9192,1.9192,1.8964,1.8853,1.8736,0.0,0.0,0.0,0.0,0.0,0.0,0.0,0.0,0.0,0.0,0.0,0.0,0.0,0.0,0.0,0.0,0.0,0.0,0.0,0.0,0.0,0.0,0.0,0.0,0.0,0.0,0.0,0.0,0.0,0.0,0.0,0.0,0.0,0.0,0.0,0.0,0.0,0.0,0.0,0.0,0.0,0.0,0.0,0.0,0.0,0.0,0.0,0.0,0.0,2.2956,2.3294,2.34,2.3844,0.0,0.0,0.0,0.0,0.0,0.0,0.0,0.0,0.0,0.0,0.0,0.0,0.0,0.0,0.0,0.0,0.0,3.0179,3.0915,0.0,0.0,0.0,0.0,0.0,0.0,0.0,0.0,0.0,0.0,0.0,0.0,0.0,0.0,0.0,0.0,0.0,3.2234,3.1625,3.0815,2.9714,2.9456,3.004,2.8307,2.7276,2.7028,2.6159,2.4934,2.3705,2.3245,2.2325,0.0,0.0,0.0,2.0117,1.9982,1.9804,1.9441,1.8868,1.853,1.853,1.8088,1.786,1.786,0.0,0.0,0.0,0.0,0.0,0.0,0.0,0.0,0.0,0.0,0.0,0.0,0.0,0.0,0.0,0.0,0.0,0.0,0.0,0.0,0.0,0.0,0.0,0.0,0.0,0.0,0.0,0.0,0.0,0.0,1.5691,1.532,1.4601,0.0,0.0,0.0,0.0,0.0,0.0,0.0,0.0,0.0,0.0,0.0,0.0,0.0,0.0,0.0,0.0,2.2487,2.2486,2.2346,2.3329,0.0,0.0,0.0,0.0,0.0,2.214,2.2562,2.3486,2.5177,2.581,2.6098,0.0,0.0,0.0,0.0,0.0,0.0,0.0,3.1794,0.0,0.0,0.0,0.0,0.0,0.0,0.0,0.0,0.0,0.0,0.0,0.0,0.0,0.0,0.0,0.0,0.0,3.0725,2.9418,2.8802,2.5868,2.4461,2.4461,2.4783,2.4728,2.4264,2.2624,2.1588,2.1187,2.1064,2.0887,0.0,0.0,2.0296,2.0117,1.94,1.9097,1.904,1.835,1.7977,1.7977,1.7977,1.786,1.786,0.0,0.0,0.0,0.0,0.0,0.0,0.0,0.0,0.0,0.0,0.0,0.0,0.0,0.0,0.0,0.0,0.0,0.0,0.0,0.0,0.0,0.0,0.0,0.0,0.0,0.0,0.0,0.0,0.0,1.606,1.6071,1.5211,1.4527,1.4196,0.0,0.0,0.0,0.0,0.0,0.0,0.0,0.0,0.0,0.0,0.0,0.0,0.0,0.0,0.0,0.0,2.251,2.22,2.2727,0.0,0.0,0.0,0.0,0.0,2.1303,2.1781,2.2463,2.3614,2.4657,2.5622,0.0,0.0,0.0,0.0,0.0,0.0,0.0,0.0,0.0,0.0,0.0,0.0,0.0,0.0,0.0,0.0,0.0,0.0,0.0,0.0,0.0,0.0,0.0,0.0,0.0,0.0,2.6741,2.5799,2.4171,2.2957,2.2156,2.2071,2.2056,2.2133,2.1224,2.0683,2.0601,2.0166,1.9971,1.9898,0.0,1.9234,1.9085,1.8671,1.8482,1.8406,1.7998,1.7749,1.7424,1.708,1.7086,1.7424,0.0,0.0,0.0,0.0,0.0,0.0,0.0,0.0,0.0,0.0,0.0,0.0,0.0,0.0,0.0,0.0,0.0,0.0,0.0,0.0,0.0,0.0,0.0,0.0,0.0,0.0,1.5804,1.6188,1.6519,1.6388,1.6022,1.5205,1.4722,0.0,0.0,0.0,0.0,0.0,0.0,0.0,0.0,0.0,0.0,0.0,0.0,0.0,0.0,0.0,0.0,0.0,0.0,0.0,0.0,0.0,0.0,2.169,2.108,2.051,2.1214,2.1491,2.1776,2.2152,2.3742,2.5343,0.0,0.0,0.0,0.0,0.0,0.0,0.0,0.0,0.0,0.0,0.0,0.0,0.0,0.0,0.0,0.0,0.0,0.0,0.0,0.0,0.0,0.0,0.0,0.0,0.0,0.0,2.4202,2.3198,2.2671,2.1784,2.0583,2.0064,1.9992,2.0678,2.032,2.0124,2.0088,1.9498,1.9284,1.9099,1.8534,1.8179,1.8036,1.8036,1.7857,1.7639,1.7639,1.7307,1.6754,1.6317,1.6434,1.6754,0.0,0.0,0.0,0.0,0.0,0.0,0.0,0.0,0.0,0.0,0.0,0.0,0.0,0.0,0.0,0.0,0.0,0.0,0.0,0.0,0.0,0.0,0.0,0.0,0.0,1.5658,1.6336,1.7459,1.6873,1.6173,1.5302,1.5491,1.5059,1.4196,0.0,0.0,0.0,0.0,0.0,0.0,0.0,0.0,0.0,0.0,0.0,0.0,0.0,0.0,0.0,0.0,0.0,0.0,0.0,0.0,2.2246,2.2239,2.1433,2.0774,2.1625,2.1375,2.1037,2.164,2.3847,2.5931,2.6265,2.8222,0.0,3.1008,0.0,0.0,0.0,0.0,0.0,0.0,0.0,0.0,0.0,0.0,0.0,0.0,0.0,0.0,0.0,0.0,0.0,0.0,0.0,0.0,0.0,0.0,0.0,2.2424,2.0483,1.9392,1.9131,1.8967,1.924,1.982,1.9219,1.8796,1.8667,1.8646,1.8489,1.8243,1.8111,1.8023,1.788,1.788,1.7542,1.7099,1.7099,1.6643,1.6206,1.6089,1.6096,1.6206,0.0,0.0,0.0,0.0,0.0,0.0,0.0,0.0,0.0,0.0,0.0,0.0,0.0,0.0,0.0,0.0,0.0,0.0,0.0,0.0,0.0,0.0,0.0,1.5051,1.5272,1.579,1.642,1.7169,1.6621,1.6019,1.5528,1.5381,0.0,0.0,0.0,0.0,0.0,0.0,0.0,0.0,0.0,0.0,0.0,0.0,0.0,0.0,0.0,0.0,0.0,0.0,2.1684,2.1451,2.1459,2.1677,2.1905,2.1762,2.1464,2.1165,2.0639,2.1017,2.1451,2.1308,2.3461,2.5755,0.0,2.7968,3.0021,3.1139,3.1743,0.0,0.0,0.0,0.0,0.0,0.0,0.0,0.0,0.0,0.0,0.0,0.0,0.0,0.0,0.0,0.0,0.0,0.0,0.0,0.0,0.0,0.0,2.0508,1.9642,1.9128,1.8993,1.883,1.8885,1.9103,1.8885,1.8674,1.8531,1.8443,1.8287,1.8091,1.7989,1.7706,1.7314,1.7314,1.6988,1.6434,1.5979,1.5979,1.5979,1.5313,1.5202,1.5541,0.0,0.0,0.0,0.0,0.0,0.0,0.0,0.0,0.0,0.0,0.0,0.0,0.0,0.0,0.0,0.0,0.0,0.0,0.0,0.0,0.0,0.0,0.0,1.4859,1.5202,1.5653,1.6247,1.7001,1.6669,1.6233,1.5594,0.0,0.0,0.0,0.0,0.0,0.0,0.0,0.0,0.0,0.0,0.0,0.0,0.0,0.0,0.0,0.0,0.0,0.0,0.0,2.1457,2.1426,2.1484,2.1777,2.2029,2.1869,2.1477,2.0968,2.0488,2.0828,2.1253,2.1375,2.3571,2.5744,2.6318,2.7838,2.9617,3.1121,3.1449,0.0,0.0,0.0,0.0,0.0,0.0,0.0,0.0,0.0,0.0,0.0,0.0,0.0,0.0,0.0,0.0,0.0,0.0,0.0,0.0,0.0,0.0,0.0,1.9257,1.9081,1.885,1.8742,1.8674,1.862,1.862,1.8565,1.8464,1.8321,1.8158,1.8023,1.7686,1.7424,1.6988,1.676,1.6317,1.5751,1.5197,1.5197,1.5424,1.4647,1.432,1.4309,0.0,0.0,0.0,0.0,0.0,0.0,0.0,0.0,0.0,0.0,0.0,0.0,0.0,0.0,0.0,0.0,0.0,0.0,0.0,0.0,0.0,0.0,0.0,1.503,1.5365,1.5103,1.5667,1.7172,1.7204,1.6546,1.5371,1.5505,0.0,0.0,0.0,0.0,0.0,0.0,0.0,0.0,0.0,0.0,0.0,0.0,0.0,0.0,0.0,0.0,0.0,0.0,2.1838,2.1135,2.2542,2.288,2.274,2.2889,2.1521,2.0166,2.1512,2.0818,2.0211,2.2133,2.4273,0.0,2.7171,2.8102,2.9203,3.0889,0.0,0.0,0.0,0.0,0.0,0.0,0.0,0.0,0.0,0.0,0.0,0.0,0.0,0.0,0.0,0.0,0.0,0.0,0.0,0.0,0.0,0.0,0.0,0.0,1.9203,1.8993,1.8531,1.8531,1.8464,1.8321,1.8321,1.8321,1.8321,1.8158,1.8002,1.786,1.7197,1.6988,1.6982,1.6317,1.5751,1.5086,1.4547,1.432,1.432,1.432,1.3541,1.2423,0.0,0.0,0.0,0.0,0.0,0.0,0.0,0.0,0.0,0.0,0.0,0.0,0.0,0.0,0.0,0.0,0.0,0.0,0.0,0.0,0.0,0.0,0.0,0.0,0.0,0.0,1.4764,1.5611,1.5659,1.5647,0.0,0.0,0.0,1.6486,0.0,0.0,0.0,0.0,0.0,0.0,0.0,0.0,0.0,0.0,0.0,0.0,0.0,0.0,0.0,0.0,0.0,0.0,1.9777,2.095,2.2127,2.1272,2.1734,2.245,2.1625,2.1331,2.1308,2.2043,0.0,0.0,0.0,2.7545,0.0,0.0,0.0,0.0,0.0,0.0,0.0,0.0,0.0,0.0,0.0,0.0,0.0,0.0,0.0,0.0,0.0,0.0,0.0,0.0,0.0,0.0,0.0,0.0,0.0,0.0,1.9203,1.8993,1.8531,1.8531,1.8464,1.8321,1.7749,1.7702,1.8158,1.7663,1.7445,1.7197,1.6643,1.6096,1.564,1.5103,1.4208,1.3314,1.3091,1.2534,1.1759,1.1759,1.1304,1.0627,0.0,0.0,0.0,0.0,0.0,0.0,0.0,0.0,0.0,0.0,0.0,0.0,0.0,0.0,0.0,0.0,0.0,0.0,0.0,0.0,0.0,0.0,0.0,0.0,0.0,1.4174,1.4516,0.0,0.0,0.0,0.0,0.0,0.0,1.7355,0.0,1.8822,0.0,0.0,0.0,0.0,0.0,0.0,0.0,0.0,0.0,0.0,0.0,0.0,0.0,0.0,0.0,0.0,1.8986,1.9959,2.0939,2.0113,2.0667,2.1431,2.0783,2.0943,2.1386,2.2145,2.3294,2.4358,2.4808,0.0,0.0,0.0,0.0,0.0,0.0,0.0,0.0,0.0,0.0,0.0,0.0,0.0,0.0,0.0,0.0,0.0,0.0,0.0,0.0,0.0,0.0,0.0,0.0,0.0,0.0,0.0,1.9094,1.883,1.8443,1.8389,1.8167,1.7795,1.738,1.7216,1.7327,1.6875,1.6725,1.6643,1.5979,1.5424,1.4758,1.3981,1.3202,1.2423,1.1982,1.1304,1.0639,1.0416,0.985,0.9072,0.0,0.0,0.0,0.0,0.0,0.0,0.0,0.0,0.0,0.0,0.0,0.0,0.0,0.0,0.0,0.0,0.0,0.0,0.0,0.0,0.0,0.0,0.0,0.0,0.0,0.0,0.0,0.0,0.0,0.0,0.0,0.0,1.7053,1.8332,0.0,1.9822,0.0,0.0,0.0,0.0,0.0,0.0,0.0,0.0,0.0,0.0,0.0,0.0,0.0,0.0,0.0,0.0,1.9133,1.9379,1.9428,1.9373,1.9021,1.8832,1.9806,2.0196,2.0762,2.2379,2.346,0.0,2.2847,2.5035,2.652,0.0,0.0,0.0,0.0,0.0,0.0,0.0,0.0,0.0,0.0,0.0,0.0,0.0,0.0,0.0,0.0,0.0,0.0,0.0,0.0,0.0,0.0,0.0,0.0,1.9064,1.8898,1.8504,1.8088,1.7947,1.7577,1.6871,1.6871,1.6545,1.5979,1.5979,1.5979,1.5868,1.5313,1.4758,1.4092,1.2975,1.2312,1.1973,1.0867,1.0412,1.0189,0.9627,0.8734,0.7616,0.0,0.0,0.0,0.0,0.0,0.0,0.0,0.0,0.0,0.0,0.0,0.0,0.0,0.0,0.0,0.0,0.0,0.0,0.0,0.0,0.0,0.0,0.0,0.0,0.0,0.0,0.0,0.0,0.0,0.0,0.0,0.0,0.0,1.7691,0.0,2.0217,0.0,0.0,0.0,0.0,0.0,0.0,0.0,0.0,0.0,0.0,0.0,0.0,0.0,0.0,0.0,0.0,1.7521,1.8287,1.9129,1.9379,2.0471,2.1639,2.2368,2.1961,2.1559,2.2538,2.2852,2.2735,2.1952,2.2373,2.28,0.0,0.0,0.0,0.0,0.0,0.0,0.0,0.0,0.0,0.0,0.0,0.0,0.0,0.0,0.0,0.0,0.0,0.0,0.0,0.0,0.0,0.0,0.0,0.0,1.8333,1.8144,1.7691,1.6953,1.6803,1.6559,0.0,1.5862,1.5541,1.5424,1.5424,1.5086,1.4647,1.4547,1.387,1.2873,1.2651,1.1193,0.9072,0.8734,0.7843,0.65,0.6388,0.5943,0.5271,0.0,0.0,0.0,0.0,0.0,0.0,0.0,0.0,0.0,0.0,0.0,0.0,0.0,0.0,0.0,0.0,0.0,0.0,0.0,0.0,0.0,0.0,0.0,0.0,0.0,0.0,0.0,0.0,0.0,0.0,0.0,0.0,0.0,1.7784,0.0,1.9864,0.0,0.0,0.0,0.0,0.0,0.0,0.0,0.0,0.0,0.0,0.0,0.0,0.0,0.0,0.0,0.0,0.0,0.0,1.8075,1.8139,1.9414,2.0796,2.0881,2.1236,2.1646,2.1922,0.0,2.1639,2.0652,2.0385,2.0314,0.0,0.0,0.0,0.0,0.0,0.0,0.0,0.0,0.0,0.0,0.0,0.0,0.0,0.0,0.0,0.0,0.0,0.0,0.0,0.0,0.0,0.0,1.9126,1.8589,1.8059,1.7498,1.6952,1.6395,1.6267,1.6058,1.564,1.5313,1.5086,1.4758,1.4758,1.4097,1.2975,1.2975,1.2196,1.0743,1.0189,0.9072,0.7616,0.7063,0.6274,0.5383,0.5045,0.4826,0.4488,0.0,0.0,0.0,0.0,0.0,0.0,0.0,0.0,0.0,0.0,0.0,0.0,0.0,0.0,0.0,0.0,0.0,0.0,0.0,0.0,0.0,0.0,0.0,0.0,0.0,0.0,0.0,0.0,0.0,0.0,0.0,0.0,0.0,1.7652,0.0,0.0,0.0,0.0,0.0,0.0,0.0,0.0,0.0,0.0,0.0,0.0,0.0,0.0,0.0,0.0,0.0,0.0,0.0,0.0,1.7342,1.7541,1.8487,1.9454,1.9132,2.0281,2.1454,2.0848,2.074,0.0,1.9641,1.9115,1.8796,0.0,0.0,0.0,0.0,0.0,0.0,0.0,0.0,0.0,0.0,0.0,0.0,0.0,0.0,0.0,0.0,0.0,0.0,0.0,0.0,0.0,1.9359,1.8622,1.8058,1.7685,1.6819,1.6175,1.5966,1.5829,1.5541,1.5086,1.4875,1.442,1.387,1.3652,1.2864,1.1634,1.1407,1.0293,0.8622,0.7616,0.7055,0.6612,0.5607,0.5157,0.5045,0.4488,0.4376,0.4264,0.0,0.0,0.0,0.0,0.0,0.0,0.0,0.0,0.0,0.0,0.0,0.0,0.0,0.0,0.0,0.0,0.0,0.0,0.0,0.0,0.0,0.0,0.0,0.0,0.0,0.0,0.0,0.0,0.0,0.0,0.0,0.0,0.0,1.6467,0.0,0.0,0.0,0.0,0.0,0.0,0.0,0.0,0.0,0.0,0.0,0.0,0.0,0.0,0.0,0.0,0.0,0.0,0.0,0.0,0.0,2.0221,2.0881,2.119,2.1996,2.1857,2.1138,1.9916,1.9537,1.949,0.0,0.0,1.8762,0.0,0.0,0.0,0.0,0.0,0.0,0.0,0.0,0.0,0.0,0.0,0.0,0.0,0.0,0.0,0.0,0.0,0.0,0.0,0.0,0.0,1.9061,1.832,1.7568,1.6846,1.6009,1.5309,1.4735,1.4603,1.4547,1.4436,1.3319,1.2534,1.1973,1.0966,1.0854,1.1518,1.0516,0.9072,0.7393,0.7281,0.6274,0.4826,0.4712,0.4264,0.3815,0.3702,0.3702,0.3702,0.0,0.0,0.0,0.0,0.0,0.0,0.0,0.0,0.0,0.0,0.0,0.0,0.0,0.0,0.0,0.0,0.0,0.0,0.0,0.0,0.0,0.0,0.0,0.0,0.0,0.0,0.0,0.0,0.0,0.0,0.0,1.5695,1.5901,0.0,0.0,0.0,0.0,0.0,0.0,0.0,0.0,0.0,0.0,0.0,0.0,0.0,0.0,0.0,0.0,0.0,0.0,0.0,0.0,0.0,0.0,0.0,2.0988,2.1522,2.1676,2.0922,1.9855,1.9011,1.8892,1.8937,1.8913,0.0,1.8654,0.0,0.0,0.0,0.0,0.0,0.0,0.0,0.0,0.0,0.0,0.0,0.0,0.0,0.0,0.0,0.0,0.0,0.0,0.0,1.9305,1.9098,1.8523,1.7787,1.6926,1.6127,1.5265,1.4691,1.4407,1.4347,1.3981,1.3314,1.1746,1.0854,1.0627,0.9072,0.8507,0.8622,0.806,0.6831,0.5157,0.5157,0.4709,0.4039,0.4039,0.3815,0.3589,0.3589,0.3589,0.3589,0.0,0.0,0.0,0.0,0.0,0.0,0.0,0.0,0.0,0.0,0.0,0.0,0.0,0.0,0.0,0.0,0.0,0.0,0.0,0.0,0.0,0.0,0.0,0.0,0.0,0.0,0.0,0.0,0.0,0.0,1.5201,1.5459,1.5774,0.0,1.5423,0.0,0.0,0.0,0.0,0.0,0.0,0.0,0.0,0.0,0.0,0.0,0.0,0.0,0.0,0.0,0.0,0.0,0.0,0.0,0.0,0.0,0.0,2.1284,2.0328,1.9452,1.8635,1.8099,1.8229,1.8412,0.0,0.0,0.0,0.0,0.0,0.0,0.0,0.0,0.0,0.0,0.0,0.0,0.0,0.0,0.0,0.0,0.0,0.0,0.0,0.0,0.0,0.0,1.899,1.8562,1.8059,1.7073,1.6193,1.5543,1.4864,1.4417,1.432,1.3981,1.3202,1.1982,1.0301,0.9407,0.9184,0.7393,0.6162,0.5607,0.5831,0.4933,0.3589,0.3589,0.3589,0.3589,0.3589,0.3589,0.3589,0.3589,0.3589,0.3589,0.0,0.0,0.0,0.0,0.0,0.0,0.0,0.0,0.0,0.0,0.0,0.0,0.0,0.0,0.0,0.0,0.0,0.0,0.0,0.0,0.0,0.0,0.0,0.0,0.0,0.0,0.0,0.0,0.0,0.0,1.5909,1.5967,1.6266,1.6632,1.5771,1.558,1.5975,0.0,0.0,0.0,0.0,0.0,0.0,0.0,0.0,0.0,0.0,0.0,0.0,0.0,0.0,0.0,0.0,0.0,0.0,0.0,0.0,0.0,1.8744,1.8224,1.7977,1.7371,1.7328,1.7521,0.0,0.0,0.0,0.0,0.0,0.0,0.0,0.0,0.0,0.0,0.0,0.0,0.0,0.0,0.0,0.0,0.0,0.0,0.0,0.0,0.0,0.0,1.8403,1.7904,1.7652,1.6241,1.5422,1.541,1.4731,1.432,1.432,1.3202,1.1982,1.0751,0.9072,0.7843,0.7281,0.5495,0.4264,0.3814,0.4376,0.4264,0.3589,0.3589,0.3589,0.3589,0.3589,0.3589,0.3589,0.3589,0.3589,0.3589,0.0,0.0,0.0,0.0,0.0,0.0,0.0,0.0,0.0,0.0,0.0,0.0,0.0,0.0,0.0,0.0,0.0,0.0,0.0,0.0,0.0,0.0,0.0,0.0,0.0,0.0,0.0,0.0,0.0,1.497,1.5432,1.5771,1.6022,1.6157,1.5839,1.5711,1.5636,1.5135,0.0,0.0,0.0,0.0,0.0,0.0,0.0,0.0,0.0,0.0,0.0,0.0,0.0,0.0,0.0,0.0,0.0,0.0,0.0,1.9655,1.8763,1.8135,1.7566,1.6868,1.708,1.7482,1.7472,1.7738,0.0,0.0,0.0,0.0,0.0,0.0,0.0,0.0,0.0,0.0,0.0,0.0,0.0,0.0,0.0,0.0,0.0,0.0,0.0,0.0,0.0,1.685,1.635,1.5717,1.5162,1.4837,1.4491,1.3981,1.3202,1.1193,0.9862,0.8961,0.7175,0.6057,0.5383,0.4376,0.3814,0.3589,0.3815,0.3814,0.3589,0.3589,0.3589,0.3589,0.3589,0.3589,0.3589,0.3589,0.3365,0.3029,0.0,0.0,0.0,0.0,0.0,0.0,0.0,0.0,0.0,0.0,0.0,0.0,0.0,0.0,0.0,0.0,0.0,0.0,0.0,0.0,0.0,0.0,0.0,0.0,0.0,0.0,0.0,0.0,0.0,0.0,0.0,1.5642,1.5859,1.6001,1.5852,1.5811,0.0,0.0,0.0,1.5468,0.0,0.0,1.5481,0.0,0.0,0.0,0.0,0.0,0.0,0.0,0.0,0.0,0.0,0.0,0.0,0.0,0.0,0.0,1.8294,0.0,0.0,0.0,1.6757,1.7066,1.7158,0.0,0.0,0.0,0.0,0.0,0.0,0.0,0.0,0.0,0.0,0.0,0.0,0.0,0.0,0.0,0.0,0.0,0.0,0.0,0.0,0.0,0.0,0.0,1.5526,1.518,1.4663,1.3873,1.3694,1.2878,1.1304,0.9523,0.8293,0.7513,0.5831,0.4938,0.4488,0.3927,0.3589,0.3589,0.3589,0.3589,0.3589,0.3589,0.3589,0.3589,0.3589,0.3589,0.3589,0.3365,0.3029,0.2692,0.0,0.0,0.0,0.0,0.0,0.0,0.0,0.0,0.0,0.0,0.0,0.0,0.0,0.0,0.0,0.0,0.0,0.0,0.0,0.0,0.0,0.0,0.0,0.0,0.0,0.0,0.0,0.0,0.0,0.0,0.0,0.0,1.5859,1.6266,1.5839,1.5886,1.6279,0.0,1.5893,1.5574,0.0,1.4706,1.4936,0.0,0.0,0.0,1.4801,1.4923,0.0,0.0,0.0,0.0,0.0,0.0,0.0,0.0,0.0,0.0,0.0,0.0,0.0,0.0,0.0,0.0,1.6981,0.0,0.0,0.0,0.0,0.0,0.0,0.0,0.0,0.0,0.0,0.0,0.0,0.0,0.0,0.0,0.0,0.0,0.0,0.0,0.0,0.0,1.5801,1.5393,1.5393,1.472,1.3769,1.2534,1.2423,1.1304,0.8967,0.8405,0.7398,0.6281,0.5051,0.4488,0.4488,0.3815,0.3589,0.3589,0.3589,0.3589,0.3589,0.3589,0.3589,0.3589,0.3589,0.3589,0.3477,0.2917,0.2692,0.258,0.0,0.0,0.0,0.0,0.0,0.0,0.0,0.0,0.0,0.0,0.0,0.0,1.4722,0.0,0.0,0.0,0.0,0.0,0.0,0.0,0.0,0.0,0.0,0.0,0.0,0.0,0.0,0.0,0.0,1.4882,0.0,0.0,0.0,0.0,1.575,1.5805,1.5805,1.554,0.0,0.0,1.4936,1.4923,0.0,0.0,0.0,0.0,0.0,1.52,0.0,0.0,1.5756,1.6355,0.0,0.0,0.0,0.0,0.0,0.0,1.7421,0.0,0.0,0.0,0.0,0.0,0.0,0.0,0.0,0.0,0.0,0.0,0.0,0.0,0.0,0.0,0.0,0.0,0.0,0.0,0.0,0.0,0.0,0.0,0.0,0.0,0.0,0.0,1.4948,1.482,1.526,1.5114,1.4208,1.2534,1.1643,1.0528,0.8967,0.7513,0.6393,0.5607,0.4826,0.4264,0.3815,0.3702,0.3589,0.3589,0.3589,0.3365,0.2917,0.2917,0.2917,0.2917,0.2917,0.2917,0.2917,0.2804,0.2477,0.1923,0.0,0.0,0.0,0.0,0.0,0.0,0.0,0.0,0.0,0.0,0.0,0.0,1.4557,0.0,0.0,0.0,0.0,0.0,0.0,0.0,0.0,0.0,0.0,1.4238,1.4299,1.4299,1.4401,1.4604,1.4699,1.4821,1.497,0.0,0.0,0.0,0.0,0.0,0.0,0.0,0.0,0.0,1.535,0.0,0.0,1.5234,1.5235,0.0,0.0,0.0,1.6024,1.5382,1.6092,0.0,0.0,0.0,0.0,0.0,0.0,0.0,0.0,0.0,0.0,0.0,0.0,0.0,1.5479,1.5635,1.5761,0.0,0.0,0.0,0.0,0.0,0.0,0.0,0.0,0.0,0.0,0.0,0.0,0.0,0.0,0.0,0.0,1.5663,1.537,1.537,1.4827,1.4613,1.4711,1.4711,1.3969,1.2463,1.1798,1.0484,0.8629,0.7286,0.6169,0.5045,0.4376,0.3927,0.3589,0.3589,0.3589,0.3589,0.3365,0.3029,0.2692,0.2131,0.2131,0.2355,0.2355,0.2355,0.2245,0.2026,0.1697,0.1363,0.0,0.0,0.0,0.0,0.0,0.0,0.0,0.0,0.0,0.0,1.3871,1.4009,1.4449,0.0,0.0,0.0,0.0,0.0,0.0,0.0,0.0,0.0,1.419,1.4204,1.4319,1.434,1.4475,1.474,1.476,1.4835,1.497,0.0,0.0,0.0,0.0,0.0,0.0,0.0,0.0,1.6305,1.5808,1.6015,0.0,0.0,1.5737,0.0,1.5839,1.5877,1.601,1.5974,1.7026,0.0,0.0,0.0,0.0,0.0,1.6737,0.0,0.0,0.0,0.0,0.0,0.0,0.0,1.5384,1.5221,1.5053,1.5185,0.0,0.0,0.0,0.0,0.0,0.0,0.0,0.0,0.0,0.0,0.0,0.0,0.0,0.0,1.6309,1.5788,1.5476,1.5476,1.5044,1.4611,1.4064,1.4064,1.3569,1.2354,1.2263,1.087,0.8057,0.7281,0.6162,0.4488,0.3927,0.3589,0.3589,0.3589,0.3589,0.3589,0.2917,0.2692,0.2467,0.1347,0.1235,0.1684,0.1684,0.1684,0.1685,0.1133,0.091,0.0797,0.0,0.0,0.0,0.0,0.0,0.0,0.0,0.0,0.0,0.0,1.4828,1.4801,1.4681,0.0,0.0,0.0,0.0,0.0,0.0,0.0,1.4183,1.4122,1.4434,1.4563,1.4475,1.459,1.4679,1.474,1.4862,1.4943,1.497,0.0,0.0,0.0,0.0,0.0,0.0,0.0,0.0,1.6298,1.5691,0.0,1.6107,1.5744,1.5805,1.6008,1.5764,1.5994,1.6569,0.0,1.7498,1.8166,0.0,0.0,0.0,0.0,0.0,0.0,0.0,0.0,0.0,0.0,0.0,0.0,1.4597,1.4774,1.4943,0.0,0.0,0.0,0.0,0.0,0.0,0.0,0.0,0.0,0.0,0.0,0.0,0.0,0.0,0.0,1.5093,1.4979,1.4827,1.4388,1.4605,1.4611,1.4064,1.4388,1.3641,1.1596,1.1128,0.9734,0.7209,0.6257,0.5383,0.4488,0.3927,0.3589,0.3589,0.3589,0.3589,0.3589,0.2917,0.2467,0.1909,0.1235,0.101,0.1122,0.1122,0.1122,0.1011,0.0907,0.0913,0.0803,0.0,0.0,0.0,0.0,0.0,0.0,0.0,0.0,0.0,1.5059,1.5208,1.5153,0.0,0.0,0.0,0.0,0.0,0.0,0.0,0.0,0.0,0.0,1.4543,1.4665,1.4516,1.4658,1.478,1.4855,1.4936,1.497,1.497,1.5045,0.0,0.0,0.0,0.0,0.0,0.0,1.5554,1.6022,1.5725,0.0,1.646,1.6012,1.5954,1.6062,1.6202,1.6684,1.7337,1.7396,1.7784,0.0,0.0,1.7608,1.7979,0.0,1.7065,1.6912,0.0,0.0,0.0,1.5789,0.0,0.0,0.0,1.4523,1.4523,1.424,0.0,0.0,0.0,0.0,0.0,0.0,0.0,0.0,0.0,0.0,0.0,0.0,0.0,0.0,1.4767,1.4891,1.4756,1.422,1.4438,1.422,1.337,1.3583,1.3103,1.1708,1.0891,0.9539,0.7521,0.6333,0.5249,0.4039,0.3702,0.3589,0.3589,0.3589,0.3477,0.3141,0.2467,0.1909,0.1347,0.0673,0.0449,0.0449,0.0449,0.045,0.0453,0.0456,0.046,0.0347,0.0,0.0,0.0,0.0,0.0,0.0,0.0,0.0,0.0,1.5228,1.5384,1.5337,0.0,0.0,0.0,0.0,0.0,0.0,0.0,0.0,0.0,0.0,1.4624,1.4726,0.0,1.4719,1.4848,1.497,1.497,1.4957,1.493,1.5072,0.0,0.0,0.0,0.0,0.0,0.0,0.0,1.5689,0.0,1.6236,1.6672,1.6282,1.6182,1.6374,1.6934,1.7426,1.7873,1.7989,0.0,1.807,1.7786,1.7654,0.0,0.0,0.0,0.0,0.0,0.0,0.0,0.0,0.0,1.4414,0.0,0.0,0.0,1.3774,0.0,0.0,0.0,0.0,0.0,0.0,0.0,0.0,0.0,0.0,0.0,0.0,0.0,0.0,0.0,1.4747,1.4405,1.38,1.3887,1.3466,1.2345,1.2365,1.2145,1.1575,1.0541,0.9223,0.7373,0.6404,0.5108,0.3583,0.3475,0.3477,0.3477,0.3253,0.3029,0.2467,0.1909,0.1347,0.0898,0.0224,0.0,0.0,0.0,0.0,0.0,0.0,-0.0116,-0.0233,1.4145,1.4314,0.0,0.0,0.0,0.0,0.0,0.0,0.0,1.5404,1.5628,0.0,0.0,0.0,0.0,0.0,0.0,0.0,1.4496,0.0,0.0,0.0,0.0,0.0,1.4923,1.4936,1.495,1.497,1.497,1.4903,1.4767,1.4923,0.0,0.0,1.4692,0.0,0.0,0.0,1.5418,0.0,1.5845,1.6046,0.0,1.6083,1.6374,1.6949,1.7795,1.801,1.7912,0.0,1.8192,1.794,0.0,1.7317,0.0,0.0,0.0,0.0,0.0,0.0,0.0,0.0,1.5591,0.0,0.0,0.0,1.417,1.3718,0.0,0.0,0.0,0.0,0.0,0.0,0.0,0.0,0.0,0.0,0.0,0.0,0.0,0.0,0.0,1.3604,1.2947,1.2014,1.2247,1.2129,1.109,1.1597,1.1131,0.9577,0.9089,0.7772,0.5521,0.4947,0.421,0.3551,0.3017,0.2804,0.2804,0.2245,0.2021,0.1909,0.1235,0.101,0.0898,0.0224,0.0,0.0,0.0,0.0,0.0,0.0,-0.0347,-0.0815,0.0,1.4735,0.0,0.0,0.0,0.0,0.0,0.0,0.0,1.5805,1.5906,0.0,0.0,0.0,0.0,0.0,0.0,0.0,0.0,0.0,0.0,0.0,0.0,0.0,0.0,0.0,0.0,1.5092,1.4923,1.4801,1.474,1.4808,0.0,0.0,1.4631,0.0,1.4977,0.0,0.0,0.0,0.0,0.0,0.0,1.6083,1.6672,1.7437,1.7861,1.8206,1.8296,0.0,1.7725,0.0,0.0,0.0,0.0,0.0,0.0,0.0,0.0,0.0,0.0,0.0,0.0,0.0,0.0,0.0,1.4027,0.0,0.0,0.0,0.0,0.0,0.0,0.0,0.0,0.0,0.0,0.0,0.0,0.0,0.0,0.0,0.0,0.0,0.0,0.0,1.1225,1.054,0.9271,0.982,0.9399,0.7872,0.6985,0.6087,0.5182,0.3937,0.3199,0.2993,0.2458,0.2133,0.2133,0.1909,0.1572,0.1235,0.101,0.0673,0.0337,0.0112,0.0,0.0,0.0,0.0,0.0,0.0,-0.0116,-0.0469,0.0,0.0,0.0,0.0,0.0,0.0,0.0,0.0,0.0,0.0,0.0,0.0,1.5988,1.5788,0.0,0.0,0.0,1.51,0.0,0.0,1.5038,0.0,0.0,0.0,0.0,0.0,0.0,1.5059,1.4889,1.476,1.4679,1.476,1.4665,0.0,0.0,1.495,1.5106,0.0,0.0,1.5913,1.5913,1.5981,1.6083,1.6282,1.6772,1.7521,1.768,1.7951,1.8192,1.7452,1.7242,0.0,1.6774,0.0,0.0,0.0,0.0,0.0,1.5972,0.0,0.0,0.0,0.0,0.0,0.0,0.0,0.0,0.0,0.0,0.0,0.0,0.0,0.0,0.0,0.0,0.0,0.0,0.0,0.0,0.0,0.0,0.0,0.0,0.0,0.0,1.0093,0.9615,0.8856,0.7527,0.7951,0.7541,0.615,0.5243,0.4655,0.4287,0.3036,0.241,0.2321,0.1782,0.1568,0.1572,0.1347,0.1122,0.0673,0.0673,0.0449,0.0,0.0,0.0,0.0,0.0,0.0,0.0,0.0,-0.0116,-0.0353,1.4502,1.4401,0.0,0.0,0.0,0.0,0.0,0.0,0.0,0.0,0.0,0.0,0.0,0.0,0.0,0.0,0.0,1.5276,1.5532,0.0,1.5398,0.0,0.0,0.0,0.0,0.0,0.0,0.0,0.0,1.4808,1.4523,1.4821,1.4875,1.474,1.5038,1.5255,1.5418,1.571,1.5927,1.6076,1.6076,1.6076,1.6182,0.0,1.6864,1.6927,1.7105,0.0,0.0,1.6887,1.6681,0.0,0.0,0.0,0.0,0.0,0.0,0.0,0.0,0.0,0.0,1.5337,0.0,0.0,0.0,0.0,1.4455,0.0,0.0,0.0,0.0,0.0,0.0,0.0,0.0,0.0,0.0,0.0,0.0,0.0,0.0,0.0,0.0,0.0,0.0,0.7352,0.7194,0.6727,0.5767,0.6222,0.5876,0.4195,0.4166,0.347,0.1789,0.1821,0.1845,0.1862,0.1214,0.0891,0.0898,0.0337,0.0,0.0,0.0,0.0,0.0,0.0,0.0,0.0,0.0,0.0,0.0,0.0,-0.0349,-0.0825,0.0,0.0,0.0,0.0,0.0,0.0,0.0,1.5771,0.0,0.0,0.0,0.0,0.0,0.0,1.6527,0.0,0.0,1.6071,1.6225,1.5988,0.0,0.0,0.0,1.556,0.0,0.0,0.0,0.0,0.0,1.4719,1.4814,1.4713,1.4746,1.4903,0.0,1.5377,0.0,0.0,0.0,0.0,0.0,1.6198,1.6347,0.0,0.0,1.6927,1.7105,1.718,0.0,1.6423,1.6213,1.6119,1.5838,1.5556,1.5518,1.5773,1.5691,0.0,0.0,0.0,1.5961,1.5459,0.0,0.0,0.0,0.0,0.0,0.0,0.0,0.0,0.0,0.0,0.0,0.0,0.0,0.0,0.0,0.0,0.0,0.0,0.0,0.0,0.0,0.0,0.0,0.6415,0.5737,0.4925,0.3963,0.4124,0.3691,0.2535,0.2581,0.2299,0.1683,0.1391,0.1193,0.1204,0.0552,0.0334,0.0337,0.0112,0.0,0.0,0.0,0.0,0.0,0.0,0.0,0.0,0.0,0.0,0.0,0.0,-0.0116,-0.0353,1.4672,0.0,0.0,0.0,0.0,0.0,0.0,0.0,0.0,0.0,1.668,0.0,1.7053,0.0,1.7216,0.0,1.6985,1.6815,1.6761,1.6483,0.0,1.6178,1.6069,0.0,0.0,0.0,0.0,0.0,0.0,1.4875,1.497,1.4821,1.4855,1.5059,0.0,1.5581,1.5872,0.0,1.6266,0.0,0.0,1.6279,0.0,0.0,1.6734,1.6778,0.0,1.6609,1.6551,1.5856,1.5692,1.5646,1.5356,1.5303,1.5384,1.5581,1.5676,1.5757,1.5947,1.6001,0.0,1.5513,1.5296,0.0,1.4685,0.0,0.0,0.0,0.0,0.0,0.0,0.0,0.0,0.0,0.0,0.0,0.0,0.0,0.0,0.0,0.0,0.0,0.0,0.0,0.5492,0.4995,0.3976,0.3173,0.0,0.0,0.2171,0.1413,0.1337,0.1251,0.1052,0.0747,0.054,0.0545,0.022,0.0,0.0,0.0,0.0,0.0,0.0,0.0,0.0,0.0,0.0,0.0,0.0,-0.0113,-0.0345,-0.0115,0.0,-0.0118,0.0,0.0,0.0,0.0,1.5106,0.0,0.0,0.0,1.6259,0.0,1.6917,1.7188,1.7616,1.767,1.7684,1.7684,1.7541,0.0,1.7236,1.6958,0.0,0.0,1.6497,1.6266,1.6096,0.0,0.0,0.0,0.0,0.0,1.4984,1.5113,1.5174,1.5201,1.5642,0.0,1.5879,1.6327,1.6435,1.6307,1.6307,1.632,1.6347,1.6476,1.6524,1.6456,1.5872,1.5655,1.5601,1.5303,1.5303,1.5418,1.5418,1.552,1.5642,1.5649,1.5744,1.5852,1.5859,1.5866,1.5798,1.5506,0.0,0.0,0.0,0.0,1.4966,0.0,0.0,0.0,0.0,0.0,0.0,0.0,0.0,0.0,0.0,0.0,0.0,0.0,0.0,0.0,0.0,0.4803,0.3419,0.2957,0.2033,0.0,0.0,0.0,0.1274,0.0807,0.072,0.0522,0.0,0.0,0.0,0.0,0.0,0.0,0.0,0.0,0.0,0.0,0.0,0.0,0.0,0.0,0.0,0.0,0.0,-0.0454,-0.0921,-0.0346,-0.0116,-0.0118,1.5153,1.5248,1.5411,0.0,1.5377,1.5323,0.0,0.0,0.0,0.0,1.7338,1.7684,1.7792,1.8002,1.8145,1.8145,1.8002,0.0,0.0,0.0,0.0,1.7087,1.6904,1.6632,1.6259,1.6103,0.0,1.535,0.0,0.0,1.5126,1.5059,1.5079,1.5201,0.0,0.0,1.5879,1.6218,1.6341,1.6307,1.6307,1.6442,0.0,0.0,1.6592,1.6625,1.6144,1.5893,1.5771,1.5588,1.5547,1.5581,1.5581,1.5608,1.5662,1.5771,1.5825,1.5879,1.5995,1.6022,1.5882,1.5302,1.5048,1.4795,0.0,0.0,0.0,0.0,0.0,0.0,0.0,0.0,0.0,0.0,0.0,0.0,0.0,0.0,0.0,0.0,0.0,0.0,0.0,0.0,0.2352,0.181,0.1258,0.0,0.0,0.0,0.0,0.02,0.0205,0.0104,0.0,0.0,0.0,0.0,0.0,0.0,0.0,0.0,0.0,0.0,0.0,0.0,0.0,0.0,0.0,0.0,-0.0452,-0.103,-0.1625,-0.1519,-0.1057,-0.0707,1.5398,0.0,0.0,1.5839,0.0,0.0,1.5934,0.0,0.0,1.7032,1.7534,0.0,1.8057,1.8267,1.8409,1.8409,1.8335,0.0,0.0,0.0,0.0,1.7494,1.7222,1.6924,1.6612,1.6388,0.0,1.5601,0.0,0.0,1.5181,1.5038,1.5045,1.5194,0.0,1.5655,1.5872,1.6178,1.6381,1.6497,1.6429,0.0,0.0,1.6727,1.6734,1.6707,1.6388,1.609,1.5832,1.5689,1.5683,1.573,1.573,1.5778,1.5845,1.5927,1.5906,1.5886,1.6042,1.5936,1.5473,1.4896,1.4526,1.4037,1.3318,1.2995,1.2673,0.0,0.0,0.0,0.0,0.0,0.0,0.0,0.0,0.0,0.0,0.0,0.0,0.0,0.0,0.0,0.0,0.0,0.0,0.0,0.0,0.0,0.0,0.0,0.0,0.0,0.0,0.0,0.0,0.0,0.0,0.0,0.0,0.0,0.0,0.0,0.0,0.0,0.0,-0.0112,-0.0449,-0.0449,-0.0561,-0.0899,-0.1478,-0.1956,-0.2331,-0.2585,-0.2121,-0.1414,0.0,0.0,0.0,0.0,0.0,0.0,0.0,1.6571,0.0,1.7243,0.0,1.8057,1.8321,1.8477,1.8565,1.8565,0.0,1.8498,1.8335,1.8077,1.7901,1.786,1.7453,1.7154,1.7012,1.6686,0.0,0.0,0.0,0.0,1.5208,1.5065,1.5065,1.5187,0.0,0.0,0.0,1.6178,1.6456,1.6686,1.6592,1.6632,1.6768,1.6924,1.6883,1.663,1.6598,1.6279,1.5893,1.5744,1.5778,1.5886,1.5886,1.5974,1.6083,1.6083,1.5988,1.5913,1.5943,1.5493,1.4909,1.4311,1.372,1.3094,1.2395,1.187,1.1343,1.0656,0.9972,0.885,0.0,0.0,0.0,0.0,0.0,0.0,0.0,0.0,0.0,0.0,0.0,0.0,0.0,0.0,0.0,0.0,0.0,0.0,0.0,0.0,0.0,0.0,0.0,0.0,0.0,0.0,0.0,0.0,0.0,0.0,0.0,0.0,0.0,-0.0112,-0.0112,-0.0449,-0.101,-0.101,-0.1348,-0.2031,-0.2521,-0.2894,-0.3035,-0.3761,-0.33,-0.2356,0.0,0.0,0.0,0.0,0.0,1.6625,1.6951,1.7175,1.7412,1.7704,1.8145,1.8443,1.8498,1.864,1.8728,1.8728,1.8728,0.0,0.0,0.0,0.0,1.788,1.7555,1.7311,1.7161,1.6741,1.6361,0.0,0.0,0.0,1.5364,1.5215,1.516,1.5187,0.0,0.0,1.5872,1.6178,0.0,1.6408,1.6625,1.6727,1.6768,1.6924,1.6883,1.6748,1.672,1.6503,1.6205,1.6056,1.6022,1.6042,1.6042,1.6062,1.6083,1.6083,1.6062,1.595,1.5572,1.5061,1.4346,1.3356,1.2757,1.2248,1.1629,1.1357,1.0773,0.9403,0.8536,0.7571,0.5853,0.0,0.0,0.0,0.0,0.0,0.0,0.0,0.0,0.0,0.0,0.0,0.0,0.0,0.0,0.0,0.0,0.0,0.0,0.0,0.0,0.0,0.0,0.0,0.0,0.0,0.0,0.0,0.0,0.0,0.0,0.0,-0.0223,-0.0786,-0.0786,-0.1122,-0.1684,-0.1684,-0.2036,-0.2637,-0.2778,-0.3152,-0.3764,-0.4943,-0.5178,-0.5061,0.0,0.0,0.0,0.0,0.0,0.0,0.0,1.7684,0.0,1.7968,1.8301,1.8531,1.8531,1.8674,1.8762,1.8762,1.847,1.8126,1.7987,1.7488,1.7233,1.7104,1.6962,0.0,1.6882,0.0,1.6415,1.6198,0.0,0.0,0.0,0.0,0.0,1.5187,0.0,1.5547,0.0,0.0,0.0,1.6673,1.6815,1.691,1.6998,1.7148,1.7161,1.708,1.6924,1.6781,1.6612,1.6307,1.6144,1.6083,1.6083,1.6083,1.6083,1.6083,1.583,1.5493,1.5061,1.4229,1.3299,1.2269,1.1683,1.1082,1.058,1.0245,0.9674,0.8848,0.8008,0.6861,0.5188,0.4194,0.0,0.0,0.0,0.0,0.0,0.0,0.0,0.0,0.0,0.0,0.0,0.0,0.0,0.0,0.0,0.0,0.0,0.0,0.0,0.0,0.0,0.0,0.0,0.0,0.0,0.0,0.0,0.0,0.0,-0.0331,-0.0668,-0.0898,-0.1235,-0.1684,-0.2245,-0.2592,-0.2964,-0.3357,-0.3951,-0.4447,-0.4947,-0.6121,-0.7059,-0.7532,0.0,1.7229,0.0,0.0,1.7412,0.0,1.7806,1.8145,1.8321,1.8199,1.8409,1.8586,1.8586,1.8572,1.8523,1.8606,1.7909,1.7371,1.7301,1.6639,1.6397,1.6478,1.6435,1.655,1.6658,1.6543,1.6394,0.0,0.0,0.0,0.0,0.0,0.0,0.0,0.0,0.0,0.0,0.0,1.6408,1.6985,1.7012,1.7114,1.7256,1.7372,1.7419,1.7392,1.7161,1.7032,1.6924,1.6571,1.6307,1.613,1.613,1.611,1.6083,1.6083,1.5605,1.5046,1.4452,1.3509,1.2368,1.1363,1.0681,1.0183,0.9782,0.938,0.9036,0.8686,0.7645,0.6307,0.4637,0.3486,0.0,0.0,0.0,0.0,0.0,0.0,0.0,0.0,0.0,0.0,0.0,0.0,0.0,0.0,0.0,0.0,0.0,0.0,0.0,0.0,0.0,-0.0101,-0.0208,0.0,-0.0213,0.0,-0.0322,-0.0325,-0.0438,-0.0882,-0.1112,-0.1347,-0.1796,-0.247,-0.3375,-0.3859,-0.4252,-0.4655,-0.5597,-0.6088,-0.6239,-0.7414,-0.8585,-0.9296,0.0,0.0,0.0,0.0,0.0,0.0,1.8389,1.8477,1.8511,1.8498,1.864,1.8742,1.8742,1.8284,1.7891,1.7774,1.7167,1.6699,1.6459,1.6316,1.6466,1.6903,1.6711,1.6766,1.7311,1.686,1.635,0.0,0.0,0.0,0.0,0.0,0.0,0.0,0.0,0.0,0.0,1.6558,1.6788,1.6992,1.7121,1.7263,1.7399,1.7412,1.7419,1.7419,1.7392,1.7209,1.6971,1.6931,1.6639,1.6286,1.6286,1.6191,1.6083,1.6083,1.5671,1.5061,1.4071,1.2973,1.1874,1.0881,1.0183,0.9782,0.9681,0.9681,0.9452,0.886,0.715,0.5307,0.4105,0.3047,0.238,0.0,0.0,0.0,0.0,0.0,0.0,0.0,0.0,0.0,0.0,0.0,0.0,0.0,0.0,0.0,0.0,0.0,0.0,0.0,0.0,-0.0306,-0.0831,-0.0845,-0.107,-0.151,-0.1499,-0.1615,-0.1641,-0.1643,-0.1989,-0.2579,-0.258,-0.3604,-0.5223,-0.5377,-0.6117,-0.7215,-0.7267,-0.7289,-0.7532,-0.8706,-0.9296,-0.9531,0.0,0.0,0.0,0.0,0.0,0.0,0.0,1.8816,1.8816,1.8816,1.8782,1.8762,1.8762,1.8181,1.7878,1.8093,1.685,1.6272,1.6759,1.5777,1.5372,1.5868,1.5693,1.5663,1.58,1.5792,1.5664,0.0,0.0,0.0,0.0,0.0,0.0,0.0,0.0,1.6239,1.6578,1.6605,1.6856,1.7256,1.7405,1.75,1.7568,1.765,1.7684,1.767,1.7589,1.748,1.7351,1.7168,1.6809,1.6435,1.6435,1.6132,1.571,1.571,1.505,1.4183,1.3384,1.2684,1.1884,1.1182,1.0781,1.038,0.9476,0.9175,0.8847,0.7572,0.5806,0.4385,0.398,0.2717,0.1844,0.0,0.0,0.0,0.0,0.0,0.0,0.0,0.0,0.0,0.0,0.0,0.0,0.0,0.0,0.0,0.0,0.0,0.0,0.0,0.0,-0.0704,-0.0927,-0.1271,-0.1507,-0.1728,-0.1731,-0.1744,-0.1765,-0.2206,-0.2663,-0.3253,-0.4039,-0.4972,-0.6175,-0.6883,-0.7753,-0.8665,-0.9514,-0.9758,-0.9879,-1.1169,-1.1407,-1.1169,1.8871,0.0,1.8674,0.0,1.8864,1.8816,1.9081,1.8922,1.8764,1.8818,1.8423,1.8298,1.8523,1.7788,1.7351,1.7905,1.6403,1.5813,1.6578,1.5372,1.4758,1.5197,1.5081,0.0,1.5428,1.5271,1.5283,1.5148,1.543,0.0,0.0,0.0,0.0,0.0,1.6225,1.651,1.6937,1.6829,1.6947,1.7277,1.7275,1.7239,1.7169,1.6937,1.6969,1.7067,1.6756,1.6692,1.6846,1.6854,1.6525,1.6183,1.6303,1.5877,1.5253,1.5253,1.4577,1.3699,1.3094,1.2463,1.1833,1.1229,1.0703,1.0074,0.897,0.8467,0.7741,0.5978,0.4751,0.3741,0.324,0.216,0.1276,0.1276,0.0,0.0,0.0,0.0,0.0,0.0,0.0,0.0,0.0,0.0,0.0,0.0,0.0,0.0,0.0,0.0,0.0,0.0,0.0,0.0,0.0,-0.1814,-0.2169,-0.2277,-0.2291,-0.2308,-0.2328,-0.311,-0.368,-0.4152,-0.5397,-0.6461,-0.7357,-0.8402,-0.9407,-1.0341,-1.1395,-1.1871,-1.1988,-1.2924,-1.2924,-1.2461,1.9203,1.9203,1.9183,1.9203,1.9203,1.9257,1.9393,1.8695,1.8209,1.8239,1.7537,1.7123,1.7704,1.667,1.5957,1.6505,1.5801,1.5335,1.5214,1.5197,1.5197,0.0,0.0,1.5565,1.6769,1.5948,1.5423,1.5283,0.0,0.0,1.4678,0.0,1.6673,1.6971,1.7114,1.7263,1.7412,1.7412,1.7176,1.6769,1.6769,1.653,1.5979,1.4747,1.4758,1.5197,1.4536,1.4674,1.5116,1.5772,1.5705,1.5542,1.5793,1.5402,1.4783,1.4783,1.447,1.3854,1.3335,1.2334,1.1343,1.0834,0.9439,0.8166,0.8065,0.7261,0.6037,0.4387,0.3982,0.3474,0.1868,0.1178,0.0785,0.0785,0.0,0.0,0.0,0.0,0.0,0.0,0.0,0.0,0.0,0.0,0.0,0.0,0.0,0.0,0.0,0.0,0.0,-0.0846,-0.0895,0.0,-0.2523,-0.2591,-0.2846,-0.3502,-0.3502,-0.3516,-0.3544,-0.4802,-0.5383,-0.5495,-0.667,-0.798,-0.9196,-0.9964,-1.0972,-1.2227,-1.2924,-1.3163,-1.3163,-1.3163,-1.3163,-1.3046,1.9359,1.9447,1.9522,1.9522,1.9146,1.8911,1.8964,1.8128,1.7613,1.7644,1.6832,1.6273,1.6433,1.6034,1.5928,0.0,1.5422,1.5117,0.0,1.4986,1.4758,1.5197,1.4719,1.4658,1.4908,1.4719,1.4725,1.4915,0.0,0.0,0.0,1.624,1.6788,1.6992,1.7236,1.7433,1.7575,1.7575,1.7329,1.6917,1.6917,1.6157,1.4858,1.4858,1.4531,1.397,1.4192,1.462,1.5011,1.3816,1.3414,1.3098,1.1909,1.236,1.3052,1.19,1.1122,1.045,0.9831,0.9459,0.9091,0.8989,0.8521,0.776,0.6654,0.5045,0.3531,0.3019,0.2324,0.1623,0.1113,0.0609,0.0306,0.0304,0.0101,0.0,0.0,0.0,0.0,0.0,-0.028,-0.0558,0.0,-0.1007,0.0,0.0,0.0,0.0,0.0,0.0,0.0,0.0,-0.0992,0.0,-0.2103,-0.2808,-0.3294,-0.3531,-0.4329,-0.5235,-0.6032,-0.6493,-0.6612,-0.6732,-0.8024,-0.9004,-0.9994,-1.1118,-1.2255,-1.3518,-1.3742,-1.4098,-1.4459,-1.4459,-1.422,-1.3742,1.9522,1.9462,1.9286,1.9286,1.8549,1.8068,1.8318,1.7344,1.6698,1.6942,1.6126,1.5547,1.5383,1.5355,0.0,1.5984,1.5246,1.5077,1.5763,1.5097,1.4758,1.4875,1.4547,1.4392,1.4531,0.0,0.0,1.457,1.444,1.4833,1.5841,1.6367,1.6763,1.6916,1.7318,1.7589,1.7738,1.7738,1.7222,1.6317,1.5862,1.452,1.2864,1.2409,1.1857,1.1407,1.1634,1.2071,1.2399,1.1342,1.1074,1.0693,0.9059,0.9457,1.0273,0.9601,0.9135,0.8678,0.8365,0.8106,0.7841,0.7914,0.7241,0.6174,0.4442,0.3037,0.2032,0.1828,0.1228,0.0721,0.0515,0.0207,0.0,0.0,0.0,0.0,0.0,0.0,0.0,0.0,0.0,0.0,0.0,-0.1392,0.0,0.0,0.0,0.0,0.0,0.0,0.0,-0.0585,-0.1306,0.0,-0.2455,-0.3158,-0.3754,-0.423,-0.5478,-0.65,-0.7175,-0.7625,-0.7849,-0.7961,-0.9299,-1.0053,-1.0575,-1.1725,-1.2402,-1.269,-1.3163,-1.3504,-1.3626,-1.3626,-1.3859,-1.3981,1.9536,1.8927,1.8549,0.0,1.7459,0.0,1.7459,1.6266,1.551,1.6215,1.5537,1.4939,1.47,1.4673,1.4845,1.5281,0.0,0.0,0.0,1.5086,1.4875,1.432,1.432,1.4536,1.5086,1.442,1.4041,1.4025,1.3912,1.4405,1.5488,1.6131,1.6532,1.6782,1.7219,1.7628,1.786,1.7749,1.6643,1.4858,1.3743,1.2075,1.0177,0.806,0.7505,0.7955,0.7393,0.7616,0.8178,0.8622,0.8691,0.841,0.7195,0.6787,0.6902,0.79,0.819,0.8186,0.8186,0.7715,0.7235,0.7173,0.5561,0.347,0.1923,0.1526,0.1434,0.0922,0.0723,0.0624,0.0104,0.0,0.0,0.0,0.0,0.0,0.0,0.0,0.0,0.0,0.0,0.0,0.0,-0.1696,-0.2098,0.0,0.0,0.0,0.0,0.0,-0.0585,-0.1715,-0.175,-0.2326,-0.3393,-0.3531,-0.4227,-0.5495,-0.6836,-0.7398,-0.7398,-0.8517,-0.8967,-0.8978,-1.0147,-1.0796,-1.0804,-1.157,-1.1169,-1.0352,-1.1524,-1.1633,-1.1265,-1.1278,-1.2438,-1.3839,0.0,0.0,1.6349,1.6349,1.5738,1.5478,1.5988,1.5243,1.4876,1.5384,1.5242,1.4939,1.47,1.4673,1.4705,1.4603,1.4564,1.4547,1.4547,1.4547,1.4436,1.432,1.432,1.432,1.4547,1.3843,1.3348,1.2822,1.3664,1.3982,1.3763,1.4851,1.5693,1.6274,1.6384,1.6722,1.7099,1.5751,1.442,1.3076,1.1857,1.0066,0.8057,0.7955,0.7398,0.6724,0.7063,0.7616,0.7955,0.6724,0.6493,0.6587,0.488,0.4308,0.4387,0.5079,0.5244,0.5217,0.4687,0.4446,0.4308,0.3774,0.29,0.2043,0.1721,0.1323,0.0922,0.0819,0.0519,0.0105,0.0,0.0,0.0,0.0,0.0,0.0,0.0,0.0,0.0,0.0,-0.0479,-0.0961,-0.1346,-0.1935,-0.2444,0.0,0.0,0.0,0.0,-0.1616,-0.1412,-0.1717,-0.2189,-0.257,-0.2846,-0.331,-0.456,-0.6836,-0.8517,-0.9072,-0.8629,-0.8856,-0.8517,-0.7631,-0.8094,-0.8272,-0.8278,-0.8529,-0.8706,-0.9058,-0.9758,-1.0303,-1.0595,-1.1064,-1.2068,-1.3264,1.6349,1.5738,1.5255,1.5255,1.4771,1.4486,1.5107,1.4741,1.4632,1.5115,1.5108,1.4939,1.47,1.4673,1.4575,1.4336,1.432,1.432,1.432,1.432,1.432,1.432,1.432,1.432,1.432,1.3658,1.3066,1.2449,1.2785,1.2886,1.2886,1.3885,1.4575,1.5313,1.5541,1.5751,1.5751,1.4758,1.3076,1.118,0.9954,0.8284,0.6388,0.6162,0.5607,0.5157,0.5383,0.5719,0.5938,0.4933,0.4821,0.4929,0.3903,0.3555,0.3538,0.3835,0.3898,0.386,0.354,0.3196,0.2852,0.1991,0.1449,0.1125,0.0916,0.0614,0.0413,0.0415,0.021,0.0,0.0,0.0,0.0,0.0,0.0,0.0,0.0,-0.0198,0.0,-0.0387,-0.1072,-0.167,-0.1974,-0.2489,-0.2915,-0.3246,-0.2944,0.0,-0.2882,-0.2586,-0.2379,-0.2162,-0.2422,-0.2688,-0.2955,-0.3877,-0.5133,-0.6836,-0.8293,-0.9072,-0.8967,-0.8967,-0.8629,-0.7964,-0.7872,-0.7925,-0.8163,-0.8069,-0.8004,-0.8113,-0.8706,-0.9015,-0.9066,-0.9993,-1.1435,-1.2958,1.5367,1.4893,1.4521,1.4521,1.4149,1.3973,1.4466,1.448,1.4606,1.5088,1.5081,1.4923,1.47,1.4657,1.4559,1.4336,1.432,1.432,1.432,1.432,1.432,1.432,1.432,1.4208,1.4208,1.343,1.2873,1.2196,1.1755,1.1759,1.2312,1.2873,1.343,1.4092,1.4536,1.442,1.3854,1.3642,1.1857,0.9184,0.8057,0.6612,0.5045,0.4039,0.3589,0.3589,0.3589,0.3589,0.3589,0.3589,0.3589,0.3589,0.3589,0.3572,0.3551,0.3551,0.3513,0.3468,0.346,0.3005,0.223,0.1149,0.0828,0.0514,0.0103,0.0,0.0,0.0,0.0,0.0,0.0,0.0,0.0,-0.0104,-0.0104,-0.0103,-0.02,0.0,-0.0893,-0.0888,-0.1788,-0.2306,-0.2534,-0.2961,-0.3192,-0.3325,-0.3328,-0.3329,-0.3335,-0.3569,-0.3373,-0.2741,-0.2768,-0.3023,-0.3516,-0.4899,-0.5831,-0.6281,-0.7625,-0.8405,-0.8741,-0.8741,-0.8639,-0.8431,-0.7986,-0.8163,-0.8641,-0.8422,-0.8004,-0.7532,-0.8477,-0.8428,-0.7891,-0.9049,-1.0963,-1.3062,1.3541,1.3178,1.3056,1.3056,1.3345,1.3862,1.4345,1.4363,1.4379,1.4958,1.4956,1.4825,1.4689,1.4586,1.4477,1.4336,1.432,1.432,1.432,1.432,1.432,1.432,1.432,1.4092,1.3541,1.2423,1.1643,1.109,1.0978,1.0978,1.109,1.1643,1.2196,1.2762,1.2864,1.2525,1.1973,1.0404,0.8622,0.6724,0.5495,0.46,0.3815,0.3702,0.3589,0.3589,0.3589,0.3589,0.3589,0.3589,0.3589,0.3589,0.3589,0.3587,0.3583,0.3583,0.3558,0.352,0.3471,0.2683,0.1701,0.1052,0.0524,0.0105,0.0,0.0,0.0,0.0,0.0,0.0,0.0,0.0,-0.0106,-0.0625,-0.0722,-0.0815,-0.1298,0.0,-0.1484,-0.1506,-0.1712,-0.203,-0.2477,-0.2586,-0.2807,-0.3356,-0.3359,-0.337,-0.3396,-0.4357,-0.4361,-0.3298,-0.3351,-0.3406,-0.3576,-0.5261,-0.6162,-0.6281,-0.8067,-0.8405,-0.7513,-0.7513,-0.6977,-0.6008,-0.5951,-0.6001,-0.6276,-0.7267,-0.7649,-0.7649,-0.9403,-0.9903,-0.9772,-1.0468,-1.1882,-1.3613,1.2933,1.3056,1.3292,1.3292,1.3827,1.4195,1.432,1.458,1.482,1.4931,1.4923,1.4814,1.4689,1.4575,1.445,1.4336,1.3981,1.3769,1.3769,1.3769,1.3769,1.3769,1.3541,1.2762,1.1532,1.0301,0.9411,0.8856,0.8856,0.8856,0.8856,0.9746,1.0528,1.1081,1.1081,1.0743,1.0077,0.8622,0.6951,0.5271,0.4712,0.4152,0.3589,0.3589,0.3589,0.3589,0.3589,0.3589,0.3589,0.3589,0.3589,0.3589,0.3589,0.3589,0.3589,0.3589,0.3569,0.3421,0.3147,0.2585,0.1926,0.1161,0.0736,0.042,0.0105,-0.021,-0.0527,-0.0529,-0.0744,-0.0959,-0.0959,-0.0959,-0.0955,-0.1257,-0.1245,0.0,0.0,-0.1919,-0.212,-0.2149,-0.2378,-0.2714,-0.2946,-0.2974,-0.3423,-0.4403,-0.4403,-0.4725,-0.5257,-0.5793,-0.5779,-0.5219,-0.412,-0.3531,-0.3589,-0.4709,-0.5495,-0.5831,-0.6951,-0.7398,-0.7175,-0.7849,-0.7882,-0.7494,-0.7781,-0.8197,-0.8608,-0.8908,-0.9169,-0.9641,-1.0813,-1.1312,-1.1312,-1.258,-1.3772,-1.4818,1.3178,1.3541,1.4027,1.3997,1.4396,1.4767,1.4648,1.4899,1.5151,1.5053,1.4912,1.4771,1.4689,1.4317,1.3975,1.3658,1.2975,1.2534,1.2423,1.22,1.2312,1.2752,1.1973,1.0854,0.9512,0.8405,0.7616,0.7175,0.7175,0.7175,0.7175,0.8178,0.8856,0.9296,0.9296,0.8846,0.8067,0.7166,0.5826,0.4264,0.4264,0.4039,0.3589,0.3589,0.3589,0.3589,0.3589,0.3589,0.3589,0.3589,0.3589,0.3589,0.3589,0.3589,0.3589,0.3589,0.3572,0.343,0.2721,0.2596,0.2368,0.1377,0.0844,0.0528,0.0106,-0.0528,-0.1057,-0.1064,-0.1385,-0.1705,-0.1705,-0.1705,-0.17,-0.1896,0.0,0.0,0.0,-0.2779,-0.3188,-0.3439,-0.391,-0.427,-0.4287,-0.4341,-0.4703,-0.5685,-0.5685,-0.6102,-0.6927,-0.7234,-0.7318,-0.7494,-0.5428,-0.441,-0.4597,-0.5271,-0.5943,-0.6612,-0.7286,-0.7843,-0.8517,-0.9407,-0.9907,-1.0004,-1.0524,-1.1078,-1.1652,-1.1483,-1.175,-1.2227,-1.3032,-1.3208,-1.3342,-1.4726,-1.559,-1.62,1.3786,1.4286,1.4745,1.4502,1.4997,1.5239,1.5131,1.5018,1.5053,1.5037,1.4825,1.4689,1.4673,1.346,1.2437,1.1857,1.0743,0.9962,0.9407,0.8846,0.9184,1.0854,0.9296,0.8405,0.8178,0.7625,0.7286,0.7175,0.7175,0.7175,0.7175,0.7286,0.7398,0.7398,0.7398,0.6724,0.5607,0.5607,0.4821,0.3702,0.3702,0.3589,0.3589,0.3589,0.3589,0.3589,0.3589,0.3589,0.3589,0.3589,0.3589,0.3589,0.3589,0.3589,0.3589,0.3589,0.3589,0.346,0.2747,0.2608,0.2479,0.1814,0.0852,0.0106,0.0,-0.0852,-0.1597,-0.1598,-0.1705,-0.1705,-0.1705,-0.1705,-0.1913,-0.2317,0.0,0.0,-0.4564,-0.4836,-0.5267,-0.646,-0.6594,-0.6642,-0.6861,-0.688,-0.6883,-0.6992,-0.6992,-0.6992,-0.7096,-0.8016,-0.887,-0.9371,-0.764,-0.7049,-0.7731,-0.8284,-0.9174,-1.0293,-1.0957,-1.151,-1.2075,-1.2186,-1.2405,-1.2588,-1.2602,-1.2718,-1.3018,-1.4204,-1.4666,-1.4904,-1.6081,-1.6463,-1.6343,-1.6458,-1.6912,-1.7486,1.4399,1.5021,1.5356,1.5229,1.5352,1.5347,1.5233,1.5124,1.5037,1.5037,1.4191,1.3489,1.3077,1.1702,1.0692,1.0074,0.9296,0.8734,0.8405,0.7175,0.7063,0.8517,0.7175,0.6388,0.6388,0.5495,0.4933,0.4933,0.4933,0.4933,0.4933,0.5719,0.6057,0.6057,0.6057,0.5831,0.5383,0.4597,0.4039,0.3589,0.3589,0.3589,0.3589,0.3589,0.3589,0.3589,0.3589,0.3589,0.3589,0.3589,0.3589,0.3589,0.3589,0.3589,0.3589,0.3589,0.3365,0.2908,0.2323,0.2081,0.1956,0.14,0.0321,-0.0639,-0.0959,-0.1705,-0.2239,-0.2239,-0.2558,-0.2772,-0.2772,-0.3318,-0.3969,-0.417,0.0,-0.5536,-0.6211,-0.6273,-0.6488,-0.6913,-0.7065,-0.7,-0.7041,-0.7085,-0.7439,-0.8218,-0.8658,-0.9076,-0.9799,-1.0428,-1.1142,-1.1781,-1.113,-1.023,-0.9174,-0.9739,-1.0404,-1.1296,-1.1848,-1.2298,-1.2525,-1.3303,-1.3761,-1.3979,-1.4776,-1.5252,-1.5487,-1.5965,-1.6198,-1.632,-1.7123,-1.7446,-1.7402,-1.7858,-1.8096,-1.8334,1.4648,1.5143,1.534,1.4945,1.4851,1.4741,1.4589,1.4495,1.4459,1.4459,1.33,1.229,1.1754,1.0159,0.882,0.8213,0.7407,0.6836,0.6724,0.5495,0.5157,0.6057,0.5271,0.4821,0.4821,0.4039,0.3589,0.3589,0.3589,0.3589,0.3589,0.4488,0.4821,0.4821,0.4821,0.4821,0.4821,0.3927,0.3589,0.3589,0.3589,0.3589,0.3589,0.3589,0.3589,0.3589,0.3589,0.3589,0.3589,0.3589,0.3589,0.3589,0.3589,0.3477,0.3253,0.2917,0.2467,0.2017,0.1448,0.0992,0.0655,0.0649,-0.0322,-0.1279,-0.1598,-0.2345,-0.2878,-0.2878,-0.3418,-0.3959,-0.3959,-0.4955,-0.5848,-0.5848,-0.6497,-0.7162,-0.7534,-0.7608,-0.7713,-0.8107,-0.8155,-0.8306,-0.8443,-0.8596,-0.8961,-0.9973,-1.0528,-1.1138,-1.2006,-1.2408,-1.3012,-1.3625,-1.3847,-1.3305,-1.2071,-1.2298,-1.2747,-1.3288,-1.3854,-1.4192,-1.4192,-1.5132,-1.5594,-1.5919,-1.6751,-1.725,-1.7478,-1.7478,-1.7478,-1.7484,-1.7943,-1.8065,-1.8181,-1.8639,-1.8762,-1.8762,1.4648,1.4771,1.4583,1.364,1.3482,1.341,1.3201,1.3163,1.3163,1.3163,1.191,1.1035,1.1035,0.8701,0.6917,0.6355,0.5182,0.4264,0.3589,0.3589,0.3589,0.3589,0.3589,0.3589,0.3589,0.3589,0.3589,0.3589,0.3589,0.3589,0.3589,0.3589,0.3589,0.3589,0.3589,0.3589,0.3589,0.3589,0.3589,0.3589,0.3589,0.3589,0.3589,0.3589,0.3589,0.3589,0.3589,0.3589,0.3589,0.3589,0.3589,0.3589,0.3589,0.3141,0.2467,0.1234,0.0897,0.0785,0.0112,-0.0887,-0.142,-0.0325,-0.0858,-0.1706,-0.1706,-0.2558,-0.3412,-0.3412,-0.4399,-0.5178,-0.5178,-0.63,-0.7101,-0.7101,-0.7101,-0.754,-0.8634,-0.8852,-0.9207,-1.0494,-1.0616,-1.087,-1.1518,-1.1643,-1.1871,-1.2423,-1.2534,-1.2665,-1.3098,-1.363,-1.4172,-1.4827,-1.5368,-1.6154,-1.6988,-1.6434,-1.6434,-1.6988,-1.7652,-1.786,-1.786,-1.8023,-1.8179,-1.8335,-1.8477,-1.862,-1.8762,-1.8762,-1.8762,-1.8762,-1.8762,-1.8762,-1.8762,-1.8762,-1.8762,-1.8762,1.3914,1.4159,1.3964,1.352,1.3482,1.3167,1.201,1.1871,1.1516,1.0696,0.9386,0.8422,0.7906,0.6368,0.5173,0.4431,0.4078,0.384,0.3589,0.3589,0.3589,0.3589,0.3589,0.3589,0.3589,0.3589,0.3589,0.3589,0.3589,0.3589,0.3589,0.3589,0.3589,0.3589,0.3589,0.3589,0.3589,0.3589,0.3589,0.3589,0.3589,0.3589,0.3587,0.3565,0.3558,0.3555,0.3534,0.3527,0.3417,0.3086,0.2879,0.2785,0.1903,0.157,0.1234,0.0449,0.0,-0.0449,-0.1121,-0.1773,-0.2187,-0.1418,-0.2048,-0.2883,-0.2901,-0.3228,-0.3665,-0.4551,-0.5,-0.5552,-0.6421,-0.7564,-0.8375,-0.8375,-0.9086,-0.9783,-1.0119,-1.023,-1.0353,-1.071,-1.1048,-1.1385,-1.1532,-1.1982,-1.2312,-1.2534,-1.3314,-1.4095,-1.4839,-1.5126,-1.5567,-1.6016,-1.6327,-1.6801,-1.7632,-1.6988,-1.704,-1.7806,-1.7904,-1.8077,-1.8179,-1.8233,-1.8335,-1.8477,-1.8511,-1.862,-1.8762,-1.8762,-1.8762,-1.8762,-1.8762,-1.8762,-1.8762,-1.8762,-1.8762,-1.8762,1.2683,1.2648,1.2335,1.1339,1.1168,1.0855,0.9897,0.9758,0.9524,0.8706,0.7532,0.6692,0.6193,0.5013,0.4168,0.3656,0.3632,0.3611,0.3589,0.3589,0.3589,0.3589,0.3589,0.3589,0.3589,0.3589,0.3589,0.3589,0.3589,0.3589,0.3589,0.3589,0.3589,0.3589,0.3589,0.3589,0.3589,0.3589,0.3589,0.3589,0.3589,0.3583,0.3569,0.3329,0.3206,0.3086,0.2851,0.2846,0.2736,0.2079,0.1758,0.1435,0.0446,0.0223,0.0,-0.0784,-0.1346,-0.1794,-0.2355,-0.2882,-0.3174,-0.2846,-0.3132,-0.342,-0.345,-0.3888,-0.4438,-0.5454,-0.6245,-0.7027,-0.8011,-0.8955,-0.9672,-0.9672,-1.0269,-1.0751,-1.0751,-1.0751,-1.0867,-1.109,-1.142,-1.1759,-1.2312,-1.2651,-1.3086,-1.3531,-1.442,-1.5336,-1.611,-1.6172,-1.6506,-1.6965,-1.7051,-1.7382,-1.786,-1.7535,-1.7608,-1.8091,-1.8091,-1.8179,-1.8321,-1.8375,-1.8443,-1.8531,-1.8599,-1.8674,-1.8762,-1.8762,-1.8762,-1.8762,-1.8762,-1.8762,-1.8762,-1.8762,-1.8762,-1.8762,1.072,1.0527,0.9966,0.8084,0.7665,0.7602,0.7419,0.7297,0.7294,0.7176,0.6239,0.5531,0.5531,0.4447,0.3715,0.3684,0.3625,0.3589,0.3589,0.3589,0.3589,0.3589,0.3589,0.3589,0.3589,0.3589,0.3589,0.3589,0.3589,0.3589,0.3589,0.3589,0.3589,0.3589,0.3589,0.3589,0.3589,0.3589,0.3589,0.3589,0.3589,0.346,0.3323,0.2879,0.2532,0.2405,0.1856,0.1638,0.1529,0.0984,0.0437,-0.0219,-0.0883,-0.1107,-0.133,-0.2458,-0.2799,-0.3023,-0.3695,-0.4202,-0.4698,-0.4698,-0.4318,-0.3851,-0.3777,-0.4758,-0.5744,-0.6444,-0.7932,-0.9307,-0.9966,-1.0587,-1.0978,-1.0978,-1.0978,-1.0978,-1.0978,-1.0978,-1.109,-1.1643,-1.1759,-1.2312,-1.3319,-1.3541,-1.4097,-1.5313,-1.5862,-1.6366,-1.6878,-1.6898,-1.7103,-1.754,-1.7663,-1.7738,-1.786,-1.786,-1.7948,-1.8111,-1.8111,-1.8199,-1.8355,-1.8498,-1.8552,-1.8565,-1.8708,-1.8762,-1.8762,-1.8762,-1.8762,-1.8762,-1.8762,-1.8762,-1.8762,-1.8762,-1.8762,-1.8762,0.863,0.8454,0.8265,0.784,0.7665,0.7363,0.6245,0.6121,0.5768,0.4711,0.4358,0.4243,0.4243,0.4001,0.3739,0.3684,0.3625,0.3589,0.3589,0.3589,0.3589,0.3589,0.3589,0.3589,0.3589,0.3589,0.3589,0.3589,0.3589,0.3589,0.3589,0.3589,0.3589,0.3589,0.3589,0.3589,0.3589,0.3589,0.3589,0.3589,0.3141,0.2902,0.2768,0.2199,0.1745,0.1298,0.1182,0.075,0.0322,-0.0324,-0.0867,-0.141,-0.2079,-0.2195,-0.2415,-0.308,-0.363,-0.4286,-0.5163,-0.5887,-0.6597,-0.7458,-0.7653,-0.7327,-0.6416,-0.7227,-0.8375,-0.9447,-1.0035,-1.0607,-1.1723,-1.2071,-1.2084,-1.2084,-1.2084,-1.2084,-1.2084,-1.2084,-1.2196,-1.2312,-1.3091,-1.3769,-1.4092,-1.4986,-1.5862,-1.6545,-1.6754,-1.7028,-1.7445,-1.7532,-1.7662,-1.765,-1.7758,-1.7826,-1.786,-1.786,-1.8002,-1.8267,-1.8267,-1.8409,-1.8674,-1.8694,-1.8708,-1.8708,-1.8742,-1.8762,-1.8762,-1.8762,-1.8762,-1.8762,-1.8762,-1.8762,-1.8762,-1.8762,-1.8762,-1.8762,0.7115,0.6922,0.6619,0.6001,0.5837,0.5563,0.4952,0.4829,0.4594,0.389,0.3772,0.3764,0.375,0.375,0.3726,0.3663,0.3618,0.3589,0.3589,0.3589,0.3589,0.3589,0.3589,0.3589,0.3589,0.3589,0.3589,0.3589,0.3365,0.3365,0.3589,0.3253,0.3365,0.3589,0.3589,0.3589,0.3589,0.3253,0.3141,0.3141,0.2243,0.1893,0.1761,0.0877,0.0326,0.0,-0.0213,-0.0746,-0.128,-0.1607,-0.2039,-0.258,-0.2929,-0.3154,-0.3482,-0.3823,-0.4703,-0.5685,-0.6226,-0.7271,-0.8193,-0.8835,-0.9725,-0.9984,-0.8178,-0.8794,-0.9966,-1.0945,-1.1304,-1.1857,-1.2762,-1.2651,-1.2534,-1.2534,-1.2534,-1.2534,-1.2534,-1.2534,-1.2762,-1.3314,-1.387,-1.4547,-1.5103,-1.5979,-1.6643,-1.6988,-1.7307,-1.7502,-1.7758,-1.7826,-1.7826,-1.7758,-1.7826,-1.786,-1.786,-1.786,-1.8023,-1.8321,-1.8321,-1.8477,-1.8762,-1.8762,-1.8762,-1.8762,-1.8762,-1.8762,-1.8762,-1.8762,-1.8762,-1.8762,-1.8762,-1.8762,-1.8762,-1.8762,-1.8762,-1.8762,0.5721,0.5535,0.5127,0.3936,0.3793,0.3772,0.3772,0.3772,0.3768,0.3764,0.3764,0.375,0.3723,0.3712,0.3692,0.3639,0.3607,0.3589,0.3589,0.3589,0.3589,0.3589,0.3589,0.3589,0.3589,0.3589,0.3589,0.3589,0.3141,0.3141,0.3589,0.3029,0.2917,0.3477,0.3365,0.3253,0.3141,0.258,0.2355,0.2131,0.1009,0.0555,0.0438,-0.0657,-0.1082,-0.1279,-0.1705,-0.2239,-0.2772,-0.2772,-0.3091,-0.3523,-0.3656,-0.3986,-0.453,-0.4781,-0.5876,-0.7071,-0.7502,-0.8651,-0.9894,-1.0108,-1.1371,-1.2107,-1.0038,-1.0441,-1.1431,-1.195,-1.2423,-1.2975,-1.343,-1.3091,-1.2762,-1.2762,-1.2762,-1.2762,-1.2762,-1.2864,-1.3314,-1.432,-1.4647,-1.5214,-1.6317,-1.6871,-1.7099,-1.7099,-1.7652,-1.786,-1.786,-1.786,-1.786,-1.786,-1.786,-1.786,-1.786,-1.786,-1.8023,-1.8321,-1.8321,-1.8477,-1.8762,-1.8762,-1.8762,-1.8762,-1.8762,-1.8762,-1.8762,-1.8762,-1.8762,-1.8762,-1.8762,-1.8762,-1.8762,-1.8762,-1.8762,-1.8762,0.4233,0.4077,0.4056,0.3817,0.3793,0.3772,0.3772,0.3772,0.3761,0.3737,0.3733,0.3719,0.3692,0.3663,0.3645,0.3636,0.3607,0.3589,0.3589,0.3589,0.3589,0.3589,0.3589,0.3589,0.3589,0.3589,0.3589,0.3589,0.3477,0.3477,0.3589,0.3029,0.2692,0.2804,0.2245,0.1796,0.1234,0.1234,0.0897,0.0336,-0.0336,-0.0666,-0.0766,-0.1422,-0.1949,-0.2345,-0.2452,-0.2878,-0.3306,-0.3306,-0.373,-0.4157,-0.4162,-0.459,-0.5232,-0.6194,-0.705,-0.8012,-1.0028,-1.1086,-1.1824,-1.2777,-1.3364,-1.363,-1.3414,-1.3581,-1.3854,-1.387,-1.3981,-1.4092,-1.4208,-1.4097,-1.4092,-1.4092,-1.4092,-1.4092,-1.4092,-1.4531,-1.4858,-1.5086,-1.5979,-1.6871,-1.7542,-1.7749,-1.7749,-1.7749,-1.786,-1.786,-1.786,-1.786,-1.786,-1.786,-1.786,-1.786,-1.786,-1.786,-1.8023,-1.8321,-1.8321,-1.8477,-1.8762,-1.8762,-1.8762,-1.8762,-1.8762,-1.8762,-1.8762,-1.8762,-1.8762,-1.8762,-1.8762,-1.8762,-1.8762,-1.8762,-1.8762,-1.8878,0.3842,0.3813,0.3793,0.3793,0.3782,0.3772,0.3772,0.3772,0.3761,0.373,0.3726,0.3592,0.3202,0.2834,0.2595,0.2595,0.2922,0.3141,0.3141,0.3365,0.3589,0.3589,0.3589,0.3589,0.3589,0.3253,0.3141,0.3141,0.2804,0.2804,0.3029,0.2131,0.1682,0.1682,0.1458,0.1009,0.0336,0.0,-0.0224,-0.0561,-0.1451,-0.2212,-0.2842,-0.3482,-0.4415,-0.5534,-0.5747,-0.5217,-0.4476,-0.5113,-0.543,-0.5749,-0.5749,-0.6493,-0.7556,-0.8087,-0.9148,-1.0318,-1.1271,-1.2223,-1.2968,-1.3496,-1.3781,-1.3955,-1.3955,-1.414,-1.432,-1.432,-1.432,-1.432,-1.432,-1.432,-1.432,-1.432,-1.432,-1.4436,-1.4758,-1.5086,-1.5424,-1.6096,-1.6982,-1.7652,-1.786,-1.786,-1.786,-1.786,-1.786,-1.786,-1.786,-1.786,-1.786,-1.786,-1.786,-1.786,-1.786,-1.786,-1.8023,-1.8321,-1.8321,-1.8477,-1.8762,-1.8762,-1.8762,-1.8762,-1.8762,-1.8762,-1.8762,-1.8762,-1.8762,-1.8762,-1.8762,-1.9001,-1.9342,-1.9683,-1.9806,-1.9806]},{"header":{"parameterUnit":"m.s-1","parameterCategory":1,"la1":30.6,"la2":28.766,"lo1":-90.7593,"lo2":-88.6598,"dx":0.0162,"dy":0.0183,"nx":116,"ny":114,"refTime":"2023-01-20T18:00:00:Z","depth":0,"parameterNumber":3,"parameterNumberName":"V-component_of_WINDS"},"data":[0.0,0.0,0.0,0.0,0.0,0.0,0.0,0.0,0.0,0.0,0.0,0.0,0.0,0.0,0.0,0.0,0.0,0.0,0.0,0.0,0.0,0.0,0.0,0.0,0.0,0.0,0.0,0.0,0.0,0.0,0.0,0.0,0.0,0.0,0.0,0.0,0.0,0.0,0.0,0.0,0.0,0.0,0.0,0.0,0.0,0.0,0.0,0.0,0.0,0.0,0.0,0.0,0.0,0.0,0.0,0.0,0.0,0.0,0.0,0.0,0.0,0.0,0.0,0.0,0.0,0.0,0.0,0.0,0.0,0.0,0.0,0.0,0.0,0.0,0.0,0.0,0.0,0.0,0.0,0.0,0.0,0.0,0.0,0.0,0.0,0.0,0.0,0.0,0.0,0.0,0.0,0.0,0.0,0.0,0.0,0.0,0.0,0.0,0.0,0.0,0.0,0.0,0.0,0.0,0.0,0.0,0.0,0.0,0.0,0.0,0.0,0.0,0.0,0.0,0.0,0.0,0.0,0.0,0.0,0.0,0.0,0.0,0.0,0.0,0.0,0.0,0.0,0.0,0.0,0.0,0.0,0.0,0.0,0.0,0.0,0.0,0.0,0.0,0.0,0.0,0.0,0.0,0.0,0.0,0.0,0.0,0.0,0.0,0.0,0.0,0.0,0.0,0.0,0.0,0.0,0.0,0.0,0.0,0.0,0.0,0.0,0.0,0.0,0.0,0.0,0.0,0.0,0.0,0.0,0.0,0.0,0.0,0.0,0.0,0.0,0.0,0.0,0.0,0.0,0.0,0.0,0.0,0.0,0.0,0.0,0.0,0.0,0.0,0.0,0.0,0.0,0.0,0.0,0.0,0.0,0.0,0.0,0.0,0.0,0.0,0.0,0.0,0.0,0.0,0.0,0.0,0.0,0.0,0.0,0.0,0.0,0.0,0.0,0.0,0.0,0.0,0.0,0.0,0.0,0.0,0.0,0.0,0.0,0.0,0.0,0.0,0.0,0.0,0.0,0.0,0.0,0.0,0.0,0.0,0.0,0.0,0.0,0.0,0.0,0.0,0.0,0.0,0.0,0.0,0.0,0.0,0.0,0.0,0.0,0.0,0.0,0.0,0.0,0.0,0.0,0.0,0.0,0.0,0.0,0.0,0.0,0.0,0.0,0.0,0.0,0.0,0.0,0.0,0.0,0.0,0.0,0.0,0.0,0.0,0.0,0.0,0.0,0.0,0.0,0.0,0.0,0.0,0.0,0.0,0.0,0.0,0.0,0.0,0.0,0.0,0.0,0.0,0.0,0.0,0.0,0.0,0.0,0.0,0.0,0.0,0.0,0.0,0.0,0.0,0.0,0.0,0.0,0.0,0.0,0.0,0.0,0.0,0.0,0.0,0.0,0.0,0.0,0.0,0.0,0.0,0.0,0.0,0.0,0.0,0.0,0.0,0.0,0.0,0.0,0.0,0.0,0.0,0.0,0.0,0.0,0.0,0.0,0.0,0.0,0.0,0.0,0.0,0.0,0.0,0.0,0.0,0.0,0.0,0.0,0.0,0.0,0.0,0.0,0.0,0.0,0.0,0.0,0.0,0.0,0.0,0.0,0.0,0.0,0.0,0.0,0.0,0.0,0.0,0.0,0.0,0.0,0.0,0.0,0.0,0.0,0.0,0.0,0.0,0.0,0.0,0.0,0.0,0.0,0.0,0.0,0.0,0.0,0.0,0.0,0.0,0.0,0.0,0.0,0.0,0.0,0.0,0.0,0.0,0.0,0.0,0.0,0.0,0.0,0.0,0.0,0.0,0.0,0.0,0.0,0.0,0.0,0.0,0.0,0.0,0.0,0.0,0.0,0.0,0.0,0.0,0.0,0.0,0.0,0.0,0.0,0.0,0.0,0.0,0.0,0.0,0.0,0.0,0.0,0.0,0.0,0.0,0.0,0.0,0.0,0.0,0.0,0.0,0.0,0.0,0.0,0.0,0.0,0.0,0.0,0.0,0.0,0.0,0.0,0.0,0.0,0.0,0.0,0.0,0.0,0.0,0.0,0.0,0.0,0.0,0.0,0.0,0.0,0.0,0.0,0.0,0.0,0.0,0.0,0.0,0.0,0.0,0.0,0.0,0.0,0.0,0.0,0.0,0.0,0.0,0.0,0.0,0.0,0.0,0.0,0.0,0.0,0.0,0.0,0.0,0.0,0.0,0.0,0.0,0.0,0.0,0.0,0.0,0.0,0.0,0.0,0.0,0.0,0.0,0.0,0.0,0.0,0.0,0.0,0.0,0.0,0.0,0.0,0.0,0.0,0.0,0.0,0.0,0.0,0.0,0.0,0.0,0.0,0.0,0.0,0.0,0.0,0.0,0.0,0.0,0.0,0.0,0.0,0.0,0.0,0.0,0.0,0.0,0.0,0.0,0.0,0.0,0.0,0.0,0.0,0.0,0.0,0.0,0.0,0.0,0.0,0.0,0.0,0.0,0.0,0.0,0.0,0.0,0.0,0.0,0.0,0.0,0.0,0.0,0.0,0.0,0.0,0.0,0.0,0.0,0.0,0.0,0.0,0.0,0.0,0.0,0.0,0.0,0.0,0.0,0.0,0.0,0.0,0.0,0.0,0.0,0.0,0.0,0.0,0.0,0.0,0.0,0.0,0.0,0.0,0.0,0.0,0.0,0.0,0.0,0.0,0.0,0.0,0.0,0.0,0.0,0.0,0.0,0.0,0.0,0.0,0.0,0.0,0.0,0.0,0.0,0.0,0.0,0.0,0.0,0.0,0.0,0.0,0.0,0.0,0.0,0.0,0.0,0.0,0.0,0.0,0.0,0.0,0.0,0.0,0.0,0.0,0.0,0.0,0.0,0.0,0.0,0.0,0.0,0.0,0.0,0.0,0.0,0.0,0.0,0.0,0.0,0.0,0.0,0.0,0.0,0.0,0.0,0.0,0.0,0.0,0.0,0.0,0.0,0.0,0.0,0.0,0.0,0.0,0.0,0.0,0.0,0.0,0.0,0.0,0.0,0.0,0.0,0.0,0.0,0.0,0.0,0.0,0.0,0.0,0.0,0.0,0.0,0.0,0.0,0.0,0.0,0.0,0.0,0.0,0.0,0.0,0.0,0.0,0.0,0.0,0.0,0.0,0.0,0.0,0.0,0.0,0.0,0.0,0.0,0.0,0.0,0.0,0.0,0.0,0.0,0.0,0.0,0.0,0.0,0.0,0.0,0.0,0.0,0.0,0.0,0.0,0.0,0.0,0.0,0.0,0.0,0.0,0.0,0.0,0.0,0.0,0.0,0.0,0.0,0.0,0.0,0.0,0.0,0.0,0.0,0.0,0.0,0.0,0.0,0.0,0.0,0.0,0.0,0.0,0.0,0.0,0.0,0.0,0.0,0.0,0.0,0.0,0.0,0.0,0.0,0.0,0.0,0.0,0.0,0.0,0.0,0.0,0.0,0.0,0.0,0.0,0.0,0.0,0.0,0.0,0.0,0.0,0.0,0.0,0.0,0.0,0.0,0.0,0.0,0.0,0.0,0.0,0.0,0.0,0.0,0.0,0.0,0.0,0.0,0.0,0.0,0.0,0.0,0.0,0.0,0.0,0.0,0.0,0.0,0.0,0.0,0.0,0.0,0.0,0.0,0.0,0.0,0.0,0.0,0.0,0.0,0.0,0.0,0.0,0.0,0.0,0.0,0.0,0.0,0.0,0.0,0.0,0.0,0.0,0.0,0.0,0.0,0.0,0.0,0.0,0.0,0.0,0.0,0.0,0.0,0.0,0.0,0.0,0.0,0.0,0.0,0.0,0.0,0.0,0.0,0.0,0.0,0.0,0.0,0.0,0.0,0.0,0.0,0.0,0.0,0.0,0.0,0.0,0.0,0.0,0.0,0.0,0.0,0.0,0.0,0.0,0.0,0.0,0.0,0.0,0.0,0.0,0.0,0.0,0.0,0.0,0.0,0.0,0.0,0.0,0.0,0.0,0.0,0.0,0.0,0.0,0.0,0.0,0.0,0.0,0.0,0.0,0.0,0.0,0.0,0.0,0.0,0.0,0.0,0.0,0.0,0.0,0.0,0.0,0.0,0.0,0.0,0.0,0.0,0.0,0.0,0.0,0.0,0.0,0.0,0.0,0.0,0.0,0.0,0.0,0.0,0.0,0.0,0.0,0.0,0.0,0.0,0.0,0.0,0.0,0.0,0.0,0.0,0.0,0.0,0.0,0.0,0.0,0.0,0.0,0.0,0.0,0.0,0.0,0.0,0.0,0.0,0.0,0.0,0.0,0.0,0.0,0.0,0.0,0.0,0.0,0.0,0.0,0.0,0.0,0.0,0.0,0.0,0.0,0.0,0.0,0.0,0.0,0.0,0.0,0.0,0.0,0.0,0.0,0.0,0.0,0.0,0.0,0.0,0.0,0.0,0.0,0.0,0.0,0.0,0.0,0.0,0.0,0.0,0.0,0.0,0.0,0.0,0.0,0.0,0.0,0.0,0.0,0.0,0.0,0.0,0.0,0.0,0.0,0.0,0.0,0.0,0.0,0.0,0.0,0.0,0.0,0.0,0.0,0.0,0.0,0.0,0.0,0.0,0.0,0.0,0.0,0.0,0.0,0.0,0.0,0.0,0.0,0.0,0.0,0.0,0.0,0.0,0.0,0.0,0.0,0.0,0.0,0.0,0.0,0.0,0.0,0.0,0.0,0.0,0.0,0.0,0.0,0.0,0.0,0.0,0.0,0.0,0.0,0.0,0.0,0.0,0.0,0.0,0.0,0.0,0.0,0.0,0.0,0.0,0.0,0.0,0.0,0.0,0.0,0.0,0.0,0.0,0.0,0.0,0.0,0.0,0.0,0.0,0.0,0.0,0.0,0.0,0.0,0.0,0.0,0.0,0.0,0.0,0.0,0.0,0.0,0.0,0.0,0.0,0.0,0.0,0.0,0.0,0.0,0.0,0.0,0.0,0.0,0.0,0.0,0.0,0.0,0.0,0.0,0.0,0.0,0.0,0.0,0.0,0.0,0.0,0.0,0.0,0.0,0.0,0.0,0.0,0.0,0.0,0.0,0.0,0.0,0.0,0.0,0.0,0.0,0.0,0.0,0.0,0.0,0.0,0.0,0.0,0.0,0.0,0.0,0.0,0.0,0.0,0.0,0.0,0.0,0.0,0.0,0.0,0.0,0.0,0.0,0.0,0.0,0.0,0.0,0.0,0.0,0.0,0.0,0.0,0.0,0.0,0.0,0.0,0.0,0.0,0.0,0.0,0.0,0.0,0.0,0.0,0.0,0.0,0.0,0.0,0.0,0.0,0.0,0.0,0.0,0.0,0.0,0.0,0.0,0.0,0.0,0.0,0.0,0.0,0.0,0.0,0.0,0.0,0.0,0.0,0.0,0.0,0.0,0.0,0.0,0.0,0.0,0.0,0.0,0.0,0.0,0.0,0.0,0.0,0.0,0.0,0.0,0.0,0.0,0.0,0.0,0.0,0.0,0.0,0.0,0.0,0.0,0.0,0.0,0.0,0.0,0.0,0.0,0.0,0.0,0.0,0.0,0.0,0.0,0.0,0.0,0.0,0.0,0.0,0.0,0.0,0.0,0.0,0.0,0.0,0.0,0.0,0.0,0.0,0.0,0.0,0.0,0.0,0.0,0.0,0.0,0.0,0.0,0.0,0.0,0.0,0.0,0.0,0.0,0.0,0.0,0.0,0.0,0.0,0.0,0.0,0.0,0.0,0.0,0.0,0.0,0.0,0.0,0.0,0.0,0.0,0.0,0.0,0.0,0.0,0.0,0.0,0.0,0.0,0.0,0.0,0.0,0.0,0.0,0.0,0.0,0.0,0.0,0.0,0.0,0.0,0.0,0.0,0.0,0.0,0.0,0.0,0.0,0.0,0.0,0.0,0.0,0.0,0.0,0.0,0.0,0.0,0.0,0.0,0.0,0.0,0.0,0.0,0.0,0.0,0.0,0.0,0.0,0.0,0.0,0.0,0.0,0.0,0.0,0.0,0.0,0.0,0.0,0.0,0.0,0.0,0.0,0.0,0.0,0.0,0.0,0.0,0.0,0.0,0.0,0.0,0.0,0.0,0.0,0.0,0.0,0.0,0.0,0.0,0.0,0.0,4.8207,0.0,0.0,0.0,0.0,0.0,0.0,0.0,0.0,0.0,0.0,0.0,0.0,0.0,0.0,0.0,0.0,0.0,0.0,0.0,0.0,0.0,0.0,0.0,0.0,0.0,0.0,0.0,0.0,0.0,0.0,0.0,0.0,0.0,0.0,0.0,0.0,0.0,0.0,0.0,0.0,0.0,0.0,0.0,0.0,0.0,0.0,0.0,0.0,0.0,0.0,0.0,0.0,0.0,0.0,0.0,0.0,0.0,0.0,0.0,0.0,0.0,0.0,0.0,0.0,0.0,0.0,0.0,0.0,0.0,0.0,0.0,0.0,0.0,0.0,0.0,0.0,0.0,0.0,0.0,0.0,0.0,0.0,0.0,0.0,0.0,0.0,0.0,0.0,0.0,0.0,0.0,0.0,0.0,0.0,0.0,0.0,0.0,0.0,0.0,0.0,0.0,0.0,0.0,0.0,0.0,0.0,0.0,0.0,0.0,0.0,0.0,0.0,0.0,0.0,0.0,0.0,4.9678,0.0,0.0,0.0,0.0,0.0,0.0,0.0,0.0,0.0,0.0,0.0,0.0,0.0,0.0,0.0,0.0,0.0,0.0,0.0,0.0,0.0,0.0,0.0,0.0,0.0,0.0,0.0,0.0,0.0,0.0,0.0,0.0,0.0,0.0,0.0,0.0,0.0,0.0,0.0,0.0,0.0,0.0,0.0,0.0,0.0,0.0,0.0,0.0,0.0,0.0,0.0,0.0,0.0,0.0,0.0,0.0,0.0,0.0,0.0,0.0,0.0,0.0,0.0,0.0,0.0,0.0,0.0,0.0,0.0,0.0,0.0,0.0,0.0,0.0,0.0,0.0,0.0,0.0,0.0,0.0,0.0,0.0,0.0,0.0,0.0,0.0,0.0,0.0,0.0,0.0,0.0,0.0,0.0,0.0,0.0,0.0,0.0,0.0,0.0,0.0,0.0,0.0,0.0,0.0,0.0,0.0,0.0,0.0,5.8979,5.9185,5.884,5.9788,5.9973,5.9273,5.5312,5.3388,5.2905,0.0,0.0,0.0,0.0,0.0,0.0,0.0,0.0,0.0,0.0,0.0,0.0,0.0,0.0,0.0,0.0,0.0,0.0,0.0,0.0,0.0,0.0,0.0,0.0,0.0,0.0,0.0,0.0,0.0,0.0,0.0,0.0,0.0,0.0,5.8856,5.8813,5.873,0.0,5.8801,5.8925,5.8551,5.8428,5.8508,5.8209,0.0,0.0,0.0,0.0,0.0,0.0,0.0,0.0,0.0,0.0,0.0,0.0,0.0,0.0,0.0,0.0,0.0,0.0,0.0,0.0,0.0,0.0,0.0,0.0,0.0,0.0,0.0,0.0,0.0,0.0,0.0,0.0,0.0,0.0,0.0,0.0,0.0,0.0,0.0,0.0,0.0,0.0,0.0,5.4361,5.4141,0.0,0.0,0.0,0.0,0.0,0.0,0.0,0.0,0.0,0.0,0.0,0.0,0.0,5.8805,6.0644,6.1243,6.209,6.3228,6.4058,6.4173,6.371,6.4648,6.462,6.3783,6.2539,0.0,5.6931,5.545,0.0,0.0,0.0,0.0,0.0,0.0,0.0,0.0,0.0,0.0,0.0,0.0,0.0,0.0,0.0,0.0,0.0,0.0,0.0,0.0,0.0,0.0,0.0,0.0,0.0,0.0,0.0,0.0,0.0,0.0,0.0,0.0,5.9811,6.0079,6.0261,6.0343,6.0282,6.0384,6.0564,6.022,6.0072,6.0157,5.9767,5.9048,5.8215,5.8674,0.0,0.0,0.0,0.0,0.0,0.0,0.0,0.0,0.0,0.0,0.0,0.0,0.0,0.0,0.0,0.0,0.0,0.0,0.0,0.0,0.0,0.0,0.0,0.0,0.0,0.0,0.0,0.0,0.0,0.0,0.0,0.0,0.0,0.0,0.0,0.0,0.0,0.0,0.0,5.6237,5.5949,5.617,5.5714,5.5053,0.0,0.0,0.0,0.0,0.0,0.0,0.0,0.0,0.0,6.1045,6.2457,6.3833,6.5199,6.6338,6.7439,6.8476,6.9274,6.983,7.0142,7.0215,6.9996,6.9442,6.7917,6.6236,6.4274,6.0267,5.8394,5.8061,0.0,0.0,0.0,0.0,5.5646,5.5483,0.0,0.0,0.0,0.0,0.0,0.0,0.0,0.0,0.0,0.0,0.0,0.0,0.0,0.0,0.0,5.9061,0.0,0.0,0.0,0.0,0.0,0.0,0.0,6.0923,6.0631,6.1044,6.1454,6.1807,6.1868,6.1988,6.2165,6.1851,6.1595,6.145,6.1113,6.0182,5.8909,5.9183,5.9316,0.0,0.0,0.0,0.0,0.0,0.0,0.0,0.0,0.0,0.0,0.0,0.0,0.0,0.0,0.0,0.0,0.0,0.0,0.0,0.0,0.0,0.0,0.0,0.0,0.0,0.0,0.0,0.0,0.0,0.0,0.0,0.0,0.0,0.0,0.0,0.0,0.0,0.0,5.7729,5.7765,5.855,5.8216,5.7878,0.0,0.0,0.0,0.0,0.0,0.0,6.2699,6.348,6.4664,6.646,6.8,6.9151,6.989,7.1298,7.2372,7.311,7.391,7.4624,7.5176,7.4866,7.4464,7.3922,7.2116,7.1154,7.0417,6.4694,6.1974,6.1355,6.0657,6.0026,5.9404,5.9165,5.9139,5.9216,0.0,0.0,0.0,0.0,0.0,0.0,0.0,0.0,0.0,0.0,0.0,0.0,0.0,0.0,5.898,5.9158,5.9196,5.9609,0.0,0.0,0.0,6.1955,6.1017,6.0768,6.1499,6.1511,6.1881,6.2629,6.2816,6.3012,6.3238,6.2952,6.25,6.1864,6.1612,6.1183,6.072,6.1495,6.1997,6.2188,0.0,0.0,0.0,0.0,0.0,0.0,0.0,0.0,0.0,0.0,0.0,0.0,0.0,0.0,0.0,0.0,0.0,0.0,0.0,0.0,0.0,0.0,0.0,0.0,0.0,0.0,0.0,0.0,0.0,0.0,0.0,0.0,0.0,0.0,0.0,0.0,0.0,0.0,0.0,6.1235,6.1875,0.0,0.0,0.0,0.0,6.4888,6.5026,6.6132,6.8633,6.9539,7.0661,7.2255,7.3816,7.4783,7.5047,7.5851,7.6421,7.6651,7.749,7.7555,7.6983,7.7714,7.7265,7.5916,7.5035,7.4221,7.312,6.8211,6.6192,6.6082,6.5275,6.4867,6.4725,6.4699,6.4619,6.4429,0.0,0.0,0.0,0.0,0.0,0.0,0.0,0.0,0.0,6.1659,0.0,0.0,0.0,6.1393,6.1017,6.1073,6.1128,6.1241,6.145,0.0,0.0,6.2841,6.286,6.3268,6.4094,6.3586,6.4284,6.6284,6.5875,6.6011,6.6692,6.5935,6.548,6.5237,6.4963,6.4758,6.4497,6.2497,6.1693,6.1736,6.189,6.2066,0.0,0.0,0.0,0.0,0.0,0.0,0.0,0.0,0.0,0.0,0.0,0.0,0.0,0.0,0.0,0.0,0.0,0.0,0.0,0.0,0.0,0.0,0.0,0.0,0.0,0.0,0.0,0.0,0.0,0.0,0.0,0.0,0.0,0.0,0.0,0.0,0.0,6.5184,6.5586,0.0,6.7065,6.7203,6.7806,6.9229,7.0278,7.1721,7.3667,7.5008,7.6239,7.7289,7.855,7.9197,7.9265,7.9657,8.0226,8.0868,8.116,8.126,8.1135,8.0915,8.025,7.9176,7.7855,7.7121,7.668,7.4404,7.1945,6.9559,6.9265,6.8834,6.8303,6.822,6.7863,6.7415,0.0,0.0,0.0,0.0,0.0,0.0,0.0,0.0,0.0,6.2673,6.2178,6.2113,6.2982,6.2478,6.2102,6.214,6.2176,6.2271,6.2464,0.0,0.0,6.3839,6.4425,6.5229,6.6333,6.5928,6.6858,6.9204,6.8792,6.8887,6.9493,6.883,6.8337,6.8034,6.7859,6.7761,6.7648,6.5306,6.3926,6.3259,6.3198,6.3259,6.3228,0.0,0.0,0.0,0.0,0.0,0.0,0.0,0.0,0.0,0.0,0.0,0.0,0.0,0.0,0.0,0.0,0.0,0.0,0.0,0.0,0.0,0.0,0.0,0.0,0.0,0.0,0.0,0.0,0.0,0.0,0.0,0.0,0.0,0.0,0.0,6.7616,6.9741,7.021,7.0887,7.2095,7.2272,7.2955,7.4609,7.5732,7.7144,7.9028,8.0151,8.1128,8.1997,8.2684,8.3045,8.3186,8.307,8.3317,8.4,8.3744,8.3701,8.3801,8.2957,8.2186,8.1342,7.9984,7.925,7.8956,7.8369,7.657,7.4074,7.3266,7.2606,7.2092,7.172,7.1309,7.0881,0.0,0.0,0.0,0.0,0.0,0.0,0.0,0.0,0.0,6.2856,6.2601,6.2366,6.2339,6.2199,6.2145,6.2342,6.2309,6.2667,6.3676,6.2993,0.0,6.4926,6.5577,6.6593,6.8103,6.8447,6.9473,7.1158,7.1407,7.1481,7.1446,7.1408,7.0953,7.0062,7.0043,7.0043,7.0043,7.0043,6.9001,6.7162,6.5076,6.4459,6.4596,0.0,0.0,0.0,0.0,0.0,0.0,0.0,0.0,0.0,0.0,0.0,0.0,0.0,0.0,0.0,0.0,0.0,0.0,0.0,0.0,0.0,0.0,0.0,0.0,0.0,0.0,0.0,0.0,0.0,0.0,0.0,0.0,0.0,6.7981,6.9233,7.1561,7.4702,7.5855,7.7009,7.8738,7.8883,7.9535,8.1128,8.1309,8.236,8.4678,8.4859,8.5333,8.6318,8.6355,8.6502,8.6825,8.6018,8.5722,8.5894,8.5086,8.4719,8.4646,8.3838,8.303,8.2186,8.1415,8.0608,7.9874,7.9874,7.9874,7.9617,7.7157,7.6203,7.613,7.5359,7.5065,7.4948,0.0,0.0,0.0,0.0,0.0,0.0,0.0,0.0,6.3307,6.389,6.4335,6.4825,6.5275,6.5766,6.6056,6.6108,6.6038,6.617,6.6624,0.0,6.648,6.7542,6.7825,6.9001,7.1199,7.1352,7.2567,7.4923,7.4391,7.4448,7.4981,7.4296,7.3858,7.3611,7.357,7.353,7.353,7.353,7.3225,7.2465,6.8829,6.7411,6.7373,0.0,0.0,0.0,0.0,0.0,0.0,0.0,0.0,0.0,0.0,0.0,0.0,0.0,0.0,0.0,0.0,0.0,0.0,0.0,0.0,0.0,0.0,0.0,0.0,0.0,0.0,0.0,0.0,0.0,0.0,0.0,0.0,7.4921,7.2485,7.4483,7.6975,7.9139,8.0622,8.1889,8.2939,8.3048,8.3483,8.4497,8.5619,8.6523,8.7213,8.8336,8.9177,8.9589,8.9196,8.9092,8.9386,8.8688,8.8356,8.8426,8.7582,8.6921,8.6334,8.5527,8.4389,8.3067,8.2847,8.2296,8.1525,8.1525,8.1525,8.1342,7.9507,7.8772,7.8767,7.867,7.8313,7.7769,0.0,0.0,0.0,0.0,0.0,0.0,0.0,0.0,6.4437,6.4895,6.5523,6.6117,6.6472,6.714,6.7566,6.7566,6.7873,6.7946,6.774,0.0,6.8729,7.0157,7.0363,7.1749,7.4619,7.4733,7.5837,7.8065,7.7646,7.7627,7.7987,7.7434,7.7126,7.7024,7.7,7.6979,7.6979,7.6979,7.6979,7.6714,7.3568,7.1445,7.0043,6.8754,6.8204,6.8105,6.784,6.7064,6.606,6.5365,0.0,0.0,0.0,0.0,0.0,0.0,0.0,0.0,0.0,0.0,0.0,0.0,0.0,0.0,0.0,0.0,0.0,0.0,0.0,0.0,0.0,0.0,0.0,0.0,7.7834,8.0276,7.9534,8.0695,8.2214,8.388,8.5185,8.6271,8.7068,8.7177,8.7541,8.8416,8.9322,9.0014,9.0495,9.1403,9.1994,9.2189,9.1866,9.1799,9.2023,9.0923,9.0408,9.0408,8.9271,8.828,8.7472,8.6664,8.56,0.0,8.4058,8.3471,8.27,8.27,8.2517,0.0,0.0,0.0,0.0,0.0,7.9933,7.9527,0.0,0.0,0.0,0.0,0.0,0.0,0.0,0.0,6.5808,6.573,6.6313,6.6704,6.6646,6.7317,6.78,6.778,6.8501,6.8689,6.8071,6.901,7.0594,7.2832,7.3173,7.4771,7.8065,7.8275,7.9114,8.0678,8.0736,8.0679,8.0502,8.0482,8.0397,8.0206,8.0298,8.0277,8.0201,8.0277,8.0239,8.0049,7.8457,7.588,7.2792,7.1104,7.0363,7.0166,7.0146,6.9395,6.8382,6.8039,0.0,0.0,0.0,0.0,0.0,0.0,0.0,0.0,0.0,0.0,0.0,0.0,0.0,0.0,0.0,0.0,0.0,0.0,0.0,0.0,0.0,0.0,0.0,0.0,8.2479,8.588,8.7545,8.7433,8.7505,8.8517,8.9314,9.0074,9.0839,9.0911,9.1281,9.2206,9.2354,9.2833,9.3759,0.0,0.0,0.0,0.0,9.4221,9.441,9.2868,9.206,9.206,9.0445,8.9307,8.8573,8.7692,8.6775,8.5894,8.5196,8.4352,8.3544,8.3544,8.3104,8.2402,8.1521,8.1213,8.1292,8.0782,8.0704,8.0785,0.0,0.0,0.0,0.0,0.0,0.0,0.0,6.5866,6.5897,6.573,6.6849,6.7588,6.7385,6.8635,6.9492,6.9579,6.9731,7.0088,7.0726,7.2329,7.3993,7.559,7.6332,7.8008,8.0792,8.0849,8.1404,8.2512,8.2531,8.2512,8.2435,8.2294,8.2192,8.2188,8.2678,8.2513,8.1944,8.2589,8.2513,8.1831,8.0807,7.8798,7.6259,7.4553,7.3927,7.3866,7.3624,7.2989,7.2052,7.0822,6.9751,6.8724,6.7704,0.0,0.0,0.0,0.0,0.0,0.0,0.0,0.0,0.0,0.0,0.0,0.0,0.0,0.0,0.0,0.0,0.0,0.0,0.0,0.0,8.3681,8.8033,9.1395,9.1988,9.3655,9.3865,9.1378,9.1813,9.2437,9.2743,9.2784,9.2936,9.3392,9.3975,9.4376,9.4598,9.5218,0.0,9.5936,9.5313,9.5025,9.529,9.4299,9.3822,9.3786,0.0,0.0,9.1033,8.9601,8.8169,8.6775,8.6628,8.571,8.4389,8.4389,8.4378,8.4216,8.2711,8.225,8.2406,8.2406,8.252,8.2564,0.0,0.0,0.0,0.0,0.0,0.0,0.0,6.631,6.6278,6.6987,6.763,6.8128,6.847,6.9489,7.0199,7.0315,7.073,7.1701,7.333,7.4839,7.6467,7.8313,7.9267,8.0926,8.3484,8.3523,8.4211,8.555,8.555,8.5471,8.5349,8.5245,8.5154,8.506,8.5364,8.528,8.4939,8.5318,8.5014,8.4181,8.3347,8.1982,8.0277,7.8192,7.7396,7.7375,7.723,7.6414,7.5216,7.435,7.3189,7.1986,7.1266,7.0103,6.8754,0.0,0.0,0.0,0.0,0.0,0.0,0.0,0.0,0.0,0.0,0.0,0.0,0.0,0.0,7.7488,0.0,0.0,8.6522,8.88,9.2278,9.4874,9.5247,9.6782,9.6996,9.4627,9.5058,9.5612,9.5858,9.5899,9.6016,9.6216,9.6582,9.6841,9.696,9.696,9.6999,9.7154,9.6348,9.5983,9.6098,9.529,9.4887,9.4887,9.3639,9.2611,9.1767,9.0959,8.9748,8.8206,8.8206,8.736,8.5882,8.5136,8.4903,8.4926,8.4178,8.3719,8.3368,8.3113,8.3024,8.2987,0.0,0.0,0.0,0.0,0.0,0.0,0.0,0.0,0.0,6.8051,6.8177,6.846,6.9327,6.9995,7.0445,7.0555,7.1551,7.3054,7.5094,7.6645,7.8449,8.0583,8.1881,8.3524,8.5702,8.5932,8.6696,8.811,8.811,8.7968,8.7737,8.7715,8.7581,8.7426,8.7554,8.7554,8.7402,8.7554,8.7061,8.6038,8.5393,8.4635,8.3612,8.1641,8.0656,8.039,8.039,7.9405,7.8057,7.765,7.6512,7.5231,7.4699,7.3508,7.2103,7.1168,7.0144,0.0,0.0,0.0,0.0,0.0,0.0,0.0,0.0,0.0,7.7304,7.991,8.1746,8.3581,8.582,8.8757,9.1473,9.345,9.58,9.7523,9.7783,9.8672,9.8887,9.7866,9.8001,9.8261,9.8546,9.8546,9.8627,9.883,9.887,9.891,9.9108,9.8484,9.8043,9.7897,9.7273,9.6869,9.6685,9.6061,9.5731,9.5731,9.4923,9.3822,9.2501,9.2207,9.1253,8.9894,8.9635,8.8858,8.774,8.6578,8.601,8.5862,8.5905,8.538,8.4528,8.3871,8.3432,8.3133,0.0,0.0,0.0,0.0,0.0,0.0,0.0,0.0,0.0,6.7241,6.782,6.8517,6.9289,0.0,7.057,7.0758,7.2328,7.3682,7.4565,7.7517,7.996,8.1557,8.3868,8.5588,8.6658,8.7422,8.788,8.811,8.811,8.801,8.7883,8.7759,8.7626,8.7528,8.817,8.8084,8.744,8.816,8.7554,8.6114,8.6,8.5469,8.4711,8.4446,8.3422,8.2096,8.2096,8.1489,8.0558,7.9577,7.9108,7.8586,7.6883,7.6078,7.5518,7.4005,0.0,7.2154,0.0,0.0,0.0,7.6774,7.6654,7.7059,0.0,0.0,8.3361,8.6481,8.8426,9.0078,9.184,9.4189,9.6208,9.7161,9.8778,9.9836,9.9704,10.0399,10.0912,10.0724,9.939,9.8546,9.8749,9.8789,9.887,9.9069,9.9069,9.9069,9.9108,9.9035,9.8631,9.7897,9.7787,9.7419,9.6722,9.6612,9.6575,9.6575,9.5768,9.529,9.507,9.3602,9.2537,9.1725,9.0497,8.9827,8.9676,8.9695,8.9243,8.8502,8.799,8.7179,8.6238,8.5423,8.4713,8.3985,0.0,0.0,0.0,0.0,0.0,0.0,0.0,0.0,0.0,0.0,0.0,6.8975,0.0,7.0284,7.0346,7.0819,7.2,7.3442,7.5079,7.836,8.0935,8.2435,8.49,8.6678,8.7598,8.838,8.9068,8.9626,8.9544,8.9499,8.9354,8.9206,8.9072,8.8956,8.9289,8.918,8.8805,8.8796,8.8098,8.6875,8.645,8.5788,8.5028,8.4497,8.3889,8.3281,8.3149,8.1951,0.0,0.0,7.9848,7.9037,7.8655,7.781,7.6821,7.6164,7.5577,0.0,7.6667,0.0,0.0,0.0,8.2118,8.35,8.7215,8.8206,8.9087,9.1877,9.3345,9.452,9.5658,9.7493,9.8924,0.0,10.0283,10.1017,10.0896,10.1189,10.1409,10.1409,10.0705,10.0522,10.1006,10.1116,10.1303,10.1898,10.1494,10.12,10.12,10.0319,9.9659,9.9292,9.8374,9.775,9.7383,9.6942,9.6685,9.6685,9.6355,9.5951,9.5474,9.4926,9.4043,9.2895,9.1995,9.1324,9.0876,9.056,9.0216,8.9845,8.9575,8.9177,8.8424,8.6201,8.5039,8.4516,0.0,0.0,0.0,0.0,0.0,0.0,0.0,0.0,0.0,0.0,0.0,0.0,0.0,7.0409,7.0182,7.0862,7.1489,7.2842,7.5226,7.8338,8.0876,8.2664,8.515,8.6948,8.7887,8.8651,8.9358,9.003,8.995,8.9978,9.004,8.9952,8.9954,9.0067,9.0067,8.9868,8.9569,8.9163,8.8273,8.7141,8.6622,8.579,8.4762,8.4153,8.3316,8.2555,8.2673,8.1376,0.0,0.0,7.9381,7.8528,7.9069,7.8685,7.804,7.7813,7.7997,7.8733,8.0739,0.0,0.0,8.5291,8.7271,8.9271,9.1473,9.2758,9.3969,9.5768,9.6979,9.786,9.8447,9.9695,0.0,10.0613,10.109,10.1494,10.1494,10.1494,10.1494,10.1494,10.1494,10.1788,10.2595,10.2705,10.2925,10.3513,10.3219,10.2925,10.2705,10.1604,10.0796,10.0319,9.9181,9.8447,9.8227,9.7419,9.7016,9.7016,9.6795,9.643,9.588,9.5921,9.5254,9.3992,9.361,9.2973,9.2228,9.1697,9.1274,9.0897,9.0801,9.0522,8.9909,8.748,8.6103,8.543,0.0,0.0,0.0,0.0,0.0,0.0,0.0,0.0,0.0,0.0,0.0,0.0,0.0,0.0,7.0194,7.0928,7.0977,7.1972,7.4459,7.6914,7.9395,8.1925,8.4402,8.6164,8.7101,8.7982,8.8366,8.8288,8.825,8.8571,8.9163,8.9141,8.9517,9.0205,9.0205,8.9786,8.9003,8.9003,8.8013,8.6415,8.6415,8.5409,8.3963,8.3925,8.1911,7.9247,8.0104,0.0,0.0,0.0,7.7622,7.7521,7.7493,7.8571,0.0,7.8798,7.9985,0.0,0.0,0.0,8.6902,8.9706,9.1657,9.3345,9.4997,9.6575,9.7713,9.7787,9.9071,10.0209,10.0209,10.0907,10.1494,10.1494,10.1494,10.1494,10.1494,10.1494,10.1494,10.1494,10.1494,10.1788,0.0,10.2705,10.2705,10.2705,10.3403,10.3513,10.2705,10.2705,10.1898,10.0319,10.0283,9.9842,9.9071,9.8264,9.786,9.7823,9.7052,9.68,9.6915,9.6506,9.5832,9.5054,9.5226,9.4883,9.414,9.4102,9.3235,9.1912,9.1594,9.0943,9.0169,8.9725,8.8557,8.705,0.0,0.0,0.0,0.0,0.0,0.0,0.0,0.0,0.0,0.0,0.0,0.0,0.0,0.0,0.0,0.0,6.9604,7.028,7.2784,7.5288,7.7774,8.0256,8.2751,8.4532,8.5483,8.6256,8.6697,8.6734,8.7235,8.7562,8.7791,8.8267,8.8627,8.8874,8.8874,8.8638,8.8145,8.7208,8.6406,8.5734,8.4589,8.3524,8.2645,8.2588,8.0849,7.8376,0.0,0.0,0.0,0.0,0.0,0.0,7.7161,0.0,0.0,8.0188,0.0,0.0,0.0,0.0,9.0732,9.3859,9.5878,9.764,9.9805,10.0283,10.0393,10.098,10.0209,9.9512,9.9512,9.9292,9.9292,9.9805,10.0393,10.0907,10.1384,10.1494,10.1494,10.1494,10.1494,0.0,0.0,0.0,0.0,10.421,10.399,10.399,10.432,10.3806,10.2999,10.1898,10.1384,10.0686,9.9916,9.9108,9.8704,9.8704,9.786,9.7391,9.7211,9.7026,9.6578,9.5906,9.5976,9.5529,9.475,9.4197,9.3712,9.3222,9.2532,9.206,9.1592,9.0762,9.007,8.9268,0.0,0.0,0.0,0.0,0.0,0.0,0.0,0.0,0.0,0.0,0.0,0.0,0.0,0.0,0.0,0.0,0.0,6.8858,7.1055,7.3321,7.5634,7.8119,8.0366,8.1973,8.2918,8.3406,8.3679,8.3713,8.4199,8.4875,8.5759,8.624,8.6777,8.7351,8.7351,8.7082,8.6581,8.536,8.4595,8.4079,8.209,8.1015,8.0583,7.9939,7.8518,0.0,0.0,0.0,0.0,0.0,0.0,0.0,0.0,0.0,0.0,0.0,0.0,0.0,0.0,9.1829,9.4263,9.7236,9.9218,10.0796,10.2301,10.2301,10.1898,10.1898,10.0209,9.8594,9.83,9.7823,9.7713,9.8557,9.9585,10.0576,10.1384,10.1494,10.1494,10.1494,10.1494,0.0,0.0,0.0,0.0,10.4614,10.4504,10.4614,10.5128,10.4614,10.399,10.3182,10.2301,10.1718,10.1284,10.0218,9.9522,9.9305,9.8572,9.8022,9.7728,9.7613,9.7311,9.6827,9.7003,9.6588,9.5808,9.4957,9.447,9.4165,9.3148,9.2748,9.264,9.1747,9.1389,9.1097,0.0,0.0,0.0,0.0,0.0,0.0,0.0,0.0,0.0,0.0,0.0,0.0,0.0,0.0,0.0,0.0,0.0,0.0,6.9365,7.1017,7.3014,7.5526,7.7239,7.8577,7.9515,7.9592,7.9546,7.9428,7.9467,8.0685,8.2978,8.3055,8.3898,8.5432,8.5432,8.501,8.4243,8.3344,8.25,8.1521,7.905,7.8053,7.7878,7.6366,0.0,0.0,0.0,0.0,0.0,0.0,0.0,0.0,0.0,0.0,0.0,0.0,0.0,8.8479,9.1808,9.4742,9.7456,9.9879,10.1604,10.2815,10.2815,10.2705,10.2191,10.0613,9.8888,9.7456,0.0,0.0,9.6832,9.7676,9.9255,10.0686,10.1494,10.1604,10.1604,0.0,0.0,0.0,0.0,0.0,0.0,10.388,0.0,10.5128,10.5201,10.5201,10.4798,10.399,10.3182,10.2901,10.3101,10.1481,10.0382,9.9797,9.9205,9.8798,9.8504,9.8261,9.8027,9.7852,9.8229,9.7946,9.7199,9.6303,9.5576,9.4809,9.3481,9.3146,9.3332,9.2647,9.2547,9.2428,0.0,0.0,0.0,0.0,0.0,0.0,0.0,0.0,0.0,0.0,0.0,0.0,0.0,0.0,0.0,0.0,0.0,0.0,6.7515,6.8646,7.0095,7.2016,7.3803,7.5139,7.5976,7.663,7.6962,7.6908,7.7562,7.82,7.8838,7.9453,7.9953,8.0376,8.0376,8.0213,7.9917,7.9034,7.8535,7.8212,0.0,7.6025,7.5671,0.0,0.0,0.0,0.0,0.0,0.0,0.0,0.0,0.0,0.0,0.0,8.1896,0.0,0.0,9.066,9.4559,9.7498,9.9952,10.2375,10.3293,10.3586,10.3586,10.2705,10.131,9.9732,9.7163,9.496,0.0,0.0,0.0,9.6795,9.9365,0.0,10.3109,10.3293,0.0,0.0,0.0,10.3293,10.3293,10.3476,0.0,0.0,10.5018,10.5422,10.6009,10.6082,10.5715,10.4798,10.4816,10.4497,10.3985,10.3112,10.2125,10.0796,10.05,9.9834,9.8865,9.8783,9.8479,9.8023,9.8125,9.8046,9.7785,9.6965,9.6178,9.532,9.4403,9.3695,9.3205,9.2881,9.2814,9.281,0.0,0.0,0.0,0.0,0.0,0.0,0.0,0.0,0.0,0.0,0.0,0.0,0.0,0.0,0.0,0.0,0.0,0.0,0.0,6.7198,6.8315,6.9592,7.1035,7.2052,7.2514,7.2976,7.3399,7.3745,7.4245,7.5053,7.6169,7.663,7.7053,7.74,7.74,7.737,7.7286,7.6402,0.0,0.0,0.0,0.0,0.0,0.0,0.0,0.0,0.0,0.0,0.0,0.0,0.0,7.9304,8.2382,8.4168,8.5729,8.8619,0.0,9.4446,9.7456,9.9989,10.2191,10.3586,10.388,10.3513,10.2118,10.0796,9.9255,9.6942,9.4446,0.0,0.0,0.0,0.0,0.0,0.0,0.0,10.3696,10.421,10.4394,0.0,10.4798,0.0,10.4981,10.5275,10.5678,0.0,10.5899,10.6009,10.689,10.7294,10.7299,10.687,10.6296,10.5616,10.4595,10.4273,10.3574,10.2389,10.187,10.1092,9.9977,9.948,9.9026,9.8646,0.0,9.8455,9.8385,9.7498,9.6863,9.6404,9.5454,9.4889,9.4535,9.3908,9.3727,9.3754,0.0,0.0,0.0,0.0,0.0,0.0,0.0,0.0,0.0,0.0,0.0,0.0,0.0,0.0,0.0,0.0,0.0,0.0,0.0,0.0,6.7135,6.786,6.8831,6.936,6.936,6.9475,6.986,7.0552,7.0552,7.1706,7.386,7.386,7.4284,7.5014,7.513,0.0,0.0,0.0,0.0,0.0,0.0,0.0,0.0,0.0,0.0,0.0,0.0,0.0,0.0,0.0,8.1019,8.2023,8.4993,8.7784,9.0292,9.1876,9.5144,9.8557,10.0209,10.2191,10.388,10.399,10.377,10.2819,9.9659,9.8266,9.6687,9.3418,0.0,0.0,8.9417,9.1253,9.3529,9.5364,0.0,10.2081,10.399,10.4908,10.5422,10.5422,10.6192,10.6706,10.6706,10.7294,10.7771,10.7771,10.7226,10.7189,10.7819,10.8481,10.9013,10.9187,10.7713,10.6404,10.528,10.5321,10.4913,10.3984,10.3204,10.2277,10.1313,10.0174,9.9635,9.9348,0.0,0.0,9.8774,9.7898,9.7593,9.7498,9.6499,9.6225,9.6223,9.5152,9.4815,9.4826,0.0,0.0,0.0,0.0,0.0,0.0,0.0,0.0,0.0,0.0,0.0,0.0,0.0,0.0,0.0,0.0,0.0,0.0,0.0,0.0,0.0,6.6202,6.7089,6.7552,6.7552,6.8244,0.0,0.0,0.0,6.9052,6.9513,6.9513,6.959,6.9744,0.0,0.0,0.0,0.0,0.0,0.0,0.0,0.0,0.0,0.0,0.0,0.0,0.0,0.0,0.0,0.0,8.1541,8.361,8.7179,8.9759,9.1876,9.4189,9.7236,10.0209,10.1824,10.3109,10.41,10.4724,10.3489,10.1473,9.8707,9.7132,0.0,0.0,0.0,8.9381,8.8573,9.0372,9.3015,9.6025,0.0,0.0,0.0,0.0,10.7183,0.0,0.0,0.0,0.0,0.0,0.0,0.0,0.0,10.9429,10.8914,10.9082,10.9399,10.9677,10.8678,10.7797,10.7103,10.6473,10.5508,10.3984,10.3799,10.3089,10.1881,10.0979,10.0296,9.9755,9.899,0.0,9.8492,9.8402,9.7916,9.7221,9.7135,9.6781,9.6137,9.5214,9.5007,9.5045,0.0,0.0,0.0,0.0,0.0,0.0,0.0,0.0,0.0,0.0,0.0,0.0,0.0,0.0,0.0,0.0,0.0,0.0,0.0,0.0,0.0,0.0,0.0,0.0,0.0,0.0,0.0,0.0,0.0,0.0,0.0,0.0,0.0,0.0,0.0,0.0,0.0,0.0,0.0,0.0,0.0,0.0,0.0,0.0,0.0,0.0,0.0,0.0,0.0,0.0,8.095,8.5119,8.9263,9.2018,9.4299,9.7163,9.9402,10.1274,10.2889,10.3586,10.3994,10.4481,10.25,9.9669,9.6801,0.0,0.0,0.0,0.0,8.8059,8.7655,8.9895,0.0,0.0,0.0,0.0,0.0,0.0,0.0,0.0,0.0,0.0,0.0,0.0,0.0,0.0,0.0,11.0793,10.9803,11.0396,11.0717,11.0391,11.0103,10.9403,10.8294,10.7999,10.6995,10.5396,10.5096,10.4382,10.3288,10.212,10.1106,10.0283,9.9595,0.0,9.8395,9.8492,9.8263,9.7889,9.7985,9.7855,9.7505,9.668,9.611,9.5743,0.0,0.0,0.0,0.0,0.0,0.0,0.0,0.0,0.0,0.0,0.0,0.0,0.0,0.0,0.0,0.0,0.0,0.0,0.0,0.0,0.0,0.0,0.0,0.0,0.0,0.0,0.0,0.0,0.0,0.0,0.0,0.0,0.0,0.0,0.0,0.0,0.0,0.0,0.0,0.0,0.0,0.0,0.0,0.0,0.0,0.0,0.0,0.0,0.0,0.0,7.9809,8.4996,8.9467,9.2904,9.5768,9.8303,10.0212,10.1828,10.3076,10.3595,10.3709,10.369,10.1292,9.8161,9.5037,9.2426,0.0,0.0,8.6995,8.6995,8.6995,8.9087,9.0996,0.0,9.463,0.0,0.0,0.0,0.0,0.0,0.0,0.0,0.0,0.0,0.0,0.0,0.0,0.0,11.0918,11.1761,11.2075,11.1481,11.138,11.0714,10.9225,10.9193,10.8373,10.6697,10.6093,10.5415,10.4478,10.3006,10.1921,10.1114,10.0204,0.0,0.0,9.8469,9.846,9.8552,9.8616,9.8711,9.873,9.7996,9.7313,9.6689,0.0,0.0,0.0,0.0,0.0,0.0,0.0,0.0,0.0,0.0,0.0,0.0,0.0,0.0,0.0,0.0,0.0,0.0,0.0,0.0,0.0,0.0,0.0,0.0,0.0,0.0,0.0,0.0,0.0,0.0,0.0,0.0,0.0,0.0,0.0,0.0,0.0,0.0,0.0,0.0,0.0,0.0,0.0,0.0,0.0,0.0,0.0,0.0,0.0,0.0,0.0,8.1555,8.5577,9.0289,9.4484,9.4927,0.0,0.0,10.1917,10.2509,10.2991,10.2415,10.0423,9.7691,9.43,0.0,0.0,8.7543,8.6995,8.6995,8.6995,8.7252,8.839,0.0,0.0,9.5144,0.0,0.0,0.0,0.0,0.0,0.0,0.0,0.0,0.0,0.0,0.0,0.0,11.2811,11.2999,11.3,11.2925,11.2178,11.1282,11.0273,10.9715,10.8483,10.6697,10.6093,10.541,10.4721,10.311,10.2211,10.2103,10.04,0.0,0.0,9.8693,9.8395,9.8427,9.8552,9.8616,9.8567,9.8012,9.7852,9.7875,0.0,0.0,0.0,0.0,0.0,0.0,0.0,0.0,0.0,0.0,0.0,0.0,0.0,0.0,0.0,0.0,0.0,0.0,0.0,0.0,0.0,0.0,0.0,0.0,0.0,0.0,0.0,0.0,0.0,0.0,0.0,0.0,0.0,0.0,0.0,0.0,0.0,0.0,0.0,0.0,0.0,0.0,0.0,0.0,0.0,0.0,0.0,0.0,0.0,0.0,0.0,0.0,8.017,8.4534,0.0,0.0,9.5995,9.8022,10.0604,10.1489,10.1825,10.2201,9.9982,9.7026,9.4327,0.0,0.0,8.7605,8.7203,8.7022,8.6405,8.6664,8.7252,8.8059,8.9271,0.0,9.6061,0.0,0.0,0.0,0.0,0.0,0.0,0.0,0.0,0.0,0.0,0.0,11.3409,11.3188,11.3,11.2885,11.2102,11.1167,11.0194,10.9603,10.8708,10.7588,10.6497,10.5807,10.5601,10.3988,10.291,10.2286,10.0985,0.0,0.0,9.8796,9.8584,9.8673,9.8922,9.9133,9.93,9.9075,9.8705,9.8334,0.0,0.0,0.0,0.0,0.0,0.0,0.0,0.0,0.0,0.0,0.0,0.0,0.0,0.0,0.0,0.0,0.0,0.0,0.0,0.0,0.0,0.0,0.0,0.0,0.0,0.0,0.0,0.0,0.0,0.0,0.0,0.0,0.0,0.0,0.0,0.0,0.0,0.0,0.0,0.0,0.0,0.0,0.0,0.0,0.0,0.0,0.0,0.0,0.0,0.0,0.0,0.0,0.0,0.0,0.0,0.0,9.3227,9.5071,9.8245,9.9501,9.9982,10.0611,9.8464,9.573,0.0,0.0,8.9132,8.7596,8.7271,8.6985,8.6295,8.6224,8.6261,8.6151,8.7105,8.9271,9.3382,0.0,0.0,0.0,0.0,0.0,0.0,0.0,0.0,0.0,0.0,0.0,0.0,11.3373,11.3075,11.2999,11.2102,11.1205,11.0192,10.9603,10.8894,10.8109,10.6714,10.61,10.6198,10.4504,10.3388,10.2698,0.0,0.0,0.0,9.9065,9.8799,9.8952,9.9309,9.9565,9.9796,9.9904,9.9551,9.9034,0.0,0.0,0.0,0.0,0.0,0.0,0.0,0.0,0.0,0.0,0.0,0.0,0.0,0.0,0.0,0.0,0.0,0.0,0.0,0.0,0.0,0.0,0.0,0.0,0.0,0.0,0.0,0.0,0.0,0.0,0.0,0.0,0.0,0.0,0.0,0.0,0.0,0.0,0.0,0.0,0.0,0.0,0.0,0.0,0.0,0.0,0.0,0.0,0.0,0.0,0.0,0.0,0.0,0.0,8.0861,0.0,8.9588,9.3564,9.4664,9.6209,9.7387,9.6783,9.5304,9.3499,0.0,0.0,8.8262,8.7452,8.7132,8.6995,8.6995,8.571,8.5159,8.6738,8.6995,8.8463,9.2537,9.518,0.0,0.0,0.0,0.0,0.0,0.0,0.0,0.0,0.0,0.0,0.0,11.3519,11.341,11.341,11.2403,11.1394,11.0385,10.9827,10.9005,10.7889,10.6607,10.5994,10.5994,10.4476,10.3726,0.0,0.0,0.0,0.0,9.9574,9.9111,9.9141,9.9603,9.9796,9.9823,10.0113,10.0215,10.0227,0.0,0.0,0.0,0.0,0.0,0.0,0.0,0.0,0.0,0.0,0.0,0.0,0.0,0.0,0.0,0.0,0.0,0.0,0.0,0.0,0.0,0.0,0.0,0.0,0.0,0.0,0.0,0.0,0.0,0.0,0.0,0.0,0.0,0.0,0.0,0.0,0.0,0.0,0.0,0.0,0.0,0.0,0.0,0.0,0.0,0.0,0.0,0.0,0.0,0.0,0.0,0.0,0.0,0.0,0.0,8.126,0.0,0.0,9.1845,9.2983,9.3381,9.3289,9.2843,9.1961,9.036,0.0,8.8561,8.7616,8.7301,8.6985,8.6332,8.5306,8.4939,8.6004,8.6187,8.7399,0.0,0.0,0.0,0.0,0.0,0.0,0.0,0.0,0.0,0.0,0.0,0.0,0.0,11.2513,11.2403,11.2403,11.1394,11.0385,10.9413,10.8709,10.8298,10.8109,10.6714,10.61,10.6198,10.4504,0.0,0.0,0.0,0.0,0.0,10.0383,9.9953,9.9693,9.9972,10.0215,10.0403,10.0424,10.0486,10.051,0.0,0.0,0.0,0.0,0.0,0.0,0.0,0.0,0.0,0.0,0.0,0.0,0.0,0.0,0.0,0.0,0.0,0.0,0.0,0.0,0.0,0.0,0.0,0.0,0.0,0.0,0.0,0.0,0.0,0.0,0.0,0.0,0.0,0.0,0.0,0.0,0.0,0.0,0.0,0.0,0.0,0.0,0.0,0.0,0.0,0.0,0.0,0.0,0.0,0.0,0.0,0.0,0.0,0.0,0.0,0.0,0.0,0.0,0.0,9.028,9.0741,9.1135,9.1115,0.0,0.0,0.0,8.8419,8.7739,8.7501,8.7188,8.647,8.5701,8.53,8.5744,8.6297,0.0,0.0,0.0,0.0,0.0,0.0,0.0,0.0,0.0,0.0,0.0,0.0,0.0,0.0,11.1991,11.1581,11.0909,11.0199,10.9487,10.8888,10.8186,10.7814,10.7625,10.6492,10.6018,10.5912,10.4586,0.0,0.0,0.0,0.0,0.0,10.1097,10.0506,9.9922,10.0302,10.0495,10.0711,10.0681,10.078,10.0802,0.0,0.0,0.0,0.0,0.0,0.0,0.0,0.0,0.0,0.0,0.0,0.0,0.0,0.0,0.0,0.0,0.0,0.0,0.0,0.0,0.0,0.0,0.0,0.0,0.0,0.0,0.0,0.0,6.9306,6.9988,6.9043,0.0,0.0,0.0,0.0,0.0,0.0,0.0,0.0,0.0,0.0,0.0,0.0,0.0,0.0,0.0,0.0,0.0,0.0,0.0,0.0,0.0,0.0,0.0,0.0,0.0,0.0,0.0,0.0,0.0,0.0,0.0,0.0,0.0,0.0,0.0,0.0,8.7752,8.7558,8.7431,8.7301,8.6642,8.6023,8.5817,0.0,0.0,0.0,0.0,0.0,0.0,0.0,0.0,0.0,0.0,0.0,0.0,0.0,0.0,0.0,11.1916,11.0909,10.9193,10.9005,10.8928,10.8777,10.8299,10.759,10.6807,10.6303,10.5814,10.531,10.4599,0.0,0.0,0.0,0.0,0.0,10.1681,10.1001,10.0113,10.0627,10.0809,10.0809,10.0995,10.1,10.1,0.0,0.0,0.0,0.0,0.0,0.0,0.0,0.0,0.0,0.0,0.0,0.0,0.0,0.0,0.0,0.0,0.0,0.0,0.0,0.0,0.0,0.0,0.0,0.0,0.0,0.0,0.0,6.7623,6.8187,6.8072,6.7324,6.8269,0.0,0.0,0.0,0.0,0.0,0.0,0.0,0.0,0.0,0.0,0.0,0.0,0.0,0.0,0.0,0.0,0.0,0.0,0.0,0.0,0.0,0.0,0.0,0.0,0.0,0.0,0.0,0.0,0.0,0.0,0.0,0.0,0.0,0.0,0.0,0.0,0.0,8.7335,8.7305,8.6541,8.5888,0.0,0.0,0.0,0.0,0.0,0.0,0.0,0.0,0.0,0.0,0.0,0.0,0.0,0.0,0.0,0.0,11.0385,10.9601,10.8483,10.8622,10.8478,10.8075,10.8504,10.8292,10.7503,10.7088,10.6609,10.5799,10.5025,0.0,0.0,0.0,0.0,10.3379,10.2817,10.2217,10.1506,10.1121,10.0995,10.1017,10.1,10.1,10.0983,0.0,0.0,0.0,0.0,0.0,0.0,0.0,0.0,0.0,0.0,0.0,0.0,0.0,0.0,0.0,0.0,0.0,0.0,0.0,0.0,0.0,0.0,0.0,0.0,0.0,0.0,0.0,0.0,0.0,6.9775,0.0,0.0,0.0,0.0,0.0,0.0,0.0,0.0,0.0,0.0,0.0,0.0,0.0,0.0,0.0,0.0,0.0,0.0,0.0,7.3417,7.3713,7.3595,0.0,0.0,0.0,0.0,0.0,0.0,0.0,0.0,0.0,0.0,0.0,0.0,0.0,0.0,0.0,0.0,0.0,8.7501,8.7402,8.7231,0.0,0.0,0.0,0.0,0.0,0.0,0.0,0.0,0.0,0.0,0.0,0.0,0.0,0.0,0.0,0.0,0.0,10.9821,10.9221,10.8506,10.8708,10.8674,10.8289,10.8493,10.8182,10.739,10.6896,10.6297,10.5603,10.5192,10.5186,0.0,0.0,0.0,10.3713,10.3326,10.2578,10.1603,10.1196,10.1085,10.1085,10.1088,10.1109,10.1091,0.0,0.0,0.0,0.0,0.0,0.0,0.0,0.0,0.0,0.0,0.0,0.0,0.0,0.0,0.0,0.0,0.0,0.0,0.0,0.0,0.0,0.0,0.0,0.0,0.0,0.0,0.0,0.0,0.0,0.0,0.0,0.0,0.0,0.0,0.0,0.0,0.0,0.0,0.0,0.0,0.0,0.0,0.0,0.0,0.0,0.0,0.0,0.0,0.0,7.5085,7.5308,7.507,7.7386,0.0,0.0,0.0,0.0,0.0,0.0,0.0,0.0,0.0,0.0,0.0,0.0,0.0,0.0,0.0,0.0,0.0,8.7645,8.8216,0.0,0.0,0.0,0.0,0.0,0.0,0.0,0.0,0.0,0.0,0.0,0.0,0.0,0.0,0.0,0.0,0.0,10.9698,10.9387,10.8806,10.8991,10.898,10.878,10.8477,10.7894,10.691,10.6402,10.5893,10.5294,10.5396,10.5595,0.0,0.0,0.0,10.3492,10.3399,10.2479,10.1196,10.1185,10.1208,10.1208,10.1288,10.1289,10.1289,0.0,0.0,0.0,0.0,0.0,0.0,0.0,0.0,0.0,0.0,0.0,0.0,0.0,0.0,0.0,0.0,0.0,0.0,0.0,0.0,0.0,0.0,0.0,0.0,0.0,0.0,0.0,0.0,0.0,0.0,7.3819,7.4057,7.3405,0.0,0.0,0.0,0.0,0.0,0.0,0.0,0.0,0.0,0.0,0.0,0.0,0.0,0.0,0.0,0.0,7.3839,7.4125,7.4249,7.5133,0.0,0.0,0.0,0.0,0.0,8.2268,8.4945,8.6517,8.4656,8.4751,8.503,0.0,0.0,0.0,0.0,0.0,0.0,0.0,8.8858,0.0,0.0,0.0,0.0,0.0,0.0,0.0,0.0,0.0,0.0,0.0,0.0,0.0,0.0,0.0,0.0,0.0,10.94,10.9314,10.9397,10.9325,10.9208,10.9208,10.8975,10.8186,10.669,10.7009,10.6705,10.5909,10.5894,10.561,0.0,0.0,10.4413,10.3492,10.2795,10.2414,10.2107,10.1479,10.1308,10.1308,10.1308,10.1289,10.1289,0.0,0.0,0.0,0.0,0.0,0.0,0.0,0.0,0.0,0.0,0.0,0.0,0.0,0.0,0.0,0.0,0.0,0.0,0.0,0.0,0.0,0.0,0.0,0.0,0.0,0.0,0.0,0.0,0.0,7.6376,7.7691,7.6908,7.5172,7.2609,0.0,0.0,0.0,0.0,0.0,0.0,0.0,0.0,0.0,0.0,0.0,0.0,0.0,0.0,0.0,0.0,7.5994,7.6166,7.6418,0.0,0.0,0.0,0.0,0.0,8.2004,8.4221,8.5699,8.551,8.5988,8.6153,0.0,0.0,0.0,0.0,0.0,0.0,0.0,0.0,0.0,0.0,0.0,0.0,0.0,0.0,0.0,0.0,0.0,0.0,0.0,0.0,0.0,0.0,0.0,0.0,0.0,0.0,10.9798,11.0103,10.9593,10.9175,10.8902,10.848,10.7806,10.6992,10.6698,10.6407,10.5985,10.5591,10.5191,10.4807,0.0,10.3779,10.2973,10.2612,10.2209,10.1786,10.1423,10.1308,10.1404,10.1384,10.1422,10.1404,0.0,0.0,0.0,0.0,0.0,0.0,0.0,0.0,0.0,0.0,0.0,0.0,0.0,0.0,0.0,0.0,0.0,0.0,0.0,0.0,0.0,0.0,0.0,0.0,0.0,0.0,7.3955,7.5351,7.7717,7.966,8.1009,7.9615,7.7083,0.0,0.0,0.0,0.0,0.0,0.0,0.0,0.0,0.0,0.0,0.0,0.0,0.0,0.0,0.0,0.0,0.0,0.0,0.0,0.0,0.0,0.0,7.8544,7.867,7.9305,8.2028,8.3852,8.5352,8.6828,8.746,8.766,0.0,0.0,0.0,0.0,0.0,0.0,0.0,0.0,0.0,0.0,0.0,0.0,0.0,0.0,0.0,0.0,0.0,0.0,0.0,0.0,0.0,0.0,0.0,0.0,0.0,0.0,11.0306,11.0321,10.9593,10.8897,10.8415,10.7598,10.7214,10.7004,10.6397,10.5997,10.5805,10.52,10.4684,10.432,10.3788,10.3097,10.2289,10.2289,10.1924,10.1328,10.1328,10.1385,10.1478,10.1588,10.1609,10.1478,0.0,0.0,0.0,0.0,0.0,0.0,0.0,0.0,0.0,0.0,0.0,0.0,0.0,0.0,0.0,0.0,0.0,0.0,0.0,0.0,0.0,0.0,0.0,0.0,0.0,7.3667,7.5639,7.8752,8.0676,8.1775,8.2062,8.1112,7.8848,7.5672,0.0,0.0,0.0,0.0,0.0,0.0,0.0,0.0,0.0,0.0,0.0,0.0,0.0,0.0,0.0,0.0,0.0,0.0,0.0,0.0,7.8226,7.9852,7.9991,8.0326,8.3616,8.5332,8.6381,8.7198,8.7471,8.7895,8.9385,8.8499,0.0,9.0375,0.0,0.0,0.0,0.0,0.0,0.0,0.0,0.0,0.0,0.0,0.0,0.0,0.0,0.0,0.0,0.0,0.0,0.0,0.0,0.0,0.0,0.0,0.0,10.9604,10.9189,10.8594,10.7808,10.6885,10.6399,10.6293,10.6284,10.5923,10.5192,10.5077,10.4192,10.2808,10.2712,10.2212,10.1404,10.1404,10.1424,10.1499,10.1499,10.1496,10.1606,10.1585,10.1624,10.1606,0.0,0.0,0.0,0.0,0.0,0.0,0.0,0.0,0.0,0.0,0.0,0.0,0.0,0.0,0.0,0.0,0.0,0.0,0.0,0.0,0.0,0.0,0.0,7.2756,7.3827,7.6752,7.9374,8.1652,8.4036,8.3874,8.1304,8.1014,0.0,0.0,0.0,0.0,0.0,0.0,0.0,0.0,0.0,0.0,0.0,0.0,0.0,0.0,0.0,0.0,0.0,0.0,7.7532,7.7678,7.8041,7.8832,7.966,7.9821,8.0104,8.0749,8.2778,8.4294,8.5635,8.7079,8.794,8.872,0.0,8.9726,9.0049,9.2394,9.3179,0.0,0.0,0.0,0.0,0.0,0.0,0.0,0.0,0.0,0.0,0.0,0.0,0.0,0.0,0.0,0.0,0.0,0.0,0.0,0.0,0.0,0.0,10.9979,10.9304,10.8482,10.7713,10.679,10.6423,10.6305,10.6423,10.5905,10.5097,10.4597,10.3712,10.2597,10.202,10.1712,10.1423,10.1423,10.1518,10.1609,10.1603,10.1603,10.1603,10.1705,10.1722,10.171,0.0,0.0,0.0,0.0,0.0,0.0,0.0,0.0,0.0,0.0,0.0,0.0,0.0,0.0,0.0,0.0,0.0,0.0,0.0,0.0,0.0,0.0,0.0,7.3035,7.4719,7.8693,8.1681,8.3561,8.6256,8.5504,8.1649,0.0,0.0,0.0,0.0,0.0,0.0,0.0,0.0,0.0,0.0,0.0,0.0,0.0,0.0,0.0,0.0,0.0,0.0,0.0,7.8365,7.8252,7.8803,7.9533,8.0112,7.9872,8.0505,8.1445,8.2172,8.3536,8.5242,8.6942,8.8355,8.978,9.1404,9.1769,9.2524,9.5075,9.6077,0.0,0.0,0.0,0.0,0.0,0.0,0.0,0.0,0.0,0.0,0.0,0.0,0.0,0.0,0.0,0.0,0.0,0.0,0.0,0.0,0.0,0.0,0.0,10.9213,10.8213,10.6905,10.629,10.5905,10.5597,10.5597,10.529,10.4713,10.3905,10.2981,10.2212,10.1597,10.1404,10.1518,10.1516,10.1588,10.1599,10.1683,10.1683,10.1688,10.1803,10.1889,10.1812,0.0,0.0,0.0,0.0,0.0,0.0,0.0,0.0,0.0,0.0,0.0,0.0,0.0,0.0,0.0,0.0,0.0,0.0,0.0,0.0,0.0,0.0,0.0,7.3877,7.5523,7.9078,8.2033,8.4403,8.6987,8.6637,8.344,8.1666,0.0,0.0,0.0,0.0,0.0,0.0,0.0,0.0,0.0,0.0,0.0,0.0,0.0,0.0,0.0,0.0,0.0,0.0,7.8746,7.8534,7.9929,7.9792,7.9304,8.0155,8.1382,8.2412,8.2071,8.3498,8.5415,8.6752,8.8651,0.0,9.4369,9.487,9.5518,9.8717,0.0,0.0,0.0,0.0,0.0,0.0,0.0,0.0,0.0,0.0,0.0,0.0,0.0,0.0,0.0,0.0,0.0,0.0,0.0,0.0,0.0,0.0,0.0,0.0,10.8906,10.7713,10.5097,10.5097,10.4713,10.3905,10.3905,10.3905,10.3905,10.2981,10.2097,10.1289,10.1404,10.1518,10.1479,10.1588,10.1599,10.1699,10.1896,10.1889,10.1889,10.1889,10.1995,10.2098,0.0,0.0,0.0,0.0,0.0,0.0,0.0,0.0,0.0,0.0,0.0,0.0,0.0,0.0,0.0,0.0,0.0,0.0,0.0,0.0,0.0,0.0,0.0,0.0,0.0,0.0,8.1644,8.4746,8.5531,8.4421,0.0,0.0,0.0,7.8402,0.0,0.0,0.0,0.0,0.0,0.0,0.0,0.0,0.0,0.0,0.0,0.0,0.0,0.0,0.0,0.0,0.0,0.0,7.9692,8.0643,8.0814,7.9387,8.0759,8.2346,8.0707,8.2481,8.5067,8.6009,0.0,0.0,0.0,9.6456,0.0,0.0,0.0,0.0,0.0,0.0,0.0,0.0,0.0,0.0,0.0,0.0,0.0,0.0,0.0,0.0,0.0,0.0,0.0,0.0,0.0,0.0,0.0,0.0,0.0,0.0,10.8906,10.7713,10.5097,10.5097,10.4713,10.3905,10.3291,10.3021,10.2981,10.279,10.2193,10.1404,10.1496,10.1624,10.1616,10.1815,10.1905,10.1986,10.2015,10.2085,10.2216,10.2216,10.2189,10.2183,0.0,0.0,0.0,0.0,0.0,0.0,0.0,0.0,0.0,0.0,0.0,0.0,0.0,0.0,0.0,0.0,0.0,0.0,0.0,0.0,0.0,0.0,0.0,0.0,0.0,7.79,8.0776,0.0,0.0,0.0,0.0,0.0,0.0,7.9934,0.0,8.0725,0.0,0.0,0.0,0.0,0.0,0.0,0.0,0.0,0.0,0.0,0.0,0.0,0.0,0.0,0.0,0.0,7.9081,8.0049,8.0243,7.8479,8.0273,8.2496,8.109,8.3225,8.6175,8.7596,9.089,9.461,9.768,0.0,0.0,0.0,0.0,0.0,0.0,0.0,0.0,0.0,0.0,0.0,0.0,0.0,0.0,0.0,0.0,0.0,0.0,0.0,0.0,0.0,0.0,0.0,0.0,0.0,0.0,0.0,10.829,10.679,10.4597,10.4289,10.3694,10.2886,10.2482,10.2193,10.2174,10.221,10.1997,10.1496,10.1603,10.1688,10.1787,10.1897,10.2,10.2098,10.219,10.2189,10.23,10.2323,10.23,10.2411,0.0,0.0,0.0,0.0,0.0,0.0,0.0,0.0,0.0,0.0,0.0,0.0,0.0,0.0,0.0,0.0,0.0,0.0,0.0,0.0,0.0,0.0,0.0,0.0,0.0,0.0,0.0,0.0,0.0,0.0,0.0,0.0,8.3351,8.3119,0.0,8.4182,0.0,0.0,0.0,0.0,0.0,0.0,0.0,0.0,0.0,0.0,0.0,0.0,0.0,0.0,0.0,0.0,7.8563,7.8824,7.8652,7.7699,7.9996,8.2807,8.2499,8.4937,8.8174,9.0597,9.3226,0.0,10.2004,10.3781,10.4903,0.0,0.0,0.0,0.0,0.0,0.0,0.0,0.0,0.0,0.0,0.0,0.0,0.0,0.0,0.0,0.0,0.0,0.0,0.0,0.0,0.0,0.0,0.0,0.0,10.8811,10.7175,10.5618,10.3906,10.3098,10.229,10.1498,10.1498,10.1591,10.1603,10.1603,10.1603,10.162,10.1705,10.1787,10.1881,10.199,10.2112,10.2113,10.2315,10.2284,10.2306,10.2321,10.2401,10.2491,0.0,0.0,0.0,0.0,0.0,0.0,0.0,0.0,0.0,0.0,0.0,0.0,0.0,0.0,0.0,0.0,0.0,0.0,0.0,0.0,0.0,0.0,0.0,0.0,0.0,0.0,0.0,0.0,0.0,0.0,0.0,0.0,0.0,8.5054,0.0,8.3807,0.0,0.0,0.0,0.0,0.0,0.0,0.0,0.0,0.0,0.0,0.0,0.0,0.0,0.0,0.0,0.0,7.9858,8.0408,8.0452,7.8824,8.0605,8.2926,8.2044,8.4538,8.8104,9.1242,9.6109,10.0988,10.4396,10.5825,10.6692,0.0,0.0,0.0,0.0,0.0,0.0,0.0,0.0,0.0,0.0,0.0,0.0,0.0,0.0,0.0,0.0,0.0,0.0,0.0,0.0,0.0,0.0,0.0,0.0,10.8105,10.6988,10.5717,10.4097,10.3172,10.238,0.0,10.1581,10.171,10.1688,10.1688,10.1699,10.1803,10.1896,10.1912,10.2082,10.211,10.2201,10.2411,10.2401,10.2513,10.2607,10.2614,10.2679,10.2716,0.0,0.0,0.0,0.0,0.0,0.0,0.0,0.0,0.0,0.0,0.0,0.0,0.0,0.0,0.0,0.0,0.0,0.0,0.0,0.0,0.0,0.0,0.0,0.0,0.0,0.0,0.0,0.0,0.0,0.0,0.0,0.0,0.0,8.5035,0.0,8.4774,0.0,0.0,0.0,0.0,0.0,0.0,0.0,0.0,0.0,0.0,0.0,0.0,0.0,0.0,0.0,0.0,0.0,0.0,8.0696,7.9359,8.0866,8.3021,8.3362,8.5971,8.9731,9.4482,0.0,10.2906,10.502,10.6106,10.6995,0.0,0.0,0.0,0.0,0.0,0.0,0.0,0.0,0.0,0.0,0.0,0.0,0.0,0.0,0.0,0.0,0.0,0.0,0.0,0.0,0.0,0.0,10.9871,10.8893,10.72,10.5987,10.481,10.3514,10.2704,10.2104,10.1616,10.1705,10.1699,10.1787,10.1787,10.192,10.199,10.199,10.2086,10.221,10.2306,10.2411,10.2491,10.2609,10.2582,10.271,10.2688,10.2816,10.2792,0.0,0.0,0.0,0.0,0.0,0.0,0.0,0.0,0.0,0.0,0.0,0.0,0.0,0.0,0.0,0.0,0.0,0.0,0.0,0.0,0.0,0.0,0.0,0.0,0.0,0.0,0.0,0.0,0.0,0.0,0.0,0.0,0.0,8.4863,0.0,0.0,0.0,0.0,0.0,0.0,0.0,0.0,0.0,0.0,0.0,0.0,0.0,0.0,0.0,0.0,0.0,0.0,0.0,0.0,8.0297,7.9534,8.0883,8.3024,8.4982,8.8286,9.2465,9.8082,10.1376,0.0,10.4697,10.5707,10.6597,0.0,0.0,0.0,0.0,0.0,0.0,0.0,0.0,0.0,0.0,0.0,0.0,0.0,0.0,0.0,0.0,0.0,0.0,0.0,0.0,0.0,10.979,10.9086,10.7913,10.6392,10.4712,10.3588,10.2988,10.21,10.171,10.1699,10.1809,10.1796,10.1912,10.1981,10.2004,10.2113,10.2099,10.2217,10.2411,10.2491,10.2492,10.2599,10.2698,10.2683,10.2688,10.2792,10.2797,10.2802,0.0,0.0,0.0,0.0,0.0,0.0,0.0,0.0,0.0,0.0,0.0,0.0,0.0,0.0,0.0,0.0,0.0,0.0,0.0,0.0,0.0,0.0,0.0,0.0,0.0,0.0,0.0,0.0,0.0,0.0,0.0,0.0,0.0,8.6732,0.0,0.0,0.0,0.0,0.0,0.0,0.0,0.0,0.0,0.0,0.0,0.0,0.0,0.0,0.0,0.0,0.0,0.0,0.0,0.0,0.0,7.9621,8.0742,8.2679,8.5053,9.0604,9.6341,9.8993,10.1695,10.3891,0.0,0.0,10.6405,0.0,0.0,0.0,0.0,0.0,0.0,0.0,0.0,0.0,0.0,0.0,0.0,0.0,0.0,0.0,0.0,0.0,0.0,0.0,0.0,0.0,10.8098,10.7315,10.6411,10.5618,10.4009,10.3206,10.3211,10.2283,10.1896,10.1912,10.2025,10.2085,10.2113,10.2187,10.2198,10.2086,10.2195,10.2411,10.2507,10.2515,10.2582,10.2816,10.2782,10.2802,10.282,10.2785,10.2785,10.2785,0.0,0.0,0.0,0.0,0.0,0.0,0.0,0.0,0.0,0.0,0.0,0.0,0.0,0.0,0.0,0.0,0.0,0.0,0.0,0.0,0.0,0.0,0.0,0.0,0.0,0.0,0.0,0.0,0.0,0.0,0.0,8.5723,8.6321,0.0,0.0,0.0,0.0,0.0,0.0,0.0,0.0,0.0,0.0,0.0,0.0,0.0,0.0,0.0,0.0,0.0,0.0,0.0,0.0,0.0,0.0,0.0,8.0431,8.2109,8.574,9.0624,9.5457,9.8375,10.0704,10.2801,10.4593,0.0,10.579,0.0,0.0,0.0,0.0,0.0,0.0,0.0,0.0,0.0,0.0,0.0,0.0,0.0,0.0,0.0,0.0,0.0,0.0,0.0,10.9483,10.9003,10.7795,10.7008,10.6119,10.4782,10.3687,10.2902,10.2508,10.2082,10.1897,10.1986,10.21,10.2198,10.2183,10.2411,10.2381,10.2411,10.2417,10.2507,10.2683,10.2683,10.2704,10.2811,10.2811,10.282,10.2789,10.2789,10.2789,10.2789,0.0,0.0,0.0,0.0,0.0,0.0,0.0,0.0,0.0,0.0,0.0,0.0,0.0,0.0,0.0,0.0,0.0,0.0,0.0,0.0,0.0,0.0,0.0,0.0,0.0,0.0,0.0,0.0,0.0,0.0,8.6209,8.7671,8.8329,0.0,8.6368,0.0,0.0,0.0,0.0,0.0,0.0,0.0,0.0,0.0,0.0,0.0,0.0,0.0,0.0,0.0,0.0,0.0,0.0,0.0,0.0,0.0,0.0,8.1929,8.5909,8.9592,9.3154,9.6481,9.896,10.119,0.0,0.0,0.0,0.0,0.0,0.0,0.0,0.0,0.0,0.0,0.0,0.0,0.0,0.0,0.0,0.0,0.0,0.0,0.0,0.0,0.0,0.0,10.8388,10.8026,10.72,10.6294,10.5206,10.4001,10.3311,10.2585,10.1889,10.1897,10.2,10.219,10.2295,10.2381,10.2401,10.2507,10.2588,10.2698,10.2686,10.2694,10.2789,10.2789,10.2789,10.2789,10.2789,10.2789,10.2789,10.2789,10.2789,10.2789,0.0,0.0,0.0,0.0,0.0,0.0,0.0,0.0,0.0,0.0,0.0,0.0,0.0,0.0,0.0,0.0,0.0,0.0,0.0,0.0,0.0,0.0,0.0,0.0,0.0,0.0,0.0,0.0,0.0,0.0,8.9654,9.0556,9.2249,9.4326,8.944,8.6697,8.5672,0.0,0.0,0.0,0.0,0.0,0.0,0.0,0.0,0.0,0.0,0.0,0.0,0.0,0.0,0.0,0.0,0.0,0.0,0.0,0.0,0.0,8.4989,8.7617,9.0378,9.316,9.6424,9.9365,0.0,0.0,0.0,0.0,0.0,0.0,0.0,0.0,0.0,0.0,0.0,0.0,0.0,0.0,0.0,0.0,0.0,0.0,0.0,0.0,0.0,0.0,10.7102,10.6276,10.5486,10.4013,10.319,10.3112,10.2383,10.1889,10.1889,10.2,10.219,10.2288,10.2411,10.2513,10.2515,10.2704,10.2802,10.2781,10.2797,10.2802,10.2789,10.2789,10.2789,10.2789,10.2789,10.2789,10.2789,10.2789,10.2789,10.2789,0.0,0.0,0.0,0.0,0.0,0.0,0.0,0.0,0.0,0.0,0.0,0.0,0.0,0.0,0.0,0.0,0.0,0.0,0.0,0.0,0.0,0.0,0.0,0.0,0.0,0.0,0.0,0.0,0.0,8.4901,8.7517,8.944,9.0864,9.1633,8.9825,8.8538,8.756,8.4753,0.0,0.0,0.0,0.0,0.0,0.0,0.0,0.0,0.0,0.0,0.0,0.0,0.0,0.0,0.0,0.0,0.0,0.0,0.0,8.1089,8.2502,8.532,8.8309,8.9916,9.3293,9.6674,9.8462,10.0596,0.0,0.0,0.0,0.0,0.0,0.0,0.0,0.0,0.0,0.0,0.0,0.0,0.0,0.0,0.0,0.0,0.0,0.0,0.0,0.0,0.0,10.4905,10.4707,10.3619,10.2991,10.3118,10.2299,10.1897,10.2,10.2201,10.2417,10.2421,10.2601,10.2712,10.271,10.2797,10.2781,10.2789,10.282,10.2781,10.2789,10.2789,10.2789,10.2789,10.2789,10.2789,10.2789,10.2789,10.2796,10.2807,0.0,0.0,0.0,0.0,0.0,0.0,0.0,0.0,0.0,0.0,0.0,0.0,0.0,0.0,0.0,0.0,0.0,0.0,0.0,0.0,0.0,0.0,0.0,0.0,0.0,0.0,0.0,0.0,0.0,0.0,0.0,8.8709,8.994,9.0748,8.9902,8.9671,0.0,0.0,0.0,8.501,0.0,0.0,8.2028,0.0,0.0,0.0,0.0,0.0,0.0,0.0,0.0,0.0,0.0,0.0,0.0,0.0,0.0,0.0,8.0847,0.0,0.0,0.0,9.0413,9.3216,9.6692,0.0,0.0,0.0,0.0,0.0,0.0,0.0,0.0,0.0,0.0,0.0,0.0,0.0,0.0,0.0,0.0,0.0,0.0,0.0,0.0,0.0,0.0,0.0,10.3885,10.3107,10.2708,10.2779,10.229,10.2121,10.2189,10.241,10.2516,10.2616,10.2686,10.2811,10.2792,10.2815,10.2789,10.2789,10.2789,10.2789,10.2789,10.2789,10.2789,10.2789,10.2789,10.2789,10.2789,10.2796,10.2807,10.2816,0.0,0.0,0.0,0.0,0.0,0.0,0.0,0.0,0.0,0.0,0.0,0.0,0.0,0.0,0.0,0.0,0.0,0.0,0.0,0.0,0.0,0.0,0.0,0.0,0.0,0.0,0.0,0.0,0.0,0.0,0.0,0.0,8.994,9.2249,8.9825,9.0094,9.2326,0.0,9.0133,8.8325,0.0,8.3401,8.4709,0.0,0.0,0.0,8.3939,8.3045,0.0,0.0,0.0,0.0,0.0,0.0,0.0,0.0,0.0,0.0,0.0,0.0,0.0,0.0,0.0,0.0,9.5692,0.0,0.0,0.0,0.0,0.0,0.0,0.0,0.0,0.0,0.0,0.0,0.0,0.0,0.0,0.0,0.0,0.0,0.0,0.0,0.0,0.0,10.3409,10.2996,10.2996,10.2306,10.2004,10.2085,10.2098,10.2189,10.2499,10.2507,10.2585,10.2698,10.2805,10.2792,10.2792,10.282,10.2789,10.2789,10.2789,10.2789,10.2789,10.2789,10.2789,10.2789,10.2789,10.2789,10.2793,10.281,10.2816,10.2819,0.0,0.0,0.0,0.0,0.0,0.0,0.0,0.0,0.0,0.0,0.0,0.0,7.8475,0.0,0.0,0.0,0.0,0.0,0.0,0.0,0.0,0.0,0.0,0.0,0.0,0.0,0.0,0.0,0.0,8.4401,0.0,0.0,0.0,0.0,8.9325,8.9633,8.9633,8.8132,0.0,0.0,8.4709,8.4632,0.0,0.0,0.0,0.0,0.0,8.4582,0.0,0.0,8.3487,8.3173,0.0,0.0,0.0,0.0,0.0,0.0,7.94,0.0,0.0,0.0,0.0,0.0,0.0,0.0,0.0,0.0,0.0,0.0,0.0,0.0,0.0,0.0,0.0,0.0,0.0,0.0,0.0,0.0,0.0,0.0,0.0,0.0,0.0,0.0,10.2312,10.2212,10.2108,10.1893,10.1905,10.2085,10.219,10.2311,10.2499,10.2616,10.2692,10.2698,10.2816,10.2802,10.282,10.2785,10.2789,10.2789,10.2789,10.2796,10.281,10.281,10.281,10.281,10.281,10.281,10.281,10.2813,10.3212,10.3693,0.0,0.0,0.0,0.0,0.0,0.0,0.0,0.0,0.0,0.0,0.0,0.0,7.9022,0.0,0.0,0.0,0.0,0.0,0.0,0.0,0.0,0.0,0.0,8.0746,8.1093,8.1093,8.167,8.2824,8.3362,8.4055,8.4901,0.0,0.0,0.0,0.0,0.0,0.0,0.0,0.0,0.0,8.65,0.0,0.0,8.5846,8.6401,0.0,0.0,0.0,8.6457,8.5066,8.4258,0.0,0.0,0.0,0.0,0.0,0.0,0.0,0.0,0.0,0.0,0.0,0.0,0.0,8.7231,8.8671,8.9958,0.0,0.0,0.0,0.0,0.0,0.0,0.0,0.0,0.0,0.0,0.0,0.0,0.0,0.0,0.0,0.0,10.0308,10.059,10.059,10.0711,10.0782,10.0689,10.0689,10.0991,10.1503,10.1583,10.1884,10.2489,10.2593,10.2705,10.2688,10.2797,10.2815,10.2789,10.2789,10.2789,10.2789,10.2796,10.2807,10.2816,10.279,10.279,10.2785,10.2785,10.2785,10.2905,10.3183,10.3697,10.4092,0.0,0.0,0.0,0.0,0.0,0.0,0.0,0.0,0.0,0.0,7.8669,7.8446,7.8922,0.0,0.0,0.0,0.0,0.0,0.0,0.0,0.0,0.0,8.0477,8.0554,8.1208,8.1323,8.2093,8.3593,8.3708,8.4132,8.4901,0.0,0.0,0.0,0.0,0.0,0.0,0.0,0.0,8.8511,8.8521,8.9119,0.0,0.0,8.9248,0.0,8.9825,8.835,8.638,8.6188,8.4632,0.0,0.0,0.0,0.0,0.0,8.0026,0.0,0.0,0.0,0.0,0.0,0.0,0.0,8.6692,8.6324,8.5918,8.9542,0.0,0.0,0.0,0.0,0.0,0.0,0.0,0.0,0.0,0.0,0.0,0.0,0.0,0.0,9.878,9.8983,9.9111,9.9111,9.9178,9.9243,9.9282,9.9282,9.9706,10.0611,10.078,10.1293,10.2379,10.2515,10.2588,10.2792,10.2815,10.2789,10.2789,10.2789,10.2789,10.2789,10.281,10.2816,10.2783,10.2882,10.2883,10.2916,10.2916,10.2916,10.2994,10.39,10.4293,10.4411,0.0,0.0,0.0,0.0,0.0,0.0,0.0,0.0,0.0,0.0,8.4093,8.3939,8.2731,0.0,0.0,0.0,0.0,0.0,0.0,0.0,8.0439,8.0092,8.1862,8.2593,8.2093,8.2747,8.3247,8.3593,8.4286,8.4747,8.4901,0.0,0.0,0.0,0.0,0.0,0.0,0.0,0.0,8.8472,8.7868,0.0,9.0769,8.9286,8.9633,9.0787,8.9402,8.9004,8.8859,0.0,8.5055,8.2796,0.0,0.0,0.0,0.0,0.0,0.0,0.0,0.0,0.0,0.0,0.0,0.0,8.2785,8.3785,8.4747,0.0,0.0,0.0,0.0,0.0,0.0,0.0,0.0,0.0,0.0,0.0,0.0,0.0,0.0,0.0,9.8064,9.8753,9.921,9.9236,9.9204,9.9243,9.9282,9.9236,9.942,9.9836,10.0597,10.1095,10.1502,10.2309,10.271,10.2792,10.2815,10.2789,10.2789,10.2789,10.2789,10.2789,10.281,10.2783,10.2912,10.2883,10.2885,10.2884,10.2884,10.2884,10.3003,10.3902,10.4605,10.5192,0.0,0.0,0.0,0.0,0.0,0.0,0.0,0.0,0.0,8.5401,8.6247,8.594,0.0,0.0,0.0,0.0,0.0,0.0,0.0,0.0,0.0,0.0,8.2477,8.317,8.2324,8.3131,8.3824,8.4247,8.4709,8.4901,8.4901,8.5324,0.0,0.0,0.0,0.0,0.0,0.0,8.7098,8.8602,8.8615,0.0,9.1024,9.0231,9.0479,9.1095,9.0157,8.9473,8.8672,8.647,8.5035,0.0,0.0,8.2397,8.1517,0.0,8.1155,8.1306,0.0,0.0,0.0,8.3163,0.0,0.0,0.0,8.2362,8.2362,8.2332,0.0,0.0,0.0,0.0,0.0,0.0,0.0,0.0,0.0,0.0,0.0,0.0,0.0,0.0,9.594,9.6751,9.7285,9.7326,9.7333,9.7326,9.7446,9.7417,9.7877,9.8919,9.9444,10.0211,10.1205,10.1717,10.2287,10.2811,10.2785,10.2789,10.2789,10.2789,10.2793,10.2803,10.2783,10.2912,10.2882,10.2888,10.2889,10.2889,10.2889,10.3202,10.371,10.4491,10.5389,10.6093,0.0,0.0,0.0,0.0,0.0,0.0,0.0,0.0,0.0,8.6363,8.7248,8.6978,0.0,0.0,0.0,0.0,0.0,0.0,0.0,0.0,0.0,0.0,8.2939,8.3516,0.0,8.3478,8.4209,8.4901,8.4901,8.4824,8.467,8.5478,0.0,0.0,0.0,0.0,0.0,0.0,0.0,8.8979,0.0,9.0349,9.1064,9.1175,9.1192,9.1118,9.0817,8.965,8.7849,8.5551,0.0,8.5015,8.3677,8.3506,0.0,0.0,0.0,0.0,0.0,0.0,0.0,0.0,0.0,8.1747,0.0,0.0,0.0,8.1223,0.0,0.0,0.0,0.0,0.0,0.0,0.0,0.0,0.0,0.0,0.0,0.0,0.0,0.0,0.0,9.4441,9.4968,9.5176,9.5045,9.5066,9.5376,9.5531,9.6307,9.7794,9.8225,9.9181,10.0707,10.1086,10.1708,10.2593,10.2714,10.2793,10.2793,10.28,10.2807,10.2783,10.2912,10.2882,10.2886,10.289,10.289,10.289,10.289,10.3398,10.4297,10.5195,10.6015,10.6796,7.5403,7.6763,0.0,0.0,0.0,0.0,0.0,0.0,0.0,8.7363,8.8632,0.0,0.0,0.0,0.0,0.0,0.0,0.0,8.2208,0.0,0.0,0.0,0.0,0.0,8.4632,8.4709,8.4786,8.4901,8.4901,8.4516,8.3747,8.4632,0.0,0.0,8.3324,0.0,0.0,0.0,8.744,0.0,8.9863,9.0423,0.0,9.121,9.1118,9.0894,8.9976,8.9017,8.804,0.0,8.5588,8.4403,0.0,8.3257,0.0,0.0,0.0,0.0,0.0,0.0,0.0,0.0,8.6219,0.0,0.0,0.0,8.0362,7.8299,0.0,0.0,0.0,0.0,0.0,0.0,0.0,0.0,0.0,0.0,0.0,0.0,0.0,0.0,0.0,9.3113,9.3601,9.4434,9.3813,9.371,9.4586,9.5312,9.584,9.6165,9.7742,9.8757,9.9143,10.0699,10.1514,10.1696,10.2416,10.2813,10.2813,10.2905,10.291,10.2912,10.2883,10.2885,10.2886,10.289,10.289,10.289,10.289,10.3398,10.4297,10.5195,10.6015,10.6794,0.0,7.9505,0.0,0.0,0.0,0.0,0.0,0.0,0.0,8.9633,9.021,0.0,0.0,0.0,0.0,0.0,0.0,0.0,0.0,0.0,0.0,0.0,0.0,0.0,0.0,0.0,0.0,8.5593,8.4632,8.3939,8.3593,8.3978,0.0,0.0,8.2978,0.0,8.4939,0.0,0.0,0.0,0.0,0.0,0.0,9.121,9.1064,9.0762,8.9285,8.8498,8.7961,0.0,8.5686,0.0,0.0,0.0,0.0,0.0,0.0,0.0,0.0,0.0,0.0,0.0,0.0,0.0,0.0,0.0,7.9554,0.0,0.0,0.0,0.0,0.0,0.0,0.0,0.0,0.0,0.0,0.0,0.0,0.0,0.0,0.0,0.0,0.0,0.0,0.0,9.1423,9.1622,9.3094,9.343,9.4377,9.6006,9.6858,9.7779,9.8887,10.0196,10.1082,10.1596,10.2392,10.2907,10.2907,10.2912,10.2917,10.2883,10.2885,10.2888,10.289,10.289,10.289,10.289,10.289,10.3711,10.5,10.539,10.6289,10.7499,0.0,0.0,0.0,0.0,0.0,0.0,0.0,0.0,0.0,0.0,0.0,0.0,9.0671,9.0112,0.0,0.0,0.0,8.6187,0.0,0.0,8.5286,0.0,0.0,0.0,0.0,0.0,0.0,8.5401,8.4439,8.3708,8.3247,8.3708,8.317,0.0,0.0,8.4786,8.567,0.0,0.0,9.0248,9.0248,9.0633,9.121,9.1175,9.1046,9.0666,8.8883,8.8231,8.7943,8.626,8.5704,0.0,8.5797,0.0,0.0,0.0,0.0,0.0,8.7777,0.0,0.0,0.0,0.0,0.0,0.0,0.0,0.0,0.0,0.0,0.0,0.0,0.0,0.0,0.0,0.0,0.0,0.0,0.0,0.0,0.0,0.0,0.0,0.0,0.0,0.0,9.0336,8.9603,8.9916,9.1801,9.204,9.3211,9.5427,9.6029,9.6919,9.8187,9.9367,10.0401,10.1301,10.2094,10.2683,10.2917,10.2882,10.2884,10.2888,10.2888,10.2889,10.289,10.289,10.289,10.289,10.289,10.3984,10.5508,10.5508,10.6601,10.8007,8.2247,8.167,0.0,0.0,0.0,0.0,0.0,0.0,0.0,0.0,0.0,0.0,0.0,0.0,0.0,0.0,0.0,8.9487,8.8649,0.0,8.7325,0.0,0.0,0.0,0.0,0.0,0.0,0.0,0.0,8.3978,8.2362,8.4055,8.4362,8.3593,8.5286,8.6517,8.744,8.9094,9.0325,9.1171,9.1171,9.1171,9.1192,0.0,9.0989,9.0779,8.9036,0.0,0.0,8.6372,8.5815,0.0,0.0,0.0,0.0,0.0,0.0,0.0,0.0,0.0,0.0,8.6978,0.0,0.0,0.0,0.0,8.1977,0.0,0.0,0.0,0.0,0.0,0.0,0.0,0.0,0.0,0.0,0.0,0.0,0.0,0.0,0.0,0.0,0.0,0.0,8.966,8.8928,8.92,9.1028,9.186,9.2744,9.3734,9.5417,9.6344,9.6468,9.8186,9.9475,10.0412,10.1203,10.2105,10.2886,10.289,10.289,10.289,10.289,10.289,10.289,10.289,10.289,10.289,10.289,10.3984,10.5508,10.5508,10.6601,10.8004,0.0,0.0,0.0,0.0,0.0,0.0,0.0,8.944,0.0,0.0,0.0,0.0,0.0,0.0,9.4939,0.0,0.0,9.2322,9.2018,9.0671,0.0,0.0,0.0,8.8248,0.0,0.0,0.0,0.0,0.0,8.3478,8.4016,8.3439,8.3632,8.4516,0.0,8.7209,0.0,0.0,0.0,0.0,0.0,9.1864,9.271,0.0,0.0,9.0779,8.9036,8.8385,0.0,8.6501,8.5905,8.5923,8.5975,8.6026,8.6351,8.7773,8.8423,0.0,0.0,0.0,9.0517,8.7671,0.0,0.0,0.0,0.0,0.0,0.0,0.0,0.0,0.0,0.0,0.0,0.0,0.0,0.0,0.0,0.0,0.0,0.0,0.0,0.0,0.0,0.0,0.0,8.6324,8.6098,8.6735,8.8544,8.9944,9.141,9.2934,9.4613,9.5793,9.6391,9.8115,9.9446,10.0305,10.1209,10.2109,10.289,10.289,10.289,10.289,10.289,10.289,10.289,10.289,10.289,10.289,10.289,10.3984,10.5508,10.5508,10.6601,10.8007,8.3208,0.0,0.0,0.0,0.0,0.0,0.0,0.0,0.0,0.0,9.4595,0.0,9.6711,0.0,9.7634,0.0,9.6326,9.5365,9.5057,9.348,0.0,9.1748,9.1133,0.0,0.0,0.0,0.0,0.0,0.0,8.4362,8.4901,8.4055,8.4247,8.5401,0.0,8.8363,9.0017,0.0,9.2249,0.0,0.0,9.2326,0.0,0.0,9.1966,9.1641,0.0,8.8534,8.8226,8.6607,8.624,8.6526,8.6538,8.6786,8.7248,8.8363,8.8902,8.9363,9.0441,9.0748,0.0,8.7979,8.6748,0.0,8.3285,0.0,0.0,0.0,0.0,0.0,0.0,0.0,0.0,0.0,0.0,0.0,0.0,0.0,0.0,0.0,0.0,0.0,0.0,0.0,8.5214,8.4696,8.4711,8.5527,0.0,0.0,9.0442,9.2528,9.4248,9.5538,9.6439,9.7848,9.8983,9.9842,10.0703,10.1601,10.2383,10.2812,10.289,10.289,10.289,10.289,10.289,10.289,10.289,10.289,10.289,10.3984,10.5507,10.5508,10.6601,10.8007,0.0,0.0,0.0,0.0,8.567,0.0,0.0,0.0,9.221,0.0,9.5942,9.748,9.9904,10.0212,10.0289,10.0289,9.9481,0.0,9.775,9.6172,0.0,0.0,9.3557,9.2249,9.1287,0.0,0.0,0.0,0.0,0.0,8.4978,8.5709,8.6055,8.6209,8.8709,0.0,9.0056,9.2595,9.321,9.2479,9.2479,9.2556,9.271,9.3441,9.371,9.3326,9.0017,8.8786,8.8479,8.6786,8.6786,8.744,8.744,8.8017,8.8709,8.8748,8.9286,8.9902,8.994,8.9979,8.9594,8.794,0.0,0.0,0.0,0.0,8.5973,0.0,0.0,0.0,0.0,0.0,0.0,0.0,0.0,0.0,0.0,0.0,0.0,0.0,0.0,0.0,0.0,8.459,8.4657,8.4675,8.4702,0.0,0.0,0.0,8.9835,9.2457,9.4255,9.5623,9.6484,9.7304,9.8125,9.9023,9.9883,10.0781,10.1601,10.25,10.289,10.289,10.289,10.289,10.289,10.289,10.289,10.289,10.289,10.3983,10.5504,10.5585,10.6601,10.8007,8.594,8.6478,8.7401,0.0,8.7209,8.6901,0.0,0.0,0.0,0.0,9.8327,10.0289,10.0904,10.2097,10.2904,10.2904,10.2097,0.0,0.0,0.0,0.0,9.6903,9.5865,9.4326,9.221,9.1325,0.0,8.7055,0.0,0.0,8.5786,8.5401,8.5517,8.6209,0.0,0.0,9.0056,9.1979,9.2672,9.2479,9.2479,9.3249,0.0,0.0,9.4095,9.4287,9.1556,9.0133,8.944,8.8402,8.8171,8.8363,8.8363,8.8517,8.8825,8.944,8.9748,9.0056,9.071,9.0864,9.065,8.9641,8.8733,8.7825,0.0,0.0,0.0,0.0,0.0,0.0,0.0,0.0,0.0,0.0,0.0,0.0,0.0,0.0,0.0,0.0,0.0,0.0,0.0,0.0,8.2896,8.2949,8.2373,0.0,0.0,0.0,0.0,9.1562,9.3945,9.5625,9.6484,9.7304,9.8125,9.9023,9.9883,10.0781,10.1601,10.25,10.289,10.289,10.289,10.289,10.289,10.289,10.289,10.3008,10.3593,10.4917,10.6394,10.7098,10.7612,10.8005,8.7325,0.0,0.0,8.9825,0.0,0.0,9.0364,0.0,0.0,9.6596,9.9442,0.0,10.2404,10.3597,10.4405,10.4405,10.3982,0.0,0.0,0.0,0.0,9.9211,9.7673,9.598,9.421,9.2941,0.0,8.8479,0.0,0.0,8.6094,8.5286,8.5324,8.617,0.0,8.8786,9.0017,9.1748,9.2903,9.3557,9.3172,0.0,0.0,9.4864,9.4903,9.4749,9.2941,9.1248,8.9787,8.8979,8.894,8.921,8.921,8.9479,8.9863,9.0325,9.021,9.0094,9.0979,9.0958,9.0642,9.0224,8.9809,8.9254,8.8456,8.8267,8.8077,0.0,0.0,0.0,0.0,0.0,0.0,0.0,0.0,0.0,0.0,0.0,0.0,0.0,0.0,0.0,0.0,0.0,0.0,0.0,0.0,0.0,0.0,0.0,0.0,9.0664,9.3281,9.5234,9.6484,9.7304,9.7969,9.8437,9.9687,10.0586,10.1094,10.2304,10.289,10.289,10.289,10.289,10.2889,10.2889,10.2889,10.3004,10.4208,10.5489,10.681,10.7703,10.7987,10.7998,0.0,0.0,0.0,0.0,0.0,0.0,0.0,9.398,0.0,9.7788,0.0,10.2404,10.3905,10.4789,10.529,10.529,0.0,10.4905,10.3982,10.252,10.152,10.1289,9.8981,9.7288,9.648,9.4634,0.0,0.0,0.0,0.0,8.6247,8.544,8.544,8.6132,0.0,0.0,0.0,9.1748,9.3326,9.4634,9.4095,9.4326,9.5095,9.598,9.5749,9.4921,9.4134,9.2326,9.0133,8.9286,8.9479,9.0094,9.0094,9.0594,9.121,9.121,9.0671,9.0248,9.0997,9.0757,9.0301,9.0358,9.045,9.0305,8.9615,8.9411,8.9164,8.8383,8.752,8.6933,0.0,0.0,0.0,0.0,0.0,0.0,0.0,0.0,0.0,0.0,0.0,0.0,0.0,0.0,0.0,0.0,0.0,0.0,0.0,0.0,0.0,8.9922,9.2539,9.4804,9.664,0.0,9.7773,9.789,9.9414,10.0195,10.039,10.1992,10.2812,10.289,10.289,10.2889,10.2885,10.2885,10.2999,10.3417,10.5009,10.6093,10.6988,10.7708,10.7996,10.7982,0.0,0.0,0.0,0.0,0.0,9.4287,9.6134,9.7403,9.875,10.0404,10.2904,10.4597,10.4905,10.5713,10.6213,10.6213,10.6213,0.0,0.0,0.0,0.0,10.1404,9.9558,9.8173,9.7326,9.4941,9.2787,0.0,0.0,0.0,8.7132,8.6286,8.5978,8.6132,0.0,0.0,9.0017,9.1748,0.0,9.3056,9.4287,9.4864,9.5095,9.598,9.5749,9.498,9.4826,9.3595,9.1902,9.1056,9.0864,9.0979,9.0979,9.1095,9.121,9.121,9.1095,9.1035,9.1219,9.1226,9.1222,9.1412,9.1498,9.1488,9.1411,9.0855,9.0179,8.9468,8.8652,8.7642,8.6403,0.0,0.0,0.0,0.0,0.0,0.0,0.0,0.0,0.0,0.0,0.0,0.0,0.0,0.0,0.0,0.0,0.0,0.0,0.0,0.0,0.0,9.2539,0.0,0.0,0.0,9.8047,9.8789,9.9062,9.9609,10.0312,10.1406,10.2187,10.2887,10.2887,10.2884,10.2916,10.2916,10.3691,10.5084,10.6096,10.6985,10.7786,10.7816,10.7805,10.7811,0.0,0.0,0.0,0.0,0.0,0.0,0.0,10.0289,0.0,10.1904,10.3789,10.5097,10.5097,10.5905,10.6405,10.6405,10.6099,10.5485,10.4677,10.381,10.2982,10.2211,10.0017,0.0,9.8247,0.0,9.3095,9.1864,0.0,0.0,0.0,0.0,0.0,8.6132,0.0,8.8171,0.0,0.0,0.0,9.4557,9.5365,9.5903,9.6403,9.725,9.7326,9.6865,9.598,9.5172,9.421,9.2479,9.1556,9.121,9.121,9.121,9.121,9.121,9.0937,9.0757,9.1226,9.1122,9.1026,9.1643,9.1838,9.1912,9.1971,9.1695,9.1089,8.9839,8.929,8.8406,8.6368,8.5366,0.0,0.0,0.0,0.0,0.0,0.0,0.0,0.0,0.0,0.0,0.0,0.0,0.0,0.0,0.0,0.0,0.0,0.0,0.0,0.0,0.0,0.0,0.0,0.0,0.0,9.832,9.8789,9.9453,10.0312,10.121,10.2107,10.2886,10.2883,10.2916,10.2905,10.3288,10.4489,10.6079,10.6489,10.7212,10.7894,10.7795,10.7698,10.7705,0.0,9.7711,0.0,0.0,9.875,0.0,10.0981,10.2904,10.3905,10.3212,10.4405,10.5405,10.5405,10.6002,10.6407,10.6195,10.5601,10.5216,10.4792,10.3594,10.2802,10.2591,10.0224,9.8898,9.888,9.565,9.3574,0.0,0.0,0.0,0.0,0.0,0.0,0.0,0.0,0.0,0.0,0.0,9.3056,9.6326,9.648,9.7057,9.7865,9.8519,9.8788,9.8634,9.7326,9.6596,9.598,9.398,9.2479,9.1479,9.1479,9.1364,9.121,9.121,9.0817,9.0516,9.1245,9.1074,9.0881,9.172,9.196,9.2055,9.2099,9.2141,9.1743,9.0208,8.9635,8.88,8.6673,8.6336,0.0,0.0,0.0,0.0,0.0,0.0,0.0,0.0,0.0,0.0,0.0,0.0,0.0,0.0,0.0,8.3047,8.3047,8.4062,8.5625,0.0,0.0,9.2734,9.5195,0.0,9.7773,0.0,9.8476,9.9296,10.0311,10.1012,10.1908,10.2882,10.2914,10.29,10.3109,10.3991,10.5305,10.6617,10.6806,10.721,10.7788,10.7714,10.7587,10.7607,0.0,0.0,0.0,0.0,0.0,0.0,10.4289,10.4789,10.4982,10.4905,10.5713,10.629,10.629,10.6409,10.6199,10.5505,10.5408,10.4692,10.3188,10.3013,10.2514,10.169,9.9861,9.8862,9.8807,9.6229,9.4534,0.0,0.0,0.0,0.0,0.0,0.0,0.0,0.0,0.0,0.0,9.3903,9.5211,9.6365,9.7096,9.7904,9.8673,9.875,9.8788,9.8788,9.8634,9.7596,9.6249,9.6019,9.4364,9.2364,9.2364,9.1825,9.121,9.121,9.1202,9.1226,9.1423,9.1585,9.1735,9.1936,9.2055,9.2099,9.211,9.211,9.1859,9.0976,8.9598,8.8356,8.7443,8.7251,8.7233,0.0,0.0,0.0,0.0,0.0,0.0,0.0,0.0,0.0,0.0,0.0,0.0,0.0,0.0,8.125,8.125,8.2812,8.4179,8.5234,0.0,9.3359,9.5191,9.6871,9.8119,9.8855,9.8152,9.8697,10.0299,10.0416,10.1308,10.278,10.2819,10.3218,10.4009,10.4784,10.5682,10.6514,10.7293,10.7605,10.7705,10.7617,10.7607,10.7586,0.0,0.0,0.0,0.0,0.0,0.0,0.0,10.6713,10.6713,10.6713,10.6521,10.6405,10.6405,10.6506,10.6122,10.5293,10.4905,10.4206,10.2902,10.2504,10.2091,10.162,10.0501,9.9596,9.906,9.6964,9.5521,0.0,0.0,0.0,0.0,0.0,0.0,0.0,0.0,9.2095,9.4018,9.4172,9.5595,9.7865,9.8711,9.925,9.9635,10.0096,10.0289,10.0212,9.975,9.9135,9.8404,9.7365,9.5326,9.321,9.321,9.2669,9.2028,9.2028,9.1782,9.1485,9.1605,9.1705,9.1812,9.19,9.1948,9.1994,9.2092,9.2122,9.188,9.1131,9.0086,8.9267,8.8934,8.8943,8.8965,0.0,0.0,0.0,0.0,0.0,0.0,0.0,0.0,0.0,0.0,0.0,0.0,0.0,0.0,0.0,8.2539,8.2226,0.0,8.6367,0.0,9.2146,9.4409,9.7101,9.866,9.9008,9.9164,9.9906,10.1117,10.1109,10.1684,10.28,10.2811,10.3513,10.4701,10.5009,10.5888,10.7111,10.7392,10.7487,10.7516,10.7389,10.7404,10.7389,10.7021,0.0,10.5905,0.0,10.6982,10.6713,10.8213,10.8003,10.7793,10.8101,10.7217,10.6486,10.6407,10.6295,10.5813,10.4889,10.4304,10.3486,10.2496,10.2091,10.1787,10.1683,10.091,0.0,9.9514,9.7799,9.6492,9.5644,9.4095,0.0,0.0,0.0,0.0,0.0,9.2018,9.3633,9.6057,9.5441,9.673,9.9249,9.9884,10.0326,10.0576,10.121,10.1402,10.1307,10.0804,10.0419,9.9997,9.8728,9.6803,9.48,9.4264,9.3624,9.3015,9.3015,9.2689,9.2349,9.2436,9.2327,9.2212,9.2288,9.2154,9.1989,9.2103,9.2151,9.194,9.121,9.0657,9.0196,8.9981,8.9974,8.9991,8.9991,0.0,0.0,0.0,0.0,0.0,0.0,0.0,8.457,8.3672,0.0,0.0,0.0,0.0,0.0,0.0,0.0,0.0,0.0,0.0,0.0,0.0,9.7795,9.939,9.9388,10.0013,10.0716,10.1614,10.1788,10.2199,10.2807,10.2983,10.3783,10.5212,10.529,10.6185,10.7394,10.7287,10.7314,10.7301,10.7192,10.7192,10.7286,10.8906,10.8906,10.879,10.8906,10.8906,10.9213,10.9983,10.8796,10.8086,10.8992,10.7683,10.6602,10.6507,10.6002,10.5203,10.4209,10.3409,10.261,10.1799,10.1683,10.1683,0.0,0.0,10.0402,10.0208,9.8601,9.738,9.6492,0.0,0.0,9.2673,0.0,9.4557,9.6249,9.7057,9.7904,9.875,9.875,9.9307,10.0208,10.0208,10.0802,10.1603,10.171,10.1787,10.1683,10.1819,10.1207,10.0392,10.0291,9.9154,9.744,9.5658,9.4574,9.4001,9.4001,9.401,9.4103,9.4138,9.3684,9.3218,9.3279,9.2724,9.2178,9.2187,9.2254,9.2107,9.134,9.1202,9.0949,9.0137,8.9992,8.9996,8.9996,0.0,0.0,0.0,0.0,0.0,0.0,8.5429,8.457,8.3672,0.0,0.0,0.0,0.0,0.0,0.0,0.0,0.0,8.6168,9.1167,0.0,9.6334,9.895,10.0311,10.029,10.029,10.0681,10.15,10.2309,10.271,10.2704,10.3496,10.4304,10.5106,10.5899,10.6624,10.7313,10.7192,10.7202,10.7202,10.7202,10.7202,10.7217,10.979,11.0291,11.0714,11.0714,11.07,11.078,11.1088,10.9802,10.8897,10.909,10.7795,10.6498,10.5999,10.5705,10.501,0.0,10.319,10.2682,0.0,10.1793,10.1787,10.1683,10.1516,10.1091,10.0502,9.9977,9.9265,9.8328,0.0,0.0,0.0,9.4513,9.5211,9.6365,9.775,9.8865,9.9673,9.9673,10.0192,10.1094,10.1094,10.1297,10.1693,10.1693,10.178,10.1819,10.1789,10.161,10.1197,10.0697,10.02,9.9493,9.7872,9.6319,9.5124,9.5196,9.4858,9.4463,9.4529,9.3939,9.3347,9.3357,9.2734,9.2174,9.226,9.2401,9.2432,9.2216,9.2627,9.2954,9.2727,9.3123,9.3359,9.2773,9.2656,0.0,0.0,0.0,0.0,0.0,8.5585,8.5193,0.0,8.39,0.0,0.0,0.0,0.0,0.0,0.0,0.0,0.0,9.0932,0.0,9.6383,9.8983,10.061,10.111,10.1705,10.2014,10.2283,10.249,10.2599,10.2709,10.34,10.4221,10.4994,10.5784,10.6524,10.7198,10.709,10.7084,10.7114,10.7114,10.7107,10.709,11.0714,11.1081,11.1508,11.1508,11.1594,11.1712,11.1711,11.0285,10.9278,10.928,10.7903,10.6409,10.5288,10.5095,0.0,10.3104,10.2781,10.2411,10.1676,10.1777,10.1787,10.1809,10.1896,10.1603,10.0991,0.0,0.0,9.9722,9.8833,9.7787,9.66,9.6512,9.692,9.7806,9.8846,9.975,10.0596,10.0596,10.0884,10.1588,10.1581,10.1703,10.2004,10.1982,10.2087,10.2099,10.2113,10.1983,10.1904,10.1517,10.1114,10.0684,9.9785,9.8217,9.6721,9.6398,9.5972,9.5583,9.5611,9.5045,9.4362,9.4003,9.3313,9.2646,9.2471,9.2763,9.3103,9.3107,9.3781,9.4372,9.4373,9.4843,9.4922,9.4023,9.3906,9.3008,9.0351,0.0,0.0,0.0,0.0,0.0,0.0,8.5067,0.0,0.0,0.0,0.0,0.0,0.0,0.0,8.9373,9.21,0.0,9.7821,9.9794,10.118,10.1982,10.2392,10.2607,10.2601,10.2607,10.2591,10.2582,10.3685,10.44,10.5016,10.5994,10.6782,10.722,10.7202,10.7081,10.7105,10.7105,10.7075,10.7099,11.1504,11.1609,11.1594,0.0,11.1809,0.0,11.1809,11.0488,10.9493,10.9311,10.7989,10.6299,10.4597,10.4403,10.3984,10.3013,0.0,0.0,0.0,10.1699,10.1809,10.1889,10.1889,10.1819,10.1699,10.1007,10.0705,10.0589,9.9777,9.9351,9.9188,9.9046,9.9455,10.0285,10.0211,10.0616,10.1289,10.1308,10.1496,10.1693,10.1811,10.2022,10.219,10.2417,10.2499,10.2504,10.2507,10.2491,10.2486,10.2411,10.1895,10.1213,10.1307,10.02,9.8704,9.765,9.7273,9.7234,9.7234,9.6685,9.5938,9.512,9.4289,9.3529,9.2753,9.3269,9.3895,9.3902,9.4645,9.5271,9.5273,9.5351,9.5078,9.414,9.3984,9.3047,9.039,0.0,0.0,0.0,0.0,0.0,0.0,8.6389,8.7397,0.0,0.0,0.0,0.0,0.0,8.9373,9.2484,9.4359,9.6886,10.0294,10.111,10.1904,10.2704,10.2585,10.2585,10.2585,10.2498,10.2499,10.2616,10.4194,10.4915,10.4992,10.6718,10.7389,10.751,10.7391,10.7301,10.7183,10.7299,10.7092,10.692,0.0,0.0,11.1898,11.1898,11.1985,11.1903,11.1121,11.0201,10.9305,10.8603,10.7597,10.6299,10.4597,10.4403,10.3807,10.2283,10.2012,10.1896,10.1896,10.1896,10.1912,10.1889,10.1889,10.1889,10.1896,10.1718,10.139,10.0789,10.0402,10.028,10.031,10.0115,10.0501,10.1318,10.13,10.1285,10.1499,10.1599,10.1796,10.1899,10.2087,10.2201,10.2379,10.2504,10.2585,10.2592,10.2609,10.2491,10.2504,10.2592,10.249,10.221,10.1601,10.1197,10.049,9.8971,9.8024,9.7517,9.7583,9.6968,9.6271,9.6058,9.4916,9.3649,9.2796,9.3272,9.3902,9.3902,9.5116,9.6172,9.6172,9.6679,9.6601,9.5117,9.4883,9.375,9.0469,9.0,0.0,0.0,8.7733,8.812,8.8115,8.869,8.9615,0.0,0.0,0.0,0.0,9.2564,9.245,9.2601,9.5522,9.813,10.0311,10.1117,10.189,10.2585,10.2498,10.2411,10.2489,10.2509,10.2498,10.2685,10.4296,10.5104,10.5182,10.6887,10.7617,10.7588,10.7487,10.7005,10.6387,10.6379,10.5916,10.5182,11.1898,11.1985,11.2091,11.2091,11.2196,11.1918,11.1008,11.0111,10.9298,10.8404,10.7498,10.6299,10.4597,10.4403,10.3707,10.2005,10.1889,10.1889,10.1889,10.1889,10.1889,10.1889,10.1889,10.1889,10.1889,10.2019,10.1821,10.1387,10.1384,10.1293,10.1293,10.12,10.13,10.1705,10.171,10.1599,10.1599,10.1787,10.1899,10.2085,10.2211,10.24,10.2614,10.2588,10.2698,10.2683,10.271,10.2692,10.2601,10.2694,10.2699,10.2616,10.2191,10.1813,10.1305,10.0395,9.922,9.8244,9.8295,9.7643,9.6794,9.6034,9.4872,9.3782,9.3316,9.3865,9.4608,9.4999,9.6132,9.7031,9.7031,9.7422,9.7148,9.5469,9.5195,9.4101,9.1015,9.0586,0.0,8.8788,8.9368,9.0023,9.0447,9.1255,9.2102,9.2951,9.3039,0.0,9.4331,9.4808,9.4814,9.435,9.6532,9.8557,10.0308,10.1488,10.2215,10.2585,10.2516,10.2411,10.2499,10.2499,10.2489,10.2621,10.4391,10.5092,10.5191,10.7001,10.7711,10.7585,10.7617,10.7082,10.6294,10.621,10.5475,10.4591,11.1997,11.2179,11.2189,11.2189,11.2197,11.1786,11.0817,10.9988,10.9105,10.8211,10.7305,10.6183,10.4597,10.4287,10.3591,10.2005,10.1889,10.1889,10.1889,10.1889,10.1889,10.1889,10.1889,10.1905,10.1905,10.201,10.2082,10.2086,10.2177,10.2216,10.2112,10.2082,10.201,10.1881,10.1819,10.1796,10.1796,10.1903,10.2087,10.2401,10.2379,10.2599,10.2688,10.2811,10.2789,10.2789,10.2789,10.2789,10.2789,10.2789,10.2789,10.2789,10.2789,10.2281,10.1696,10.1696,10.0603,9.9314,9.908,9.8352,9.7318,9.5774,9.484,9.4256,9.414,9.4765,9.5625,9.6367,9.7148,9.7695,9.7695,9.7695,9.7148,9.5468,9.5078,9.414,9.164,0.0,9.0933,9.0464,9.1037,9.1885,9.2895,9.3586,9.436,9.5215,9.5293,9.5332,9.5488,9.6184,9.6582,9.6602,9.7578,9.8938,10.0681,10.1992,10.2686,10.2698,10.2607,10.2507,10.2479,10.2479,10.2606,10.2819,10.4382,10.5191,10.5388,10.7013,10.7711,10.7705,10.7714,10.709,10.6191,10.6099,10.5408,10.4499,11.2311,11.2394,11.2408,11.2408,11.1705,11.0895,10.9888,10.9097,10.8307,10.7282,10.6415,10.5487,10.4519,10.3784,10.3011,10.2005,10.1889,10.1889,10.1889,10.1889,10.1889,10.1889,10.1889,10.1881,10.1995,10.2098,10.219,10.2291,10.2303,10.2303,10.2291,10.219,10.2086,10.2096,10.2004,10.2007,10.2113,10.2206,10.2411,10.2592,10.2704,10.2788,10.282,10.2785,10.2789,10.2789,10.2789,10.2789,10.2789,10.2789,10.2789,10.2789,10.2789,10.2711,10.2593,10.2593,10.1891,10.0798,9.9392,9.8362,9.7446,9.6478,9.6131,9.5898,9.5156,9.5664,9.6328,9.6484,9.7148,9.7695,9.7695,9.7695,9.7148,9.5466,9.4567,9.3434,9.1553,0.0,9.0691,9.2058,9.2328,9.3025,9.4577,9.4808,9.5271,9.6113,9.6191,9.6503,9.7245,9.7363,9.7441,9.7483,9.9045,10.0684,10.2398,10.2521,10.2588,10.2698,10.2495,10.2507,10.2616,10.2616,10.3006,10.381,10.4792,10.5689,10.6416,10.7293,10.7697,10.7697,10.748,10.6493,10.5093,10.5105,10.4286,10.3404,11.2422,11.2408,11.2302,11.2302,11.1607,11.0616,10.9694,10.8911,10.8011,10.7089,10.6183,10.5409,10.4519,10.3707,10.2817,10.2005,10.1897,10.2004,10.2004,10.2004,10.2004,10.2004,10.1995,10.2096,10.2203,10.2295,10.242,10.2509,10.2509,10.2509,10.2509,10.2389,10.2311,10.2213,10.2213,10.221,10.2317,10.2411,10.2616,10.2716,10.2782,10.2807,10.2789,10.2789,10.2789,10.2789,10.2789,10.2789,10.2789,10.2789,10.2789,10.2789,10.2789,10.2789,10.2789,10.2789,10.2203,10.1114,9.9442,9.8716,9.8067,9.6751,9.6403,9.6366,9.5976,9.6171,9.6561,9.7069,9.7458,9.769,9.769,9.769,9.73,9.6046,9.5109,0.0,0.0,9.2597,9.2515,9.3803,9.4775,9.5664,9.6439,9.7337,9.8026,9.8378,9.8378,9.8363,9.8258,9.8228,9.7994,9.7556,9.9328,10.111,10.2789,10.2704,10.2704,10.2686,10.2616,10.2585,10.2601,10.2591,10.3019,10.391,10.4711,10.562,10.641,10.7208,10.75,10.7498,10.7386,10.651,10.541,10.5306,10.4605,10.3791,11.2394,11.2311,11.2212,11.198,11.122,11.0305,10.9414,10.8592,10.7807,10.7111,10.6105,10.51,10.4519,10.3507,10.2686,10.2019,10.199,10.2085,10.2098,10.2125,10.2112,10.2018,10.2113,10.2198,10.2293,10.2507,10.2491,10.2601,10.2601,10.2601,10.2601,10.2486,10.2509,10.2391,10.2391,10.2392,10.2495,10.2484,10.2608,10.2802,10.2802,10.2811,10.2789,10.2789,10.2789,10.2789,10.2789,10.2789,10.2789,10.2789,10.2789,10.2789,10.2789,10.2789,10.2789,10.2789,10.2281,10.1387,9.9767,9.9145,9.8643,9.7099,9.6715,9.6717,9.6758,9.6756,9.6908,9.7572,9.7685,9.768,9.768,9.768,9.7407,9.6544,0.0,0.0,0.0,9.4334,9.4243,9.5485,9.6835,9.7797,9.8187,9.9436,10.0202,10.0112,10.0112,9.9774,9.9055,9.8798,9.8478,9.7956,9.9422,10.0997,10.2709,10.2716,10.2679,10.2599,10.2593,10.2513,10.2498,10.2381,10.2883,10.3894,10.451,10.5396,10.6395,10.7003,10.7288,10.7313,10.71,10.6607,10.5802,10.5619,10.51,10.4494,11.2282,11.2298,11.2002,11.1088,11.0195,10.9294,10.852,10.7708,10.7111,10.6995,10.5487,10.4519,10.4403,10.3109,10.2215,10.2087,10.221,10.2289,10.2381,10.2392,10.2401,10.2198,10.2391,10.2507,10.2486,10.2607,10.2593,10.2601,10.2601,10.2601,10.2601,10.2593,10.2585,10.2585,10.2585,10.2592,10.2698,10.2698,10.2699,10.2785,10.2785,10.2789,10.2789,10.2789,10.2789,10.2789,10.2789,10.2789,10.2789,10.2789,10.2789,10.2789,10.2789,10.2789,10.2789,10.2789,10.2789,10.2285,10.0705,9.9614,9.8797,9.7835,9.7613,9.7617,9.7617,9.7613,9.7604,9.7682,9.768,9.768,9.768,9.768,9.7403,9.6534,0.0,0.0,9.5007,9.4251,9.458,9.6933,9.7355,9.8056,9.9686,9.9959,9.9998,9.999,9.999,9.999,9.9904,9.909,9.89,9.9599,9.9864,10.0808,10.2521,10.24,10.2285,10.2217,10.2109,10.2009,10.2022,10.2009,10.2887,10.44,10.4516,10.5486,10.6984,10.6991,10.6889,10.6895,10.6804,10.6192,10.542,10.5402,10.5291,10.5197,11.2205,11.2202,11.192,11.0991,11.0107,10.92,10.8388,10.7614,10.6995,10.6995,10.6007,10.5114,10.4615,10.3717,10.2805,10.2278,10.2391,10.2401,10.2507,10.2601,10.2609,10.2498,10.2601,10.2614,10.2614,10.2704,10.2694,10.2694,10.2694,10.2694,10.2694,10.2692,10.2712,10.2712,10.2712,10.2686,10.271,10.2709,10.2811,10.2789,10.2789,10.2789,10.2789,10.2789,10.2789,10.2789,10.2789,10.2789,10.2789,10.2789,10.2789,10.2789,10.2789,10.2789,10.2789,10.2789,10.2796,10.2498,10.1379,10.0408,9.959,9.8701,9.8085,9.7693,9.769,9.768,9.7709,9.7709,9.7701,9.7695,9.7695,9.8069,9.8279,9.7958,0.0,9.7499,9.8045,9.7337,9.7362,9.886,9.9476,10.0107,10.0691,10.1315,10.1603,10.1582,10.1506,10.1195,10.0617,9.9219,9.8748,9.9539,9.9614,10.0496,10.2285,10.2311,10.2206,10.2111,10.2009,10.1995,10.2007,10.1909,10.2794,10.442,10.431,10.5189,10.6813,10.6821,10.6786,10.6807,10.6602,10.6391,10.6122,10.6006,10.6005,10.6004,11.2212,11.2185,11.1804,11.0714,11.0018,10.9205,10.8082,10.7385,10.7114,10.7114,10.6398,10.5812,10.5205,10.4311,10.3413,10.2915,10.2702,10.2585,10.2592,10.2704,10.2683,10.2712,10.2716,10.2699,10.2699,10.2811,10.2789,10.2789,10.2789,10.2789,10.2789,10.2792,10.2699,10.2699,10.2699,10.2699,10.2699,10.2815,10.2789,10.2789,10.2789,10.2789,10.2789,10.2789,10.2789,10.2789,10.2789,10.2789,10.2789,10.2789,10.2789,10.2789,10.2789,10.2793,10.28,10.281,10.2783,10.2714,10.2099,10.1089,10.0115,9.9216,9.8359,9.7687,9.7682,9.7706,9.7692,9.7692,9.787,9.8045,9.8045,9.8664,9.9163,9.9163,9.9123,9.9312,9.9911,9.9436,9.9388,10.0219,10.0803,10.13,10.1603,10.2099,10.2421,10.2406,10.2311,10.1696,10.0496,9.9266,9.8834,9.9304,9.9313,10.0214,10.1983,10.1995,10.198,10.1792,10.1796,10.1789,10.1789,10.2009,10.2808,10.4181,10.4288,10.5196,10.6584,10.6584,10.6584,10.6623,10.6507,10.6526,10.6506,10.6387,10.6405,10.6405,11.2212,11.2196,11.1708,11.0096,10.98,10.9219,10.7513,10.7202,10.7202,10.7202,10.6602,10.6107,10.6107,10.4717,10.3793,10.3907,10.319,10.2802,10.2789,10.2789,10.2789,10.2789,10.2789,10.2789,10.2789,10.2789,10.2789,10.2789,10.2789,10.2789,10.2789,10.2789,10.2789,10.2789,10.2789,10.2789,10.2789,10.2789,10.2789,10.2789,10.2789,10.2789,10.2789,10.2789,10.2789,10.2789,10.2789,10.2789,10.2789,10.2789,10.2789,10.2789,10.2789,10.2803,10.2783,10.2805,10.2808,10.2809,10.2812,10.1597,10.0107,9.9218,9.8355,9.7719,9.7719,9.7701,9.7714,9.7714,9.83,9.8809,9.8809,9.9449,9.9982,9.9982,9.9982,9.9989,9.994,9.9921,10.0203,10.0901,10.1006,10.1293,10.2086,10.219,10.2203,10.2098,10.2085,10.1321,9.9493,9.9342,9.9267,9.921,9.9128,9.9874,10.1518,10.1609,10.1609,10.1518,10.1404,10.1289,10.1289,10.2212,10.3097,10.3982,10.4789,10.5597,10.6405,10.6405,10.6405,10.6405,10.6405,10.6405,10.6405,10.6405,10.6405,10.6405,11.2305,11.2275,11.1709,11.011,10.98,10.9209,10.7495,10.7314,10.7313,10.7398,10.7285,10.7013,10.6386,10.602,10.5302,10.4085,10.3787,10.3483,10.2789,10.2789,10.2789,10.2789,10.2789,10.2789,10.2789,10.2789,10.2789,10.2789,10.2789,10.2789,10.2789,10.2789,10.2789,10.2789,10.2789,10.2789,10.2789,10.2789,10.2789,10.2789,10.2789,10.2789,10.2711,10.2086,10.1891,10.1813,10.1188,10.0993,10.0997,10.1007,10.1482,10.211,10.2599,10.28,10.2805,10.2811,10.2812,10.2811,10.2806,10.1586,10.021,9.999,9.8807,9.7848,9.8473,9.8619,9.876,9.927,9.9562,9.9689,9.9637,10.0301,10.0785,10.0785,10.1312,10.16,10.1606,10.1595,10.1701,10.1899,10.1903,10.1905,10.2203,10.219,10.2112,10.2085,10.1986,10.1092,9.9288,9.9719,9.969,9.9025,9.9568,10.0401,10.1289,10.1518,10.1826,10.229,10.2193,10.252,10.3097,10.3405,10.3982,10.4789,10.4982,10.5597,10.6405,10.6405,10.6405,10.6405,10.6405,10.6405,10.6405,10.6405,10.6405,10.6405,11.2411,11.2101,11.1507,11.0199,10.9706,10.8992,10.771,10.7487,10.7508,10.7617,10.7705,10.7487,10.7008,10.6796,10.609,10.4702,10.3999,10.3413,10.2789,10.2789,10.2789,10.2789,10.2789,10.2789,10.2789,10.2789,10.2789,10.2789,10.2789,10.2789,10.2789,10.2789,10.2789,10.2789,10.2789,10.2789,10.2789,10.2789,10.2789,10.2789,10.2789,10.2593,10.2203,10.1703,10.1316,10.1007,10.0506,10.0311,10.0314,10.0291,10.0688,10.1201,10.2108,10.2304,10.2383,10.2692,10.2803,10.2797,10.2785,10.16,10.0301,10.0311,9.8974,9.7948,9.8807,9.8947,9.9158,9.989,10.0313,10.0497,10.0384,10.1088,10.1611,10.1611,10.1984,10.2288,10.2288,10.2288,10.2315,10.2291,10.2215,10.2216,10.2112,10.211,10.1976,10.1918,10.1796,10.1109,9.9604,9.9989,9.9974,9.9382,9.9883,10.05,10.1289,10.1385,10.1809,10.2597,10.2597,10.3097,10.3905,10.4212,10.4597,10.5097,10.5482,10.5905,10.6405,10.6405,10.6405,10.6405,10.6405,10.6405,10.6405,10.6405,10.6405,10.6405,11.2616,11.1888,11.1116,11.0407,10.9615,10.8719,10.7792,10.7722,10.7683,10.7691,10.7788,10.7788,10.7788,10.7212,10.638,10.5482,10.3804,10.2789,10.2789,10.2789,10.2789,10.2789,10.2789,10.2789,10.2789,10.2789,10.2789,10.2789,10.2789,10.2789,10.2789,10.2789,10.2789,10.2789,10.2789,10.2789,10.2789,10.2789,10.2789,10.2789,10.2789,10.2285,10.1508,10.1482,10.0905,10.0205,10.01,10.0104,10.0105,10.019,10.0194,10.0312,10.1207,10.1517,10.1593,10.2392,10.2618,10.2611,10.259,10.1319,10.0085,10.0085,9.889,9.801,9.8873,9.9065,9.9248,9.9988,10.0782,10.1292,10.119,10.1794,10.2303,10.2303,10.2303,10.2303,10.2303,10.2303,10.2291,10.219,10.2216,10.2112,10.2025,10.1995,10.192,10.1705,10.1581,10.1185,10.019,10.0305,10.0191,10.0115,10.0173,10.0596,10.1289,10.1289,10.1789,10.2712,10.2712,10.3212,10.4097,10.4905,10.5213,10.529,10.6097,10.6405,10.6405,10.6405,10.6405,10.6405,10.6405,10.6405,10.6405,10.6405,10.6405,10.6405,11.2795,11.2103,11.1217,11.0386,10.9615,10.8696,10.7905,10.7795,10.7814,10.7905,10.792,10.8002,10.8002,10.7816,10.7083,10.5482,10.3804,10.2789,10.2789,10.2789,10.2789,10.2789,10.2789,10.2789,10.2789,10.2789,10.2789,10.2789,10.2789,10.2789,10.2789,10.2789,10.2789,10.2789,10.2789,10.2789,10.2789,10.2789,10.2789,10.2789,10.2803,10.2302,10.1485,10.0796,9.9985,9.9171,9.8508,9.8278,9.8359,9.9062,9.9293,9.9443,10.0291,10.0601,10.0596,10.0812,10.0794,10.069,10.061,9.9826,9.8999,9.8899,9.861,9.8595,9.9559,10.0208,10.0785,10.1593,10.189,10.1989,10.1906,10.1983,10.21,10.21,10.21,10.21,10.21,10.21,10.2086,10.2112,10.2015,10.2004,10.1881,10.1793,10.1581,10.1591,10.1478,10.1076,10.0211,10.0712,10.0808,10.0096,10.0712,10.1096,10.1289,10.1289,10.2097,10.3597,10.3597,10.4405,10.5905,10.602,10.6097,10.6097,10.629,10.6405,10.6405,10.6405,10.6405,10.6405,10.6405,10.6405,10.6405,10.6405,10.6405,10.6405,11.2314,11.1191,11.0192,10.9914,10.9102,10.8412,10.8011,10.79,10.791,10.8016,10.802,10.7786,10.7395,10.7395,10.6693,10.4897,10.3608,10.2789,10.2789,10.2789,10.2789,10.2789,10.2789,10.2789,10.2789,10.2789,10.2789,10.2789,10.2796,10.2796,10.2789,10.28,10.2796,10.2789,10.2789,10.2789,10.2789,10.28,10.2803,10.2803,10.2788,10.2092,10.0883,10.0504,9.9491,9.832,9.7851,9.7692,9.7765,9.8229,9.8377,9.8521,9.941,9.9676,9.9705,10.0083,10.0202,10.0112,10.0001,9.9304,9.8605,9.8511,9.8741,9.9147,9.9743,10.0514,10.119,10.1992,10.2189,10.2087,10.2096,10.211,10.2085,10.2085,10.2085,10.2085,10.2085,10.2085,10.2096,10.1986,10.1912,10.1896,10.1815,10.1603,10.1496,10.1518,10.1385,10.1193,10.0712,10.1096,10.1096,10.0712,10.1096,10.1289,10.1289,10.1289,10.2212,10.3905,10.3905,10.4789,10.6405,10.6405,10.6405,10.6405,10.6405,10.6405,10.6405,10.6405,10.6405,10.6405,10.6405,10.6405,10.6405,10.6405,10.6405,10.6405,11.1494,11.0212,10.9215,10.9304,10.8605,10.802,10.802,10.802,10.7903,10.7786,10.7786,10.7395,10.6614,10.6302,10.5717,10.4194,10.3296,10.2789,10.2789,10.2789,10.2789,10.2789,10.2789,10.2789,10.2789,10.2789,10.2789,10.2789,10.2803,10.2803,10.2789,10.2807,10.281,10.2793,10.2796,10.28,10.2803,10.2819,10.2785,10.279,10.2807,10.1795,10.0311,10.031,9.9213,9.7687,9.768,9.7709,9.7695,9.7695,9.7685,9.7827,9.8526,9.8708,9.8802,9.9533,9.9631,9.9554,9.9483,9.888,9.8253,9.8231,9.884,9.95,9.9691,10.0396,10.131,10.1919,10.2098,10.199,10.201,10.2015,10.2096,10.2096,10.2096,10.2096,10.2096,10.2004,10.1986,10.1889,10.1803,10.1799,10.1588,10.1498,10.1499,10.1499,10.1404,10.1289,10.1289,10.1289,10.1289,10.1289,10.1289,10.1289,10.1289,10.1289,10.2212,10.3905,10.3905,10.4789,10.6405,10.6405,10.6405,10.6405,10.6405,10.6405,10.6405,10.6405,10.6405,10.6405,10.6405,10.6405,10.6405,10.6405,10.6405,10.6405,11.0817,10.9885,10.93,10.9308,10.8605,10.802,10.802,10.802,10.7708,10.7005,10.6888,10.6497,10.5717,10.4897,10.4389,10.4116,10.3296,10.2789,10.2789,10.2789,10.2789,10.2789,10.2789,10.2789,10.2789,10.2789,10.2789,10.2789,10.2793,10.2793,10.2789,10.2807,10.2816,10.2813,10.2905,10.2914,10.2805,10.2805,10.2808,10.2812,10.2812,10.1794,10.0309,10.0302,9.9238,9.7706,9.7703,9.7692,9.7717,9.7717,9.7663,9.7646,9.7763,9.7783,9.779,9.7773,9.7754,9.7719,9.7454,9.73,9.7174,9.7053,9.8196,9.9342,9.9372,10.0611,10.1796,10.1912,10.1897,10.1881,10.1905,10.192,10.1881,10.1881,10.1881,10.1881,10.1881,10.178,10.1693,10.1699,10.1603,10.1498,10.1424,10.1308,10.1308,10.1308,10.1289,10.1289,10.1289,10.1289,10.1289,10.1289,10.1289,10.1289,10.1289,10.1289,10.2212,10.3905,10.3905,10.4789,10.6405,10.6405,10.6405,10.6405,10.6405,10.6405,10.6405,10.6405,10.6405,10.6405,10.6405,10.6405,10.6405,10.6405,10.6405,10.6385,11.0011,10.9191,10.8605,10.8605,10.8293,10.802,10.802,10.802,10.7708,10.681,10.6693,10.6189,10.4795,10.3906,10.3405,10.3405,10.3005,10.2803,10.2803,10.2796,10.2789,10.2789,10.2789,10.2789,10.2789,10.28,10.2803,10.2803,10.2813,10.2813,10.2807,10.279,10.2798,10.2798,10.2802,10.2807,10.2812,10.2812,10.2812,10.2811,10.2294,10.1382,10.0194,9.9705,9.8651,9.746,9.7448,9.7517,9.7632,9.7561,9.7505,9.7487,9.7487,9.744,9.7363,9.7321,9.7227,9.7149,9.7043,9.6927,9.687,9.6798,9.806,9.9297,9.9297,10.0613,10.1889,10.1889,10.1889,10.1889,10.1889,10.1889,10.1889,10.1889,10.1889,10.1912,10.1787,10.1699,10.1688,10.1624,10.1479,10.1404,10.1289,10.1289,10.1289,10.1289,10.1289,10.1289,10.1289,10.1289,10.1289,10.1289,10.1289,10.1289,10.1289,10.1289,10.2212,10.3905,10.3905,10.4789,10.6405,10.6405,10.6405,10.6405,10.6405,10.6405,10.6405,10.6405,10.6405,10.6405,10.6405,10.6402,10.6301,10.6199,10.6216,10.6216]}]]